<?xml version="1.0" encoding="UTF-8" standalone="no" ?>
<gpx xmlns="http://www.topografix.com/GPX/1/1" xmlns:xsi="http://www.w3.org/2001/XMLSchema-instance" xsi:schemaLocation="http://www.topografix.com/GPX/1/1 http://www.topografix.com/GPX/1/1/gpx.xsd" version="1.1" creator="VisuGPX - https://www.visugpx.com">
  <metadata>
    <name>Marche nordique</name>
    <desc><![CDATA[Avec le groupe complet]]></desc>
  </metadata>
  <trk>
    <name><![CDATA[30/03/2013 9:07]]></name>
    <desc><![CDATA[]]></desc>
    <trkseg>
      <trkpt lat="47.27477" lon="4.95231">
        <ele>494.5</ele>
        <time>2013-03-30T08:28:51.000Z</time>
      </trkpt>
      <trkpt lat="47.2747" lon="4.95223">
        <ele>491.6</ele>
        <time>2013-03-30T08:28:53.000Z</time>
      </trkpt>
      <trkpt lat="47.27461" lon="4.95222">
        <ele>474.7</ele>
        <time>2013-03-30T08:28:54.000Z</time>
      </trkpt>
      <trkpt lat="47.27464" lon="4.95222">
        <ele>486.6</ele>
        <time>2013-03-30T08:28:56.000Z</time>
      </trkpt>
      <trkpt lat="47.27466" lon="4.95215">
        <ele>486.1</ele>
        <time>2013-03-30T08:28:57.000Z</time>
      </trkpt>
      <trkpt lat="47.27468" lon="4.95212">
        <ele>483.9</ele>
        <time>2013-03-30T08:28:58.000Z</time>
      </trkpt>
      <trkpt lat="47.27471" lon="4.95208">
        <ele>479.7</ele>
        <time>2013-03-30T08:29:00.000Z</time>
      </trkpt>
      <trkpt lat="47.27469" lon="4.95204">
        <ele>473.4</ele>
        <time>2013-03-30T08:29:02.000Z</time>
      </trkpt>
      <trkpt lat="47.27488" lon="4.9521">
        <ele>479.2</ele>
        <time>2013-03-30T08:29:03.000Z</time>
      </trkpt>
      <trkpt lat="47.27496" lon="4.95213">
        <ele>482</ele>
        <time>2013-03-30T08:29:04.000Z</time>
      </trkpt>
      <trkpt lat="47.27501" lon="4.95215">
        <ele>483.7</ele>
        <time>2013-03-30T08:29:05.000Z</time>
      </trkpt>
      <trkpt lat="47.27507" lon="4.95218">
        <ele>487.4</ele>
        <time>2013-03-30T08:29:06.000Z</time>
      </trkpt>
      <trkpt lat="47.27505" lon="4.95218">
        <ele>495</ele>
        <time>2013-03-30T08:29:26.000Z</time>
      </trkpt>
      <trkpt lat="47.27496" lon="4.95218">
        <ele>497.9</ele>
        <time>2013-03-30T08:29:27.000Z</time>
      </trkpt>
      <trkpt lat="47.27496" lon="4.95218">
        <ele>494.8</ele>
        <time>2013-03-30T08:29:42.000Z</time>
      </trkpt>
      <trkpt lat="47.275" lon="4.95223">
        <ele>491</ele>
        <time>2013-03-30T08:29:43.000Z</time>
      </trkpt>
      <trkpt lat="47.27497" lon="4.95222">
        <ele>489.5</ele>
        <time>2013-03-30T08:29:47.000Z</time>
      </trkpt>
      <trkpt lat="47.27495" lon="4.95221">
        <ele>489</ele>
        <time>2013-03-30T08:29:48.000Z</time>
      </trkpt>
      <trkpt lat="47.27495" lon="4.95221">
        <ele>489.4</ele>
        <time>2013-03-30T08:30:18.000Z</time>
      </trkpt>
      <trkpt lat="47.27482" lon="4.95217">
        <ele>476.2</ele>
        <time>2013-03-30T08:30:37.000Z</time>
      </trkpt>
      <trkpt lat="47.27482" lon="4.95217">
        <ele>476.2</ele>
        <time>2013-03-30T08:31:18.000Z</time>
      </trkpt>
      <trkpt lat="47.27504" lon="4.95217">
        <ele>510.8</ele>
        <time>2013-03-30T08:31:31.000Z</time>
      </trkpt>
      <trkpt lat="47.27502" lon="4.95223">
        <ele>504.5</ele>
        <time>2013-03-30T08:31:43.000Z</time>
      </trkpt>
      <trkpt lat="47.27498" lon="4.95218">
        <ele>496.1</ele>
        <time>2013-03-30T08:31:44.000Z</time>
      </trkpt>
      <trkpt lat="47.27496" lon="4.95214">
        <ele>491.8</ele>
        <time>2013-03-30T08:32:02.000Z</time>
      </trkpt>
      <trkpt lat="47.27495" lon="4.95213">
        <ele>492.2</ele>
        <time>2013-03-30T08:32:03.000Z</time>
      </trkpt>
      <trkpt lat="47.27495" lon="4.95213">
        <ele>492.2</ele>
        <time>2013-03-30T08:32:18.000Z</time>
      </trkpt>
      <trkpt lat="47.27483" lon="4.95211">
        <ele>489.6</ele>
        <time>2013-03-30T08:32:32.000Z</time>
      </trkpt>
      <trkpt lat="47.27485" lon="4.95212">
        <ele>497.3</ele>
        <time>2013-03-30T08:33:18.000Z</time>
      </trkpt>
      <trkpt lat="47.27486" lon="4.95218">
        <ele>481.5</ele>
        <time>2013-03-30T08:33:31.000Z</time>
      </trkpt>
      <trkpt lat="47.27486" lon="4.95218">
        <ele>481.5</ele>
        <time>2013-03-30T08:33:43.000Z</time>
      </trkpt>
      <trkpt lat="47.27481" lon="4.95212">
        <ele>473.2</ele>
        <time>2013-03-30T08:33:44.000Z</time>
      </trkpt>
      <trkpt lat="47.27481" lon="4.95213">
        <ele>473.8</ele>
        <time>2013-03-30T08:34:18.000Z</time>
      </trkpt>
      <trkpt lat="47.27443" lon="4.95271">
        <ele>515.2</ele>
        <time>2013-03-30T08:35:47.000Z</time>
      </trkpt>
      <trkpt lat="47.2744" lon="4.95271">
        <ele>518</ele>
        <time>2013-03-30T08:35:49.000Z</time>
      </trkpt>
      <trkpt lat="47.27438" lon="4.95272">
        <ele>518.6</ele>
        <time>2013-03-30T08:35:50.000Z</time>
      </trkpt>
      <trkpt lat="47.27434" lon="4.95269">
        <ele>518.1</ele>
        <time>2013-03-30T08:35:54.000Z</time>
      </trkpt>
      <trkpt lat="47.27433" lon="4.95267">
        <ele>517.7</ele>
        <time>2013-03-30T08:35:55.000Z</time>
      </trkpt>
      <trkpt lat="47.2743" lon="4.95264">
        <ele>517.1</ele>
        <time>2013-03-30T08:35:58.000Z</time>
      </trkpt>
      <trkpt lat="47.27428" lon="4.95264">
        <ele>517.4</ele>
        <time>2013-03-30T08:35:59.000Z</time>
      </trkpt>
      <trkpt lat="47.27424" lon="4.95263">
        <ele>516.1</ele>
        <time>2013-03-30T08:36:02.000Z</time>
      </trkpt>
      <trkpt lat="47.27423" lon="4.95262">
        <ele>516.7</ele>
        <time>2013-03-30T08:36:03.000Z</time>
      </trkpt>
      <trkpt lat="47.27419" lon="4.95262">
        <ele>516.6</ele>
        <time>2013-03-30T08:36:04.000Z</time>
      </trkpt>
      <trkpt lat="47.27418" lon="4.95261">
        <ele>516.1</ele>
        <time>2013-03-30T08:36:05.000Z</time>
      </trkpt>
      <trkpt lat="47.27414" lon="4.95261">
        <ele>515</ele>
        <time>2013-03-30T08:36:07.000Z</time>
      </trkpt>
      <trkpt lat="47.27412" lon="4.95259">
        <ele>515.3</ele>
        <time>2013-03-30T08:36:08.000Z</time>
      </trkpt>
      <trkpt lat="47.2741" lon="4.95257">
        <ele>515.3</ele>
        <time>2013-03-30T08:36:09.000Z</time>
      </trkpt>
      <trkpt lat="47.27409" lon="4.95255">
        <ele>515.4</ele>
        <time>2013-03-30T08:36:10.000Z</time>
      </trkpt>
      <trkpt lat="47.27406" lon="4.95254">
        <ele>515.8</ele>
        <time>2013-03-30T08:36:11.000Z</time>
      </trkpt>
      <trkpt lat="47.27404" lon="4.95253">
        <ele>516</ele>
        <time>2013-03-30T08:36:12.000Z</time>
      </trkpt>
      <trkpt lat="47.27401" lon="4.95251">
        <ele>516.7</ele>
        <time>2013-03-30T08:36:14.000Z</time>
      </trkpt>
      <trkpt lat="47.274" lon="4.9525">
        <ele>517.1</ele>
        <time>2013-03-30T08:36:15.000Z</time>
      </trkpt>
      <trkpt lat="47.27399" lon="4.95246">
        <ele>517.5</ele>
        <time>2013-03-30T08:36:18.000Z</time>
      </trkpt>
      <trkpt lat="47.27362" lon="4.95226">
        <ele>519.7</ele>
        <time>2013-03-30T08:36:37.000Z</time>
      </trkpt>
      <trkpt lat="47.27359" lon="4.95222">
        <ele>519</ele>
        <time>2013-03-30T08:36:39.000Z</time>
      </trkpt>
      <trkpt lat="47.27357" lon="4.95221">
        <ele>518.1</ele>
        <time>2013-03-30T08:36:40.000Z</time>
      </trkpt>
      <trkpt lat="47.27355" lon="4.95218">
        <ele>517.1</ele>
        <time>2013-03-30T08:36:42.000Z</time>
      </trkpt>
      <trkpt lat="47.27353" lon="4.95217">
        <ele>517.1</ele>
        <time>2013-03-30T08:36:43.000Z</time>
      </trkpt>
      <trkpt lat="47.2735" lon="4.95215">
        <ele>516.8</ele>
        <time>2013-03-30T08:36:45.000Z</time>
      </trkpt>
      <trkpt lat="47.27349" lon="4.95214">
        <ele>517.1</ele>
        <time>2013-03-30T08:36:46.000Z</time>
      </trkpt>
      <trkpt lat="47.27345" lon="4.95211">
        <ele>520.9</ele>
        <time>2013-03-30T08:36:50.000Z</time>
      </trkpt>
      <trkpt lat="47.27344" lon="4.95212">
        <ele>522.6</ele>
        <time>2013-03-30T08:36:51.000Z</time>
      </trkpt>
      <trkpt lat="47.2734" lon="4.9521">
        <ele>521.5</ele>
        <time>2013-03-30T08:36:55.000Z</time>
      </trkpt>
      <trkpt lat="47.27339" lon="4.95209">
        <ele>521</ele>
        <time>2013-03-30T08:36:56.000Z</time>
      </trkpt>
      <trkpt lat="47.27336" lon="4.95206">
        <ele>520.1</ele>
        <time>2013-03-30T08:37:03.000Z</time>
      </trkpt>
      <trkpt lat="47.27336" lon="4.95205">
        <ele>519.7</ele>
        <time>2013-03-30T08:37:04.000Z</time>
      </trkpt>
      <trkpt lat="47.27333" lon="4.95202">
        <ele>519.7</ele>
        <time>2013-03-30T08:37:08.000Z</time>
      </trkpt>
      <trkpt lat="47.27332" lon="4.95201">
        <ele>519.8</ele>
        <time>2013-03-30T08:37:09.000Z</time>
      </trkpt>
      <trkpt lat="47.27328" lon="4.95199">
        <ele>520</ele>
        <time>2013-03-30T08:37:13.000Z</time>
      </trkpt>
      <trkpt lat="47.27327" lon="4.95199">
        <ele>520.1</ele>
        <time>2013-03-30T08:37:14.000Z</time>
      </trkpt>
      <trkpt lat="47.27323" lon="4.95199">
        <ele>520.2</ele>
        <time>2013-03-30T08:37:17.000Z</time>
      </trkpt>
      <trkpt lat="47.27322" lon="4.95198">
        <ele>520.1</ele>
        <time>2013-03-30T08:37:18.000Z</time>
      </trkpt>
      <trkpt lat="47.27287" lon="4.9523">
        <ele>515.2</ele>
        <time>2013-03-30T08:37:50.000Z</time>
      </trkpt>
      <trkpt lat="47.27285" lon="4.95227">
        <ele>517.5</ele>
        <time>2013-03-30T08:37:57.000Z</time>
      </trkpt>
      <trkpt lat="47.27284" lon="4.95224">
        <ele>517.9</ele>
        <time>2013-03-30T08:37:58.000Z</time>
      </trkpt>
      <trkpt lat="47.27282" lon="4.9522">
        <ele>518</ele>
        <time>2013-03-30T08:38:00.000Z</time>
      </trkpt>
      <trkpt lat="47.27281" lon="4.95217">
        <ele>518.6</ele>
        <time>2013-03-30T08:38:01.000Z</time>
      </trkpt>
      <trkpt lat="47.27278" lon="4.95213">
        <ele>518.7</ele>
        <time>2013-03-30T08:38:03.000Z</time>
      </trkpt>
      <trkpt lat="47.27276" lon="4.95211">
        <ele>519.1</ele>
        <time>2013-03-30T08:38:04.000Z</time>
      </trkpt>
      <trkpt lat="47.27274" lon="4.95207">
        <ele>519.8</ele>
        <time>2013-03-30T08:38:06.000Z</time>
      </trkpt>
      <trkpt lat="47.27271" lon="4.95204">
        <ele>520</ele>
        <time>2013-03-30T08:38:07.000Z</time>
      </trkpt>
      <trkpt lat="47.27268" lon="4.952">
        <ele>520.8</ele>
        <time>2013-03-30T08:38:09.000Z</time>
      </trkpt>
      <trkpt lat="47.27267" lon="4.95197">
        <ele>521.1</ele>
        <time>2013-03-30T08:38:10.000Z</time>
      </trkpt>
      <trkpt lat="47.27265" lon="4.95193">
        <ele>521.5</ele>
        <time>2013-03-30T08:38:12.000Z</time>
      </trkpt>
      <trkpt lat="47.27263" lon="4.95192">
        <ele>521.5</ele>
        <time>2013-03-30T08:38:13.000Z</time>
      </trkpt>
      <trkpt lat="47.27261" lon="4.95186">
        <ele>522.3</ele>
        <time>2013-03-30T08:38:15.000Z</time>
      </trkpt>
      <trkpt lat="47.2726" lon="4.95184">
        <ele>522.7</ele>
        <time>2013-03-30T08:38:16.000Z</time>
      </trkpt>
      <trkpt lat="47.27259" lon="4.9518">
        <ele>522.9</ele>
        <time>2013-03-30T08:38:18.000Z</time>
      </trkpt>
      <trkpt lat="47.27232" lon="4.95198">
        <ele>530.1</ele>
        <time>2013-03-30T08:38:37.000Z</time>
      </trkpt>
      <trkpt lat="47.27229" lon="4.952">
        <ele>531</ele>
        <time>2013-03-30T08:38:38.000Z</time>
      </trkpt>
      <trkpt lat="47.27226" lon="4.95201">
        <ele>531.3</ele>
        <time>2013-03-30T08:38:39.000Z</time>
      </trkpt>
      <trkpt lat="47.27222" lon="4.95202">
        <ele>531.5</ele>
        <time>2013-03-30T08:38:41.000Z</time>
      </trkpt>
      <trkpt lat="47.27221" lon="4.95202">
        <ele>531</ele>
        <time>2013-03-30T08:38:42.000Z</time>
      </trkpt>
      <trkpt lat="47.27217" lon="4.95203">
        <ele>531.3</ele>
        <time>2013-03-30T08:38:44.000Z</time>
      </trkpt>
      <trkpt lat="47.27215" lon="4.95203">
        <ele>531.2</ele>
        <time>2013-03-30T08:38:45.000Z</time>
      </trkpt>
      <trkpt lat="47.27211" lon="4.95204">
        <ele>530</ele>
        <time>2013-03-30T08:38:47.000Z</time>
      </trkpt>
      <trkpt lat="47.27208" lon="4.95205">
        <ele>529.6</ele>
        <time>2013-03-30T08:38:48.000Z</time>
      </trkpt>
      <trkpt lat="47.27205" lon="4.95208">
        <ele>528.1</ele>
        <time>2013-03-30T08:38:50.000Z</time>
      </trkpt>
      <trkpt lat="47.27203" lon="4.9521">
        <ele>526.2</ele>
        <time>2013-03-30T08:38:51.000Z</time>
      </trkpt>
      <trkpt lat="47.27201" lon="4.95211">
        <ele>524.4</ele>
        <time>2013-03-30T08:38:52.000Z</time>
      </trkpt>
      <trkpt lat="47.27199" lon="4.95213">
        <ele>522.8</ele>
        <time>2013-03-30T08:38:53.000Z</time>
      </trkpt>
      <trkpt lat="47.27202" lon="4.95209">
        <ele>520.1</ele>
        <time>2013-03-30T08:38:59.000Z</time>
      </trkpt>
      <trkpt lat="47.27203" lon="4.95207">
        <ele>519.9</ele>
        <time>2013-03-30T08:39:00.000Z</time>
      </trkpt>
      <trkpt lat="47.27205" lon="4.95204">
        <ele>520.4</ele>
        <time>2013-03-30T08:39:02.000Z</time>
      </trkpt>
      <trkpt lat="47.27208" lon="4.95202">
        <ele>520.4</ele>
        <time>2013-03-30T08:39:03.000Z</time>
      </trkpt>
      <trkpt lat="47.27211" lon="4.952">
        <ele>520.9</ele>
        <time>2013-03-30T08:39:05.000Z</time>
      </trkpt>
      <trkpt lat="47.27213" lon="4.952">
        <ele>521.2</ele>
        <time>2013-03-30T08:39:06.000Z</time>
      </trkpt>
      <trkpt lat="47.27216" lon="4.95198">
        <ele>521.2</ele>
        <time>2013-03-30T08:39:08.000Z</time>
      </trkpt>
      <trkpt lat="47.27217" lon="4.95198">
        <ele>521.3</ele>
        <time>2013-03-30T08:39:09.000Z</time>
      </trkpt>
      <trkpt lat="47.2722" lon="4.95197">
        <ele>521.5</ele>
        <time>2013-03-30T08:39:10.000Z</time>
      </trkpt>
      <trkpt lat="47.27223" lon="4.95195">
        <ele>521.4</ele>
        <time>2013-03-30T08:39:11.000Z</time>
      </trkpt>
      <trkpt lat="47.27225" lon="4.95194">
        <ele>521.5</ele>
        <time>2013-03-30T08:39:12.000Z</time>
      </trkpt>
      <trkpt lat="47.27228" lon="4.95192">
        <ele>521.6</ele>
        <time>2013-03-30T08:39:13.000Z</time>
      </trkpt>
      <trkpt lat="47.27232" lon="4.95191">
        <ele>521.9</ele>
        <time>2013-03-30T08:39:15.000Z</time>
      </trkpt>
      <trkpt lat="47.27234" lon="4.95189">
        <ele>521.9</ele>
        <time>2013-03-30T08:39:16.000Z</time>
      </trkpt>
      <trkpt lat="47.27237" lon="4.95187">
        <ele>521.6</ele>
        <time>2013-03-30T08:39:18.000Z</time>
      </trkpt>
      <trkpt lat="47.27272" lon="4.9519">
        <ele>530.6</ele>
        <time>2013-03-30T08:39:37.000Z</time>
      </trkpt>
      <trkpt lat="47.27275" lon="4.95193">
        <ele>534.4</ele>
        <time>2013-03-30T08:39:39.000Z</time>
      </trkpt>
      <trkpt lat="47.27277" lon="4.95195">
        <ele>536.1</ele>
        <time>2013-03-30T08:39:40.000Z</time>
      </trkpt>
      <trkpt lat="47.27276" lon="4.95201">
        <ele>535.8</ele>
        <time>2013-03-30T08:39:45.000Z</time>
      </trkpt>
      <trkpt lat="47.27275" lon="4.95202">
        <ele>534.4</ele>
        <time>2013-03-30T08:39:46.000Z</time>
      </trkpt>
      <trkpt lat="47.27272" lon="4.95198">
        <ele>531.4</ele>
        <time>2013-03-30T08:39:49.000Z</time>
      </trkpt>
      <trkpt lat="47.27271" lon="4.95197">
        <ele>530.3</ele>
        <time>2013-03-30T08:39:50.000Z</time>
      </trkpt>
      <trkpt lat="47.27268" lon="4.95194">
        <ele>530.1</ele>
        <time>2013-03-30T08:39:52.000Z</time>
      </trkpt>
      <trkpt lat="47.27268" lon="4.95192">
        <ele>529.8</ele>
        <time>2013-03-30T08:39:53.000Z</time>
      </trkpt>
      <trkpt lat="47.27265" lon="4.95188">
        <ele>529.2</ele>
        <time>2013-03-30T08:39:55.000Z</time>
      </trkpt>
      <trkpt lat="47.27264" lon="4.95186">
        <ele>529.1</ele>
        <time>2013-03-30T08:39:56.000Z</time>
      </trkpt>
      <trkpt lat="47.27261" lon="4.95182">
        <ele>529.1</ele>
        <time>2013-03-30T08:39:58.000Z</time>
      </trkpt>
      <trkpt lat="47.2726" lon="4.95181">
        <ele>528.9</ele>
        <time>2013-03-30T08:39:59.000Z</time>
      </trkpt>
      <trkpt lat="47.27256" lon="4.95181">
        <ele>528.6</ele>
        <time>2013-03-30T08:40:02.000Z</time>
      </trkpt>
      <trkpt lat="47.27254" lon="4.95182">
        <ele>528.3</ele>
        <time>2013-03-30T08:40:03.000Z</time>
      </trkpt>
      <trkpt lat="47.27251" lon="4.95183">
        <ele>527.8</ele>
        <time>2013-03-30T08:40:05.000Z</time>
      </trkpt>
      <trkpt lat="47.27248" lon="4.95184">
        <ele>527.8</ele>
        <time>2013-03-30T08:40:06.000Z</time>
      </trkpt>
      <trkpt lat="47.27246" lon="4.95185">
        <ele>527.4</ele>
        <time>2013-03-30T08:40:07.000Z</time>
      </trkpt>
      <trkpt lat="47.27244" lon="4.95187">
        <ele>526.3</ele>
        <time>2013-03-30T08:40:08.000Z</time>
      </trkpt>
      <trkpt lat="47.27242" lon="4.95188">
        <ele>525.7</ele>
        <time>2013-03-30T08:40:09.000Z</time>
      </trkpt>
      <trkpt lat="47.2724" lon="4.9519">
        <ele>525.7</ele>
        <time>2013-03-30T08:40:10.000Z</time>
      </trkpt>
      <trkpt lat="47.27236" lon="4.95193">
        <ele>525.8</ele>
        <time>2013-03-30T08:40:12.000Z</time>
      </trkpt>
      <trkpt lat="47.27235" lon="4.95194">
        <ele>525.8</ele>
        <time>2013-03-30T08:40:13.000Z</time>
      </trkpt>
      <trkpt lat="47.27231" lon="4.95196">
        <ele>525.8</ele>
        <time>2013-03-30T08:40:15.000Z</time>
      </trkpt>
      <trkpt lat="47.27229" lon="4.95196">
        <ele>525.7</ele>
        <time>2013-03-30T08:40:16.000Z</time>
      </trkpt>
      <trkpt lat="47.27225" lon="4.95198">
        <ele>525.4</ele>
        <time>2013-03-30T08:40:18.000Z</time>
      </trkpt>
      <trkpt lat="47.27198" lon="4.95208">
        <ele>515.3</ele>
        <time>2013-03-30T08:40:32.000Z</time>
      </trkpt>
      <trkpt lat="47.27196" lon="4.95213">
        <ele>515.9</ele>
        <time>2013-03-30T08:40:35.000Z</time>
      </trkpt>
      <trkpt lat="47.27195" lon="4.95213">
        <ele>515.7</ele>
        <time>2013-03-30T08:40:36.000Z</time>
      </trkpt>
      <trkpt lat="47.27191" lon="4.95216">
        <ele>514</ele>
        <time>2013-03-30T08:40:40.000Z</time>
      </trkpt>
      <trkpt lat="47.27191" lon="4.95217">
        <ele>514</ele>
        <time>2013-03-30T08:40:41.000Z</time>
      </trkpt>
      <trkpt lat="47.27189" lon="4.95221">
        <ele>515.6</ele>
        <time>2013-03-30T08:40:44.000Z</time>
      </trkpt>
      <trkpt lat="47.27188" lon="4.95223">
        <ele>516.7</ele>
        <time>2013-03-30T08:40:45.000Z</time>
      </trkpt>
      <trkpt lat="47.27185" lon="4.95227">
        <ele>518.4</ele>
        <time>2013-03-30T08:40:48.000Z</time>
      </trkpt>
      <trkpt lat="47.27183" lon="4.95227">
        <ele>518.4</ele>
        <time>2013-03-30T08:40:49.000Z</time>
      </trkpt>
      <trkpt lat="47.27181" lon="4.9523">
        <ele>518.5</ele>
        <time>2013-03-30T08:40:52.000Z</time>
      </trkpt>
      <trkpt lat="47.27179" lon="4.95231">
        <ele>518.4</ele>
        <time>2013-03-30T08:40:53.000Z</time>
      </trkpt>
      <trkpt lat="47.27176" lon="4.95235">
        <ele>518.8</ele>
        <time>2013-03-30T08:40:56.000Z</time>
      </trkpt>
      <trkpt lat="47.27175" lon="4.95236">
        <ele>518.7</ele>
        <time>2013-03-30T08:40:57.000Z</time>
      </trkpt>
      <trkpt lat="47.27172" lon="4.9524">
        <ele>518</ele>
        <time>2013-03-30T08:40:59.000Z</time>
      </trkpt>
      <trkpt lat="47.27171" lon="4.95243">
        <ele>517.3</ele>
        <time>2013-03-30T08:41:00.000Z</time>
      </trkpt>
      <trkpt lat="47.27169" lon="4.95248">
        <ele>517.3</ele>
        <time>2013-03-30T08:41:02.000Z</time>
      </trkpt>
      <trkpt lat="47.27167" lon="4.95249">
        <ele>517.5</ele>
        <time>2013-03-30T08:41:03.000Z</time>
      </trkpt>
      <trkpt lat="47.27164" lon="4.95253">
        <ele>517.9</ele>
        <time>2013-03-30T08:41:05.000Z</time>
      </trkpt>
      <trkpt lat="47.27162" lon="4.95255">
        <ele>518</ele>
        <time>2013-03-30T08:41:06.000Z</time>
      </trkpt>
      <trkpt lat="47.27158" lon="4.95258">
        <ele>518.2</ele>
        <time>2013-03-30T08:41:08.000Z</time>
      </trkpt>
      <trkpt lat="47.27157" lon="4.95259">
        <ele>518.4</ele>
        <time>2013-03-30T08:41:09.000Z</time>
      </trkpt>
      <trkpt lat="47.27153" lon="4.95261">
        <ele>517.7</ele>
        <time>2013-03-30T08:41:12.000Z</time>
      </trkpt>
      <trkpt lat="47.27151" lon="4.95262">
        <ele>517.5</ele>
        <time>2013-03-30T08:41:13.000Z</time>
      </trkpt>
      <trkpt lat="47.27149" lon="4.95267">
        <ele>516.9</ele>
        <time>2013-03-30T08:41:17.000Z</time>
      </trkpt>
      <trkpt lat="47.27148" lon="4.95269">
        <ele>516.9</ele>
        <time>2013-03-30T08:41:18.000Z</time>
      </trkpt>
      <trkpt lat="47.27122" lon="4.95305">
        <ele>517.2</ele>
        <time>2013-03-30T08:41:40.000Z</time>
      </trkpt>
      <trkpt lat="47.27119" lon="4.95306">
        <ele>514.7</ele>
        <time>2013-03-30T08:41:42.000Z</time>
      </trkpt>
      <trkpt lat="47.27117" lon="4.95308">
        <ele>515.6</ele>
        <time>2013-03-30T08:41:43.000Z</time>
      </trkpt>
      <trkpt lat="47.27113" lon="4.95308">
        <ele>515.9</ele>
        <time>2013-03-30T08:41:45.000Z</time>
      </trkpt>
      <trkpt lat="47.27111" lon="4.95309">
        <ele>515.7</ele>
        <time>2013-03-30T08:41:46.000Z</time>
      </trkpt>
      <trkpt lat="47.27108" lon="4.95312">
        <ele>516.8</ele>
        <time>2013-03-30T08:41:48.000Z</time>
      </trkpt>
      <trkpt lat="47.27106" lon="4.95313">
        <ele>516.9</ele>
        <time>2013-03-30T08:41:49.000Z</time>
      </trkpt>
      <trkpt lat="47.27102" lon="4.95315">
        <ele>518.3</ele>
        <time>2013-03-30T08:41:51.000Z</time>
      </trkpt>
      <trkpt lat="47.271" lon="4.95316">
        <ele>518.5</ele>
        <time>2013-03-30T08:41:52.000Z</time>
      </trkpt>
      <trkpt lat="47.27096" lon="4.95318">
        <ele>517.8</ele>
        <time>2013-03-30T08:41:54.000Z</time>
      </trkpt>
      <trkpt lat="47.27094" lon="4.95319">
        <ele>517.8</ele>
        <time>2013-03-30T08:41:55.000Z</time>
      </trkpt>
      <trkpt lat="47.27091" lon="4.95322">
        <ele>518.2</ele>
        <time>2013-03-30T08:41:58.000Z</time>
      </trkpt>
      <trkpt lat="47.2709" lon="4.95323">
        <ele>518.3</ele>
        <time>2013-03-30T08:41:59.000Z</time>
      </trkpt>
      <trkpt lat="47.27087" lon="4.95327">
        <ele>518.8</ele>
        <time>2013-03-30T08:42:02.000Z</time>
      </trkpt>
      <trkpt lat="47.27085" lon="4.95328">
        <ele>519.6</ele>
        <time>2013-03-30T08:42:03.000Z</time>
      </trkpt>
      <trkpt lat="47.27082" lon="4.95332">
        <ele>520.1</ele>
        <time>2013-03-30T08:42:06.000Z</time>
      </trkpt>
      <trkpt lat="47.27081" lon="4.95333">
        <ele>519.8</ele>
        <time>2013-03-30T08:42:07.000Z</time>
      </trkpt>
      <trkpt lat="47.27079" lon="4.95338">
        <ele>519</ele>
        <time>2013-03-30T08:42:10.000Z</time>
      </trkpt>
      <trkpt lat="47.27078" lon="4.95339">
        <ele>518.6</ele>
        <time>2013-03-30T08:42:11.000Z</time>
      </trkpt>
      <trkpt lat="47.27075" lon="4.95344">
        <ele>517</ele>
        <time>2013-03-30T08:42:13.000Z</time>
      </trkpt>
      <trkpt lat="47.27073" lon="4.95346">
        <ele>516.5</ele>
        <time>2013-03-30T08:42:14.000Z</time>
      </trkpt>
      <trkpt lat="47.27071" lon="4.95349">
        <ele>516.5</ele>
        <time>2013-03-30T08:42:16.000Z</time>
      </trkpt>
      <trkpt lat="47.27069" lon="4.95351">
        <ele>516.4</ele>
        <time>2013-03-30T08:42:17.000Z</time>
      </trkpt>
      <trkpt lat="47.27067" lon="4.95353">
        <ele>515.9</ele>
        <time>2013-03-30T08:42:18.000Z</time>
      </trkpt>
      <trkpt lat="47.26975" lon="4.95493">
        <ele>507.1</ele>
        <time>2013-03-30T08:43:38.000Z</time>
      </trkpt>
      <trkpt lat="47.26972" lon="4.95496">
        <ele>505.8</ele>
        <time>2013-03-30T08:43:39.000Z</time>
      </trkpt>
      <trkpt lat="47.26969" lon="4.95497">
        <ele>504.5</ele>
        <time>2013-03-30T08:43:40.000Z</time>
      </trkpt>
      <trkpt lat="47.26965" lon="4.95499">
        <ele>503.8</ele>
        <time>2013-03-30T08:43:42.000Z</time>
      </trkpt>
      <trkpt lat="47.26962" lon="4.955">
        <ele>503.5</ele>
        <time>2013-03-30T08:43:43.000Z</time>
      </trkpt>
      <trkpt lat="47.2696" lon="4.95504">
        <ele>506.5</ele>
        <time>2013-03-30T08:43:45.000Z</time>
      </trkpt>
      <trkpt lat="47.26958" lon="4.95506">
        <ele>506.9</ele>
        <time>2013-03-30T08:43:46.000Z</time>
      </trkpt>
      <trkpt lat="47.26956" lon="4.9551">
        <ele>507.5</ele>
        <time>2013-03-30T08:43:48.000Z</time>
      </trkpt>
      <trkpt lat="47.26954" lon="4.95511">
        <ele>507.4</ele>
        <time>2013-03-30T08:43:49.000Z</time>
      </trkpt>
      <trkpt lat="47.26952" lon="4.95516">
        <ele>507.8</ele>
        <time>2013-03-30T08:43:51.000Z</time>
      </trkpt>
      <trkpt lat="47.26952" lon="4.95518">
        <ele>508.3</ele>
        <time>2013-03-30T08:43:52.000Z</time>
      </trkpt>
      <trkpt lat="47.2695" lon="4.95523">
        <ele>509.4</ele>
        <time>2013-03-30T08:43:54.000Z</time>
      </trkpt>
      <trkpt lat="47.2695" lon="4.95525">
        <ele>509.3</ele>
        <time>2013-03-30T08:43:55.000Z</time>
      </trkpt>
      <trkpt lat="47.26947" lon="4.95529">
        <ele>508.2</ele>
        <time>2013-03-30T08:43:57.000Z</time>
      </trkpt>
      <trkpt lat="47.26945" lon="4.95531">
        <ele>508</ele>
        <time>2013-03-30T08:43:58.000Z</time>
      </trkpt>
      <trkpt lat="47.26943" lon="4.95536">
        <ele>508.8</ele>
        <time>2013-03-30T08:44:00.000Z</time>
      </trkpt>
      <trkpt lat="47.26941" lon="4.95538">
        <ele>508.8</ele>
        <time>2013-03-30T08:44:01.000Z</time>
      </trkpt>
      <trkpt lat="47.26939" lon="4.95541">
        <ele>508.8</ele>
        <time>2013-03-30T08:44:03.000Z</time>
      </trkpt>
      <trkpt lat="47.26938" lon="4.95543">
        <ele>508.9</ele>
        <time>2013-03-30T08:44:04.000Z</time>
      </trkpt>
      <trkpt lat="47.26935" lon="4.95546">
        <ele>509.1</ele>
        <time>2013-03-30T08:44:06.000Z</time>
      </trkpt>
      <trkpt lat="47.26934" lon="4.95548">
        <ele>508.9</ele>
        <time>2013-03-30T08:44:07.000Z</time>
      </trkpt>
      <trkpt lat="47.26932" lon="4.95551">
        <ele>508.9</ele>
        <time>2013-03-30T08:44:09.000Z</time>
      </trkpt>
      <trkpt lat="47.2693" lon="4.95552">
        <ele>508.6</ele>
        <time>2013-03-30T08:44:10.000Z</time>
      </trkpt>
      <trkpt lat="47.26928" lon="4.95556">
        <ele>508.6</ele>
        <time>2013-03-30T08:44:12.000Z</time>
      </trkpt>
      <trkpt lat="47.26927" lon="4.95558">
        <ele>508.6</ele>
        <time>2013-03-30T08:44:13.000Z</time>
      </trkpt>
      <trkpt lat="47.26924" lon="4.95561">
        <ele>508.6</ele>
        <time>2013-03-30T08:44:15.000Z</time>
      </trkpt>
      <trkpt lat="47.26923" lon="4.95562">
        <ele>508.7</ele>
        <time>2013-03-30T08:44:16.000Z</time>
      </trkpt>
      <trkpt lat="47.2692" lon="4.95565">
        <ele>508.7</ele>
        <time>2013-03-30T08:44:18.000Z</time>
      </trkpt>
      <trkpt lat="47.26906" lon="4.95579">
        <ele>512.2</ele>
        <time>2013-03-30T08:44:26.000Z</time>
      </trkpt>
      <trkpt lat="47.26902" lon="4.9558">
        <ele>512</ele>
        <time>2013-03-30T08:44:28.000Z</time>
      </trkpt>
      <trkpt lat="47.26901" lon="4.95581">
        <ele>512.6</ele>
        <time>2013-03-30T08:44:29.000Z</time>
      </trkpt>
      <trkpt lat="47.26897" lon="4.95585">
        <ele>512.1</ele>
        <time>2013-03-30T08:44:33.000Z</time>
      </trkpt>
      <trkpt lat="47.26896" lon="4.95585">
        <ele>511.9</ele>
        <time>2013-03-30T08:44:34.000Z</time>
      </trkpt>
      <trkpt lat="47.26893" lon="4.95588">
        <ele>511.8</ele>
        <time>2013-03-30T08:44:36.000Z</time>
      </trkpt>
      <trkpt lat="47.26891" lon="4.95588">
        <ele>511.3</ele>
        <time>2013-03-30T08:44:37.000Z</time>
      </trkpt>
      <trkpt lat="47.26889" lon="4.95591">
        <ele>511.5</ele>
        <time>2013-03-30T08:44:39.000Z</time>
      </trkpt>
      <trkpt lat="47.26887" lon="4.95592">
        <ele>511.8</ele>
        <time>2013-03-30T08:44:40.000Z</time>
      </trkpt>
      <trkpt lat="47.26885" lon="4.95596">
        <ele>514</ele>
        <time>2013-03-30T08:44:43.000Z</time>
      </trkpt>
      <trkpt lat="47.26884" lon="4.95599">
        <ele>515.3</ele>
        <time>2013-03-30T08:44:44.000Z</time>
      </trkpt>
      <trkpt lat="47.26881" lon="4.95602">
        <ele>517.8</ele>
        <time>2013-03-30T08:44:47.000Z</time>
      </trkpt>
      <trkpt lat="47.26879" lon="4.95603">
        <ele>518.1</ele>
        <time>2013-03-30T08:44:48.000Z</time>
      </trkpt>
      <trkpt lat="47.26876" lon="4.95605">
        <ele>516.7</ele>
        <time>2013-03-30T08:44:50.000Z</time>
      </trkpt>
      <trkpt lat="47.26875" lon="4.95606">
        <ele>516.6</ele>
        <time>2013-03-30T08:44:51.000Z</time>
      </trkpt>
      <trkpt lat="47.26872" lon="4.95609">
        <ele>515.8</ele>
        <time>2013-03-30T08:44:53.000Z</time>
      </trkpt>
      <trkpt lat="47.2687" lon="4.9561">
        <ele>515.9</ele>
        <time>2013-03-30T08:44:54.000Z</time>
      </trkpt>
      <trkpt lat="47.26867" lon="4.95613">
        <ele>516.9</ele>
        <time>2013-03-30T08:44:57.000Z</time>
      </trkpt>
      <trkpt lat="47.26866" lon="4.95614">
        <ele>517.2</ele>
        <time>2013-03-30T08:44:58.000Z</time>
      </trkpt>
      <trkpt lat="47.26863" lon="4.95618">
        <ele>518.2</ele>
        <time>2013-03-30T08:45:01.000Z</time>
      </trkpt>
      <trkpt lat="47.26862" lon="4.95619">
        <ele>517.8</ele>
        <time>2013-03-30T08:45:02.000Z</time>
      </trkpt>
      <trkpt lat="47.26859" lon="4.95623">
        <ele>517.2</ele>
        <time>2013-03-30T08:45:04.000Z</time>
      </trkpt>
      <trkpt lat="47.26857" lon="4.95625">
        <ele>517.2</ele>
        <time>2013-03-30T08:45:05.000Z</time>
      </trkpt>
      <trkpt lat="47.26854" lon="4.95628">
        <ele>517.3</ele>
        <time>2013-03-30T08:45:07.000Z</time>
      </trkpt>
      <trkpt lat="47.26853" lon="4.95629">
        <ele>517</ele>
        <time>2013-03-30T08:45:08.000Z</time>
      </trkpt>
      <trkpt lat="47.26849" lon="4.95633">
        <ele>517.4</ele>
        <time>2013-03-30T08:45:11.000Z</time>
      </trkpt>
      <trkpt lat="47.26849" lon="4.95635">
        <ele>517.8</ele>
        <time>2013-03-30T08:45:12.000Z</time>
      </trkpt>
      <trkpt lat="47.26845" lon="4.95639">
        <ele>518.3</ele>
        <time>2013-03-30T08:45:15.000Z</time>
      </trkpt>
      <trkpt lat="47.26844" lon="4.95641">
        <ele>518.7</ele>
        <time>2013-03-30T08:45:16.000Z</time>
      </trkpt>
      <trkpt lat="47.26843" lon="4.95645">
        <ele>519.1</ele>
        <time>2013-03-30T08:45:18.000Z</time>
      </trkpt>
      <trkpt lat="47.26838" lon="4.95668">
        <ele>515.9</ele>
        <time>2013-03-30T08:45:28.000Z</time>
      </trkpt>
      <trkpt lat="47.26836" lon="4.95672">
        <ele>513.9</ele>
        <time>2013-03-30T08:45:31.000Z</time>
      </trkpt>
      <trkpt lat="47.26835" lon="4.95674">
        <ele>513.8</ele>
        <time>2013-03-30T08:45:32.000Z</time>
      </trkpt>
      <trkpt lat="47.26831" lon="4.95677">
        <ele>513.5</ele>
        <time>2013-03-30T08:45:34.000Z</time>
      </trkpt>
      <trkpt lat="47.2683" lon="4.95679">
        <ele>513.5</ele>
        <time>2013-03-30T08:45:35.000Z</time>
      </trkpt>
      <trkpt lat="47.26827" lon="4.95682">
        <ele>514.6</ele>
        <time>2013-03-30T08:45:37.000Z</time>
      </trkpt>
      <trkpt lat="47.26826" lon="4.95684">
        <ele>514.3</ele>
        <time>2013-03-30T08:45:38.000Z</time>
      </trkpt>
      <trkpt lat="47.26822" lon="4.95686">
        <ele>513.6</ele>
        <time>2013-03-30T08:45:40.000Z</time>
      </trkpt>
      <trkpt lat="47.2682" lon="4.95688">
        <ele>512.9</ele>
        <time>2013-03-30T08:45:41.000Z</time>
      </trkpt>
      <trkpt lat="47.26816" lon="4.95691">
        <ele>511.9</ele>
        <time>2013-03-30T08:45:43.000Z</time>
      </trkpt>
      <trkpt lat="47.26814" lon="4.95692">
        <ele>511</ele>
        <time>2013-03-30T08:45:44.000Z</time>
      </trkpt>
      <trkpt lat="47.2681" lon="4.95695">
        <ele>511.3</ele>
        <time>2013-03-30T08:45:46.000Z</time>
      </trkpt>
      <trkpt lat="47.26809" lon="4.95696">
        <ele>510.9</ele>
        <time>2013-03-30T08:45:47.000Z</time>
      </trkpt>
      <trkpt lat="47.26805" lon="4.95699">
        <ele>510.7</ele>
        <time>2013-03-30T08:45:49.000Z</time>
      </trkpt>
      <trkpt lat="47.26803" lon="4.95701">
        <ele>510.9</ele>
        <time>2013-03-30T08:45:50.000Z</time>
      </trkpt>
      <trkpt lat="47.26801" lon="4.95702">
        <ele>510.7</ele>
        <time>2013-03-30T08:45:51.000Z</time>
      </trkpt>
      <trkpt lat="47.26799" lon="4.95704">
        <ele>510.8</ele>
        <time>2013-03-30T08:45:52.000Z</time>
      </trkpt>
      <trkpt lat="47.26797" lon="4.95707">
        <ele>510.9</ele>
        <time>2013-03-30T08:45:54.000Z</time>
      </trkpt>
      <trkpt lat="47.26796" lon="4.95708">
        <ele>511</ele>
        <time>2013-03-30T08:45:55.000Z</time>
      </trkpt>
      <trkpt lat="47.26793" lon="4.95712">
        <ele>511.5</ele>
        <time>2013-03-30T08:45:57.000Z</time>
      </trkpt>
      <trkpt lat="47.26792" lon="4.95714">
        <ele>512.1</ele>
        <time>2013-03-30T08:45:58.000Z</time>
      </trkpt>
      <trkpt lat="47.26791" lon="4.95719">
        <ele>512.5</ele>
        <time>2013-03-30T08:46:00.000Z</time>
      </trkpt>
      <trkpt lat="47.26791" lon="4.95721">
        <ele>512.7</ele>
        <time>2013-03-30T08:46:01.000Z</time>
      </trkpt>
      <trkpt lat="47.26789" lon="4.95725">
        <ele>513.2</ele>
        <time>2013-03-30T08:46:03.000Z</time>
      </trkpt>
      <trkpt lat="47.26788" lon="4.95727">
        <ele>513</ele>
        <time>2013-03-30T08:46:04.000Z</time>
      </trkpt>
      <trkpt lat="47.26786" lon="4.9573">
        <ele>513.4</ele>
        <time>2013-03-30T08:46:06.000Z</time>
      </trkpt>
      <trkpt lat="47.26785" lon="4.95733">
        <ele>513.3</ele>
        <time>2013-03-30T08:46:07.000Z</time>
      </trkpt>
      <trkpt lat="47.26783" lon="4.95737">
        <ele>513.4</ele>
        <time>2013-03-30T08:46:09.000Z</time>
      </trkpt>
      <trkpt lat="47.26782" lon="4.95739">
        <ele>513.3</ele>
        <time>2013-03-30T08:46:10.000Z</time>
      </trkpt>
      <trkpt lat="47.26781" lon="4.95743">
        <ele>513.5</ele>
        <time>2013-03-30T08:46:12.000Z</time>
      </trkpt>
      <trkpt lat="47.2678" lon="4.95746">
        <ele>513.8</ele>
        <time>2013-03-30T08:46:13.000Z</time>
      </trkpt>
      <trkpt lat="47.26778" lon="4.95751">
        <ele>513.9</ele>
        <time>2013-03-30T08:46:15.000Z</time>
      </trkpt>
      <trkpt lat="47.26777" lon="4.95753">
        <ele>513.6</ele>
        <time>2013-03-30T08:46:16.000Z</time>
      </trkpt>
      <trkpt lat="47.26776" lon="4.95757">
        <ele>513.8</ele>
        <time>2013-03-30T08:46:18.000Z</time>
      </trkpt>
      <trkpt lat="47.26767" lon="4.95782">
        <ele>522.1</ele>
        <time>2013-03-30T08:46:32.000Z</time>
      </trkpt>
      <trkpt lat="47.26764" lon="4.95784">
        <ele>520.1</ele>
        <time>2013-03-30T08:46:33.000Z</time>
      </trkpt>
      <trkpt lat="47.26762" lon="4.95786">
        <ele>516.4</ele>
        <time>2013-03-30T08:46:34.000Z</time>
      </trkpt>
      <trkpt lat="47.26759" lon="4.95789">
        <ele>515.3</ele>
        <time>2013-03-30T08:46:36.000Z</time>
      </trkpt>
      <trkpt lat="47.26757" lon="4.9579">
        <ele>514.3</ele>
        <time>2013-03-30T08:46:37.000Z</time>
      </trkpt>
      <trkpt lat="47.26754" lon="4.95794">
        <ele>514.9</ele>
        <time>2013-03-30T08:46:39.000Z</time>
      </trkpt>
      <trkpt lat="47.26753" lon="4.95795">
        <ele>514.3</ele>
        <time>2013-03-30T08:46:40.000Z</time>
      </trkpt>
      <trkpt lat="47.26749" lon="4.95796">
        <ele>512.7</ele>
        <time>2013-03-30T08:46:42.000Z</time>
      </trkpt>
      <trkpt lat="47.26747" lon="4.95796">
        <ele>512.7</ele>
        <time>2013-03-30T08:46:43.000Z</time>
      </trkpt>
      <trkpt lat="47.26745" lon="4.95799">
        <ele>512.7</ele>
        <time>2013-03-30T08:46:45.000Z</time>
      </trkpt>
      <trkpt lat="47.26743" lon="4.958">
        <ele>512.3</ele>
        <time>2013-03-30T08:46:46.000Z</time>
      </trkpt>
      <trkpt lat="47.2674" lon="4.95802">
        <ele>511.5</ele>
        <time>2013-03-30T08:46:48.000Z</time>
      </trkpt>
      <trkpt lat="47.26738" lon="4.95803">
        <ele>511.4</ele>
        <time>2013-03-30T08:46:49.000Z</time>
      </trkpt>
      <trkpt lat="47.26734" lon="4.95803">
        <ele>507.2</ele>
        <time>2013-03-30T08:46:52.000Z</time>
      </trkpt>
      <trkpt lat="47.26732" lon="4.95803">
        <ele>506.8</ele>
        <time>2013-03-30T08:46:53.000Z</time>
      </trkpt>
      <trkpt lat="47.26729" lon="4.95805">
        <ele>506.2</ele>
        <time>2013-03-30T08:46:56.000Z</time>
      </trkpt>
      <trkpt lat="47.26727" lon="4.95805">
        <ele>506.4</ele>
        <time>2013-03-30T08:46:57.000Z</time>
      </trkpt>
      <trkpt lat="47.26723" lon="4.95806">
        <ele>506.4</ele>
        <time>2013-03-30T08:47:00.000Z</time>
      </trkpt>
      <trkpt lat="47.26722" lon="4.95806">
        <ele>506.5</ele>
        <time>2013-03-30T08:47:01.000Z</time>
      </trkpt>
      <trkpt lat="47.26724" lon="4.95809">
        <ele>504.4</ele>
        <time>2013-03-30T08:47:18.000Z</time>
      </trkpt>
      <trkpt lat="47.26734" lon="4.95816">
        <ele>510.1</ele>
        <time>2013-03-30T08:47:38.000Z</time>
      </trkpt>
      <trkpt lat="47.26734" lon="4.95816">
        <ele>510.1</ele>
        <time>2013-03-30T08:47:50.000Z</time>
      </trkpt>
      <trkpt lat="47.26742" lon="4.95812">
        <ele>514.9</ele>
        <time>2013-03-30T08:47:51.000Z</time>
      </trkpt>
      <trkpt lat="47.26738" lon="4.95812">
        <ele>512.7</ele>
        <time>2013-03-30T08:47:58.000Z</time>
      </trkpt>
      <trkpt lat="47.26737" lon="4.95813">
        <ele>512.7</ele>
        <time>2013-03-30T08:47:59.000Z</time>
      </trkpt>
      <trkpt lat="47.26733" lon="4.95813">
        <ele>511.6</ele>
        <time>2013-03-30T08:48:02.000Z</time>
      </trkpt>
      <trkpt lat="47.26732" lon="4.95814">
        <ele>511.3</ele>
        <time>2013-03-30T08:48:03.000Z</time>
      </trkpt>
      <trkpt lat="47.26728" lon="4.95816">
        <ele>510.5</ele>
        <time>2013-03-30T08:48:06.000Z</time>
      </trkpt>
      <trkpt lat="47.26727" lon="4.95817">
        <ele>510.6</ele>
        <time>2013-03-30T08:48:07.000Z</time>
      </trkpt>
      <trkpt lat="47.26724" lon="4.95821">
        <ele>510.2</ele>
        <time>2013-03-30T08:48:10.000Z</time>
      </trkpt>
      <trkpt lat="47.26722" lon="4.95822">
        <ele>510.1</ele>
        <time>2013-03-30T08:48:11.000Z</time>
      </trkpt>
      <trkpt lat="47.2672" lon="4.95825">
        <ele>509.7</ele>
        <time>2013-03-30T08:48:13.000Z</time>
      </trkpt>
      <trkpt lat="47.26719" lon="4.95826">
        <ele>509.6</ele>
        <time>2013-03-30T08:48:14.000Z</time>
      </trkpt>
      <trkpt lat="47.26716" lon="4.95831">
        <ele>509.2</ele>
        <time>2013-03-30T08:48:17.000Z</time>
      </trkpt>
      <trkpt lat="47.26715" lon="4.95832">
        <ele>509.3</ele>
        <time>2013-03-30T08:48:18.000Z</time>
      </trkpt>
      <trkpt lat="47.26713" lon="4.95836">
        <ele>509.6</ele>
        <time>2013-03-30T08:48:20.000Z</time>
      </trkpt>
      <trkpt lat="47.26712" lon="4.95838">
        <ele>509.6</ele>
        <time>2013-03-30T08:48:21.000Z</time>
      </trkpt>
      <trkpt lat="47.26709" lon="4.95843">
        <ele>509.4</ele>
        <time>2013-03-30T08:48:23.000Z</time>
      </trkpt>
      <trkpt lat="47.26708" lon="4.95845">
        <ele>509.3</ele>
        <time>2013-03-30T08:48:24.000Z</time>
      </trkpt>
      <trkpt lat="47.26706" lon="4.95849">
        <ele>509.3</ele>
        <time>2013-03-30T08:48:26.000Z</time>
      </trkpt>
      <trkpt lat="47.26705" lon="4.95851">
        <ele>509.4</ele>
        <time>2013-03-30T08:48:27.000Z</time>
      </trkpt>
      <trkpt lat="47.26704" lon="4.95855">
        <ele>510</ele>
        <time>2013-03-30T08:48:29.000Z</time>
      </trkpt>
      <trkpt lat="47.26702" lon="4.95857">
        <ele>510.1</ele>
        <time>2013-03-30T08:48:30.000Z</time>
      </trkpt>
      <trkpt lat="47.26701" lon="4.95863">
        <ele>510.4</ele>
        <time>2013-03-30T08:48:33.000Z</time>
      </trkpt>
      <trkpt lat="47.267" lon="4.95865">
        <ele>510.4</ele>
        <time>2013-03-30T08:48:34.000Z</time>
      </trkpt>
      <trkpt lat="47.26698" lon="4.9587">
        <ele>510.1</ele>
        <time>2013-03-30T08:48:36.000Z</time>
      </trkpt>
      <trkpt lat="47.26697" lon="4.95872">
        <ele>509.9</ele>
        <time>2013-03-30T08:48:37.000Z</time>
      </trkpt>
      <trkpt lat="47.26696" lon="4.95875">
        <ele>509.9</ele>
        <time>2013-03-30T08:48:38.000Z</time>
      </trkpt>
      <trkpt lat="47.26694" lon="4.95878">
        <ele>509.4</ele>
        <time>2013-03-30T08:48:39.000Z</time>
      </trkpt>
      <trkpt lat="47.26692" lon="4.95882">
        <ele>509.5</ele>
        <time>2013-03-30T08:48:41.000Z</time>
      </trkpt>
      <trkpt lat="47.26691" lon="4.95884">
        <ele>509.6</ele>
        <time>2013-03-30T08:48:42.000Z</time>
      </trkpt>
      <trkpt lat="47.2669" lon="4.95889">
        <ele>509.7</ele>
        <time>2013-03-30T08:48:44.000Z</time>
      </trkpt>
      <trkpt lat="47.26689" lon="4.95891">
        <ele>509.7</ele>
        <time>2013-03-30T08:48:45.000Z</time>
      </trkpt>
      <trkpt lat="47.26687" lon="4.95895">
        <ele>509.6</ele>
        <time>2013-03-30T08:48:47.000Z</time>
      </trkpt>
      <trkpt lat="47.26687" lon="4.95897">
        <ele>509.6</ele>
        <time>2013-03-30T08:48:48.000Z</time>
      </trkpt>
      <trkpt lat="47.26686" lon="4.95901">
        <ele>509.8</ele>
        <time>2013-03-30T08:48:50.000Z</time>
      </trkpt>
      <trkpt lat="47.26686" lon="4.95904">
        <ele>510</ele>
        <time>2013-03-30T08:48:51.000Z</time>
      </trkpt>
      <trkpt lat="47.26685" lon="4.95908">
        <ele>510</ele>
        <time>2013-03-30T08:48:53.000Z</time>
      </trkpt>
      <trkpt lat="47.26684" lon="4.95911">
        <ele>509.9</ele>
        <time>2013-03-30T08:48:54.000Z</time>
      </trkpt>
      <trkpt lat="47.26684" lon="4.95916">
        <ele>509.5</ele>
        <time>2013-03-30T08:48:56.000Z</time>
      </trkpt>
      <trkpt lat="47.26684" lon="4.95918">
        <ele>509.3</ele>
        <time>2013-03-30T08:48:57.000Z</time>
      </trkpt>
      <trkpt lat="47.26683" lon="4.95923">
        <ele>509.2</ele>
        <time>2013-03-30T08:48:59.000Z</time>
      </trkpt>
      <trkpt lat="47.26683" lon="4.95926">
        <ele>509.2</ele>
        <time>2013-03-30T08:49:00.000Z</time>
      </trkpt>
      <trkpt lat="47.26683" lon="4.95931">
        <ele>509.3</ele>
        <time>2013-03-30T08:49:02.000Z</time>
      </trkpt>
      <trkpt lat="47.26682" lon="4.95933">
        <ele>509.2</ele>
        <time>2013-03-30T08:49:03.000Z</time>
      </trkpt>
      <trkpt lat="47.26681" lon="4.95938">
        <ele>508.9</ele>
        <time>2013-03-30T08:49:05.000Z</time>
      </trkpt>
      <trkpt lat="47.26681" lon="4.9594">
        <ele>508.9</ele>
        <time>2013-03-30T08:49:06.000Z</time>
      </trkpt>
      <trkpt lat="47.26681" lon="4.95945">
        <ele>509</ele>
        <time>2013-03-30T08:49:08.000Z</time>
      </trkpt>
      <trkpt lat="47.2668" lon="4.95947">
        <ele>508.9</ele>
        <time>2013-03-30T08:49:09.000Z</time>
      </trkpt>
      <trkpt lat="47.26679" lon="4.95952">
        <ele>508.9</ele>
        <time>2013-03-30T08:49:11.000Z</time>
      </trkpt>
      <trkpt lat="47.26679" lon="4.95954">
        <ele>508.9</ele>
        <time>2013-03-30T08:49:12.000Z</time>
      </trkpt>
      <trkpt lat="47.26679" lon="4.95959">
        <ele>508.9</ele>
        <time>2013-03-30T08:49:14.000Z</time>
      </trkpt>
      <trkpt lat="47.26678" lon="4.95961">
        <ele>508.8</ele>
        <time>2013-03-30T08:49:15.000Z</time>
      </trkpt>
      <trkpt lat="47.26679" lon="4.95966">
        <ele>508.9</ele>
        <time>2013-03-30T08:49:17.000Z</time>
      </trkpt>
      <trkpt lat="47.2668" lon="4.95969">
        <ele>508.9</ele>
        <time>2013-03-30T08:49:18.000Z</time>
      </trkpt>
      <trkpt lat="47.2667" lon="4.96023">
        <ele>500</ele>
        <time>2013-03-30T08:49:39.000Z</time>
      </trkpt>
      <trkpt lat="47.26666" lon="4.96027">
        <ele>499</ele>
        <time>2013-03-30T08:49:41.000Z</time>
      </trkpt>
      <trkpt lat="47.26665" lon="4.96029">
        <ele>498</ele>
        <time>2013-03-30T08:49:42.000Z</time>
      </trkpt>
      <trkpt lat="47.26663" lon="4.96033">
        <ele>498.5</ele>
        <time>2013-03-30T08:49:44.000Z</time>
      </trkpt>
      <trkpt lat="47.26662" lon="4.96035">
        <ele>498.4</ele>
        <time>2013-03-30T08:49:45.000Z</time>
      </trkpt>
      <trkpt lat="47.2666" lon="4.96039">
        <ele>498.9</ele>
        <time>2013-03-30T08:49:47.000Z</time>
      </trkpt>
      <trkpt lat="47.26659" lon="4.96041">
        <ele>498.8</ele>
        <time>2013-03-30T08:49:48.000Z</time>
      </trkpt>
      <trkpt lat="47.26658" lon="4.96047">
        <ele>499.6</ele>
        <time>2013-03-30T08:49:51.000Z</time>
      </trkpt>
      <trkpt lat="47.26658" lon="4.9605">
        <ele>499.4</ele>
        <time>2013-03-30T08:49:52.000Z</time>
      </trkpt>
      <trkpt lat="47.26657" lon="4.96055">
        <ele>499.5</ele>
        <time>2013-03-30T08:49:54.000Z</time>
      </trkpt>
      <trkpt lat="47.26657" lon="4.96057">
        <ele>499.9</ele>
        <time>2013-03-30T08:49:55.000Z</time>
      </trkpt>
      <trkpt lat="47.26655" lon="4.9606">
        <ele>500.1</ele>
        <time>2013-03-30T08:49:57.000Z</time>
      </trkpt>
      <trkpt lat="47.26653" lon="4.96062">
        <ele>500.2</ele>
        <time>2013-03-30T08:49:58.000Z</time>
      </trkpt>
      <trkpt lat="47.26651" lon="4.96065">
        <ele>500.6</ele>
        <time>2013-03-30T08:50:00.000Z</time>
      </trkpt>
      <trkpt lat="47.2665" lon="4.96067">
        <ele>500.5</ele>
        <time>2013-03-30T08:50:01.000Z</time>
      </trkpt>
      <trkpt lat="47.26648" lon="4.96072">
        <ele>501.1</ele>
        <time>2013-03-30T08:50:03.000Z</time>
      </trkpt>
      <trkpt lat="47.26647" lon="4.96074">
        <ele>501.1</ele>
        <time>2013-03-30T08:50:04.000Z</time>
      </trkpt>
      <trkpt lat="47.26645" lon="4.96077">
        <ele>501.4</ele>
        <time>2013-03-30T08:50:06.000Z</time>
      </trkpt>
      <trkpt lat="47.26644" lon="4.96079">
        <ele>501.6</ele>
        <time>2013-03-30T08:50:07.000Z</time>
      </trkpt>
      <trkpt lat="47.26641" lon="4.96084">
        <ele>501.5</ele>
        <time>2013-03-30T08:50:10.000Z</time>
      </trkpt>
      <trkpt lat="47.2664" lon="4.96086">
        <ele>501.2</ele>
        <time>2013-03-30T08:50:11.000Z</time>
      </trkpt>
      <trkpt lat="47.26638" lon="4.96089">
        <ele>501.6</ele>
        <time>2013-03-30T08:50:14.000Z</time>
      </trkpt>
      <trkpt lat="47.26637" lon="4.96091">
        <ele>501.6</ele>
        <time>2013-03-30T08:50:15.000Z</time>
      </trkpt>
      <trkpt lat="47.26635" lon="4.96095">
        <ele>501.7</ele>
        <time>2013-03-30T08:50:17.000Z</time>
      </trkpt>
      <trkpt lat="47.26634" lon="4.96096">
        <ele>501.8</ele>
        <time>2013-03-30T08:50:18.000Z</time>
      </trkpt>
      <trkpt lat="47.2663" lon="4.96112">
        <ele>502.2</ele>
        <time>2013-03-30T08:50:24.000Z</time>
      </trkpt>
      <trkpt lat="47.26626" lon="4.96115">
        <ele>502.1</ele>
        <time>2013-03-30T08:50:26.000Z</time>
      </trkpt>
      <trkpt lat="47.26626" lon="4.96117">
        <ele>502.2</ele>
        <time>2013-03-30T08:50:27.000Z</time>
      </trkpt>
      <trkpt lat="47.26623" lon="4.96122">
        <ele>502.1</ele>
        <time>2013-03-30T08:50:29.000Z</time>
      </trkpt>
      <trkpt lat="47.26622" lon="4.96124">
        <ele>501</ele>
        <time>2013-03-30T08:50:30.000Z</time>
      </trkpt>
      <trkpt lat="47.26622" lon="4.96129">
        <ele>500.8</ele>
        <time>2013-03-30T08:50:32.000Z</time>
      </trkpt>
      <trkpt lat="47.2662" lon="4.9613">
        <ele>500.5</ele>
        <time>2013-03-30T08:50:33.000Z</time>
      </trkpt>
      <trkpt lat="47.26618" lon="4.96135">
        <ele>499.8</ele>
        <time>2013-03-30T08:50:35.000Z</time>
      </trkpt>
      <trkpt lat="47.26618" lon="4.96137">
        <ele>500</ele>
        <time>2013-03-30T08:50:36.000Z</time>
      </trkpt>
      <trkpt lat="47.26617" lon="4.96141">
        <ele>500.1</ele>
        <time>2013-03-30T08:50:38.000Z</time>
      </trkpt>
      <trkpt lat="47.26616" lon="4.96144">
        <ele>500</ele>
        <time>2013-03-30T08:50:39.000Z</time>
      </trkpt>
      <trkpt lat="47.26614" lon="4.96148">
        <ele>500</ele>
        <time>2013-03-30T08:50:43.000Z</time>
      </trkpt>
      <trkpt lat="47.26613" lon="4.9615">
        <ele>499.5</ele>
        <time>2013-03-30T08:50:44.000Z</time>
      </trkpt>
      <trkpt lat="47.26611" lon="4.96153">
        <ele>498.8</ele>
        <time>2013-03-30T08:50:45.000Z</time>
      </trkpt>
      <trkpt lat="47.2661" lon="4.96156">
        <ele>498.1</ele>
        <time>2013-03-30T08:50:46.000Z</time>
      </trkpt>
      <trkpt lat="47.26607" lon="4.96161">
        <ele>497.4</ele>
        <time>2013-03-30T08:50:48.000Z</time>
      </trkpt>
      <trkpt lat="47.26606" lon="4.96163">
        <ele>497.1</ele>
        <time>2013-03-30T08:50:49.000Z</time>
      </trkpt>
      <trkpt lat="47.26603" lon="4.96168">
        <ele>496.5</ele>
        <time>2013-03-30T08:50:51.000Z</time>
      </trkpt>
      <trkpt lat="47.26603" lon="4.9617">
        <ele>496.3</ele>
        <time>2013-03-30T08:50:52.000Z</time>
      </trkpt>
      <trkpt lat="47.26601" lon="4.96175">
        <ele>496</ele>
        <time>2013-03-30T08:50:54.000Z</time>
      </trkpt>
      <trkpt lat="47.266" lon="4.96177">
        <ele>495.9</ele>
        <time>2013-03-30T08:50:55.000Z</time>
      </trkpt>
      <trkpt lat="47.26598" lon="4.96182">
        <ele>495.8</ele>
        <time>2013-03-30T08:50:57.000Z</time>
      </trkpt>
      <trkpt lat="47.26598" lon="4.96184">
        <ele>495.8</ele>
        <time>2013-03-30T08:50:58.000Z</time>
      </trkpt>
      <trkpt lat="47.26596" lon="4.96188">
        <ele>496</ele>
        <time>2013-03-30T08:51:00.000Z</time>
      </trkpt>
      <trkpt lat="47.26595" lon="4.96191">
        <ele>495.9</ele>
        <time>2013-03-30T08:51:01.000Z</time>
      </trkpt>
      <trkpt lat="47.26594" lon="4.96195">
        <ele>495.9</ele>
        <time>2013-03-30T08:51:03.000Z</time>
      </trkpt>
      <trkpt lat="47.26593" lon="4.96198">
        <ele>496</ele>
        <time>2013-03-30T08:51:04.000Z</time>
      </trkpt>
      <trkpt lat="47.26592" lon="4.96202">
        <ele>496.2</ele>
        <time>2013-03-30T08:51:06.000Z</time>
      </trkpt>
      <trkpt lat="47.26591" lon="4.96205">
        <ele>496.3</ele>
        <time>2013-03-30T08:51:07.000Z</time>
      </trkpt>
      <trkpt lat="47.2659" lon="4.96209">
        <ele>497.1</ele>
        <time>2013-03-30T08:51:09.000Z</time>
      </trkpt>
      <trkpt lat="47.2659" lon="4.96212">
        <ele>497.1</ele>
        <time>2013-03-30T08:51:10.000Z</time>
      </trkpt>
      <trkpt lat="47.26589" lon="4.96216">
        <ele>497.5</ele>
        <time>2013-03-30T08:51:12.000Z</time>
      </trkpt>
      <trkpt lat="47.26588" lon="4.96219">
        <ele>497.7</ele>
        <time>2013-03-30T08:51:13.000Z</time>
      </trkpt>
      <trkpt lat="47.26587" lon="4.96223">
        <ele>497.8</ele>
        <time>2013-03-30T08:51:15.000Z</time>
      </trkpt>
      <trkpt lat="47.26586" lon="4.96226">
        <ele>497.8</ele>
        <time>2013-03-30T08:51:16.000Z</time>
      </trkpt>
      <trkpt lat="47.26585" lon="4.9623">
        <ele>497.9</ele>
        <time>2013-03-30T08:51:18.000Z</time>
      </trkpt>
      <trkpt lat="47.26581" lon="4.96247">
        <ele>497.1</ele>
        <time>2013-03-30T08:51:25.000Z</time>
      </trkpt>
      <trkpt lat="47.2658" lon="4.96251">
        <ele>496.9</ele>
        <time>2013-03-30T08:51:27.000Z</time>
      </trkpt>
      <trkpt lat="47.26579" lon="4.96254">
        <ele>497.1</ele>
        <time>2013-03-30T08:51:28.000Z</time>
      </trkpt>
      <trkpt lat="47.26578" lon="4.96259">
        <ele>497</ele>
        <time>2013-03-30T08:51:30.000Z</time>
      </trkpt>
      <trkpt lat="47.26577" lon="4.96261">
        <ele>496.9</ele>
        <time>2013-03-30T08:51:31.000Z</time>
      </trkpt>
      <trkpt lat="47.26576" lon="4.96265">
        <ele>497.8</ele>
        <time>2013-03-30T08:51:33.000Z</time>
      </trkpt>
      <trkpt lat="47.26576" lon="4.96268">
        <ele>498.4</ele>
        <time>2013-03-30T08:51:34.000Z</time>
      </trkpt>
      <trkpt lat="47.26575" lon="4.96273">
        <ele>498.1</ele>
        <time>2013-03-30T08:51:36.000Z</time>
      </trkpt>
      <trkpt lat="47.26575" lon="4.96275">
        <ele>498</ele>
        <time>2013-03-30T08:51:37.000Z</time>
      </trkpt>
      <trkpt lat="47.26574" lon="4.9628">
        <ele>498.7</ele>
        <time>2013-03-30T08:51:39.000Z</time>
      </trkpt>
      <trkpt lat="47.26574" lon="4.96282">
        <ele>498.5</ele>
        <time>2013-03-30T08:51:40.000Z</time>
      </trkpt>
      <trkpt lat="47.26573" lon="4.96287">
        <ele>498.5</ele>
        <time>2013-03-30T08:51:42.000Z</time>
      </trkpt>
      <trkpt lat="47.26573" lon="4.96289">
        <ele>498.8</ele>
        <time>2013-03-30T08:51:43.000Z</time>
      </trkpt>
      <trkpt lat="47.26572" lon="4.96294">
        <ele>499.2</ele>
        <time>2013-03-30T08:51:45.000Z</time>
      </trkpt>
      <trkpt lat="47.26572" lon="4.96296">
        <ele>499</ele>
        <time>2013-03-30T08:51:46.000Z</time>
      </trkpt>
      <trkpt lat="47.26571" lon="4.96301">
        <ele>498.3</ele>
        <time>2013-03-30T08:51:48.000Z</time>
      </trkpt>
      <trkpt lat="47.2657" lon="4.96304">
        <ele>498.2</ele>
        <time>2013-03-30T08:51:49.000Z</time>
      </trkpt>
      <trkpt lat="47.26569" lon="4.96308">
        <ele>497.8</ele>
        <time>2013-03-30T08:51:51.000Z</time>
      </trkpt>
      <trkpt lat="47.26568" lon="4.96311">
        <ele>497.8</ele>
        <time>2013-03-30T08:51:52.000Z</time>
      </trkpt>
      <trkpt lat="47.26567" lon="4.96316">
        <ele>497.4</ele>
        <time>2013-03-30T08:51:54.000Z</time>
      </trkpt>
      <trkpt lat="47.26567" lon="4.96319">
        <ele>497.5</ele>
        <time>2013-03-30T08:51:55.000Z</time>
      </trkpt>
      <trkpt lat="47.26566" lon="4.96323">
        <ele>497.1</ele>
        <time>2013-03-30T08:51:57.000Z</time>
      </trkpt>
      <trkpt lat="47.26566" lon="4.96326">
        <ele>497</ele>
        <time>2013-03-30T08:51:58.000Z</time>
      </trkpt>
      <trkpt lat="47.26566" lon="4.96331">
        <ele>497.2</ele>
        <time>2013-03-30T08:52:00.000Z</time>
      </trkpt>
      <trkpt lat="47.26566" lon="4.96334">
        <ele>497.2</ele>
        <time>2013-03-30T08:52:01.000Z</time>
      </trkpt>
      <trkpt lat="47.26565" lon="4.96339">
        <ele>496.6</ele>
        <time>2013-03-30T08:52:03.000Z</time>
      </trkpt>
      <trkpt lat="47.26564" lon="4.96341">
        <ele>496.6</ele>
        <time>2013-03-30T08:52:04.000Z</time>
      </trkpt>
      <trkpt lat="47.26564" lon="4.96346">
        <ele>496.4</ele>
        <time>2013-03-30T08:52:06.000Z</time>
      </trkpt>
      <trkpt lat="47.26563" lon="4.96349">
        <ele>496.5</ele>
        <time>2013-03-30T08:52:07.000Z</time>
      </trkpt>
      <trkpt lat="47.26563" lon="4.96354">
        <ele>496.4</ele>
        <time>2013-03-30T08:52:09.000Z</time>
      </trkpt>
      <trkpt lat="47.26562" lon="4.96356">
        <ele>496.2</ele>
        <time>2013-03-30T08:52:10.000Z</time>
      </trkpt>
      <trkpt lat="47.26561" lon="4.96361">
        <ele>496</ele>
        <time>2013-03-30T08:52:12.000Z</time>
      </trkpt>
      <trkpt lat="47.26561" lon="4.96364">
        <ele>495.9</ele>
        <time>2013-03-30T08:52:13.000Z</time>
      </trkpt>
      <trkpt lat="47.26559" lon="4.96369">
        <ele>495.7</ele>
        <time>2013-03-30T08:52:15.000Z</time>
      </trkpt>
      <trkpt lat="47.26558" lon="4.96371">
        <ele>495.6</ele>
        <time>2013-03-30T08:52:16.000Z</time>
      </trkpt>
      <trkpt lat="47.26557" lon="4.96376">
        <ele>495.5</ele>
        <time>2013-03-30T08:52:18.000Z</time>
      </trkpt>
      <trkpt lat="47.26548" lon="4.96389">
        <ele>494.7</ele>
        <time>2013-03-30T08:52:25.000Z</time>
      </trkpt>
      <trkpt lat="47.26546" lon="4.96393">
        <ele>493.5</ele>
        <time>2013-03-30T08:52:27.000Z</time>
      </trkpt>
      <trkpt lat="47.26546" lon="4.96396">
        <ele>494.3</ele>
        <time>2013-03-30T08:52:28.000Z</time>
      </trkpt>
      <trkpt lat="47.26545" lon="4.96401">
        <ele>494.4</ele>
        <time>2013-03-30T08:52:30.000Z</time>
      </trkpt>
      <trkpt lat="47.26544" lon="4.96404">
        <ele>494.1</ele>
        <time>2013-03-30T08:52:31.000Z</time>
      </trkpt>
      <trkpt lat="47.26545" lon="4.96409">
        <ele>493.5</ele>
        <time>2013-03-30T08:52:33.000Z</time>
      </trkpt>
      <trkpt lat="47.26544" lon="4.96411">
        <ele>492.9</ele>
        <time>2013-03-30T08:52:34.000Z</time>
      </trkpt>
      <trkpt lat="47.26543" lon="4.96416">
        <ele>492.8</ele>
        <time>2013-03-30T08:52:36.000Z</time>
      </trkpt>
      <trkpt lat="47.26543" lon="4.96419">
        <ele>492.6</ele>
        <time>2013-03-30T08:52:37.000Z</time>
      </trkpt>
      <trkpt lat="47.26542" lon="4.96424">
        <ele>491.9</ele>
        <time>2013-03-30T08:52:39.000Z</time>
      </trkpt>
      <trkpt lat="47.26541" lon="4.96426">
        <ele>491.7</ele>
        <time>2013-03-30T08:52:40.000Z</time>
      </trkpt>
      <trkpt lat="47.2654" lon="4.9643">
        <ele>492</ele>
        <time>2013-03-30T08:52:42.000Z</time>
      </trkpt>
      <trkpt lat="47.2654" lon="4.96433">
        <ele>492.3</ele>
        <time>2013-03-30T08:52:43.000Z</time>
      </trkpt>
      <trkpt lat="47.26538" lon="4.96436">
        <ele>492</ele>
        <time>2013-03-30T08:52:45.000Z</time>
      </trkpt>
      <trkpt lat="47.26537" lon="4.96438">
        <ele>492.1</ele>
        <time>2013-03-30T08:52:46.000Z</time>
      </trkpt>
      <trkpt lat="47.26536" lon="4.96442">
        <ele>491.9</ele>
        <time>2013-03-30T08:52:48.000Z</time>
      </trkpt>
      <trkpt lat="47.26535" lon="4.96445">
        <ele>492</ele>
        <time>2013-03-30T08:52:49.000Z</time>
      </trkpt>
      <trkpt lat="47.26533" lon="4.96449">
        <ele>491.5</ele>
        <time>2013-03-30T08:52:51.000Z</time>
      </trkpt>
      <trkpt lat="47.26532" lon="4.96451">
        <ele>491.1</ele>
        <time>2013-03-30T08:52:52.000Z</time>
      </trkpt>
      <trkpt lat="47.26529" lon="4.96455">
        <ele>490.8</ele>
        <time>2013-03-30T08:52:54.000Z</time>
      </trkpt>
      <trkpt lat="47.26528" lon="4.96457">
        <ele>490.5</ele>
        <time>2013-03-30T08:52:55.000Z</time>
      </trkpt>
      <trkpt lat="47.26526" lon="4.9646">
        <ele>490.2</ele>
        <time>2013-03-30T08:52:57.000Z</time>
      </trkpt>
      <trkpt lat="47.26525" lon="4.96463">
        <ele>490.1</ele>
        <time>2013-03-30T08:52:58.000Z</time>
      </trkpt>
      <trkpt lat="47.26523" lon="4.96466">
        <ele>489.6</ele>
        <time>2013-03-30T08:53:00.000Z</time>
      </trkpt>
      <trkpt lat="47.26522" lon="4.96468">
        <ele>489.6</ele>
        <time>2013-03-30T08:53:01.000Z</time>
      </trkpt>
      <trkpt lat="47.26519" lon="4.96472">
        <ele>489.2</ele>
        <time>2013-03-30T08:53:03.000Z</time>
      </trkpt>
      <trkpt lat="47.26518" lon="4.96474">
        <ele>489</ele>
        <time>2013-03-30T08:53:04.000Z</time>
      </trkpt>
      <trkpt lat="47.26516" lon="4.96478">
        <ele>488.8</ele>
        <time>2013-03-30T08:53:06.000Z</time>
      </trkpt>
      <trkpt lat="47.26515" lon="4.96479">
        <ele>488.8</ele>
        <time>2013-03-30T08:53:07.000Z</time>
      </trkpt>
      <trkpt lat="47.26513" lon="4.96483">
        <ele>488.4</ele>
        <time>2013-03-30T08:53:09.000Z</time>
      </trkpt>
      <trkpt lat="47.26511" lon="4.96485">
        <ele>488.2</ele>
        <time>2013-03-30T08:53:10.000Z</time>
      </trkpt>
      <trkpt lat="47.26509" lon="4.96488">
        <ele>487.9</ele>
        <time>2013-03-30T08:53:12.000Z</time>
      </trkpt>
      <trkpt lat="47.26507" lon="4.9649">
        <ele>487.8</ele>
        <time>2013-03-30T08:53:13.000Z</time>
      </trkpt>
      <trkpt lat="47.26504" lon="4.96493">
        <ele>487.6</ele>
        <time>2013-03-30T08:53:15.000Z</time>
      </trkpt>
      <trkpt lat="47.26503" lon="4.96495">
        <ele>487.4</ele>
        <time>2013-03-30T08:53:16.000Z</time>
      </trkpt>
      <trkpt lat="47.265" lon="4.96498">
        <ele>487.1</ele>
        <time>2013-03-30T08:53:18.000Z</time>
      </trkpt>
      <trkpt lat="47.26486" lon="4.96508">
        <ele>481.2</ele>
        <time>2013-03-30T08:53:25.000Z</time>
      </trkpt>
      <trkpt lat="47.26484" lon="4.96511">
        <ele>480.1</ele>
        <time>2013-03-30T08:53:27.000Z</time>
      </trkpt>
      <trkpt lat="47.26482" lon="4.96512">
        <ele>479.6</ele>
        <time>2013-03-30T08:53:28.000Z</time>
      </trkpt>
      <trkpt lat="47.26479" lon="4.96515">
        <ele>479.2</ele>
        <time>2013-03-30T08:53:30.000Z</time>
      </trkpt>
      <trkpt lat="47.26477" lon="4.96517">
        <ele>479.3</ele>
        <time>2013-03-30T08:53:31.000Z</time>
      </trkpt>
      <trkpt lat="47.26474" lon="4.96519">
        <ele>479.5</ele>
        <time>2013-03-30T08:53:33.000Z</time>
      </trkpt>
      <trkpt lat="47.26473" lon="4.96521">
        <ele>479.6</ele>
        <time>2013-03-30T08:53:34.000Z</time>
      </trkpt>
      <trkpt lat="47.2647" lon="4.96524">
        <ele>479.2</ele>
        <time>2013-03-30T08:53:36.000Z</time>
      </trkpt>
      <trkpt lat="47.26469" lon="4.96526">
        <ele>479.2</ele>
        <time>2013-03-30T08:53:37.000Z</time>
      </trkpt>
      <trkpt lat="47.26466" lon="4.96531">
        <ele>479.1</ele>
        <time>2013-03-30T08:53:40.000Z</time>
      </trkpt>
      <trkpt lat="47.26465" lon="4.96533">
        <ele>478.5</ele>
        <time>2013-03-30T08:53:41.000Z</time>
      </trkpt>
      <trkpt lat="47.26464" lon="4.96537">
        <ele>478.3</ele>
        <time>2013-03-30T08:53:43.000Z</time>
      </trkpt>
      <trkpt lat="47.26462" lon="4.96539">
        <ele>477.6</ele>
        <time>2013-03-30T08:53:44.000Z</time>
      </trkpt>
      <trkpt lat="47.26461" lon="4.96543">
        <ele>477</ele>
        <time>2013-03-30T08:53:46.000Z</time>
      </trkpt>
      <trkpt lat="47.2646" lon="4.96545">
        <ele>476.9</ele>
        <time>2013-03-30T08:53:47.000Z</time>
      </trkpt>
      <trkpt lat="47.26458" lon="4.96549">
        <ele>476.9</ele>
        <time>2013-03-30T08:53:49.000Z</time>
      </trkpt>
      <trkpt lat="47.26457" lon="4.96551">
        <ele>477</ele>
        <time>2013-03-30T08:53:50.000Z</time>
      </trkpt>
      <trkpt lat="47.26455" lon="4.96555">
        <ele>477.3</ele>
        <time>2013-03-30T08:53:52.000Z</time>
      </trkpt>
      <trkpt lat="47.26454" lon="4.96557">
        <ele>477.2</ele>
        <time>2013-03-30T08:53:53.000Z</time>
      </trkpt>
      <trkpt lat="47.26452" lon="4.96561">
        <ele>476.9</ele>
        <time>2013-03-30T08:53:55.000Z</time>
      </trkpt>
      <trkpt lat="47.26452" lon="4.96563">
        <ele>476.9</ele>
        <time>2013-03-30T08:53:56.000Z</time>
      </trkpt>
      <trkpt lat="47.2645" lon="4.96568">
        <ele>476.9</ele>
        <time>2013-03-30T08:53:58.000Z</time>
      </trkpt>
      <trkpt lat="47.26449" lon="4.9657">
        <ele>476.9</ele>
        <time>2013-03-30T08:53:59.000Z</time>
      </trkpt>
      <trkpt lat="47.26447" lon="4.96574">
        <ele>476.9</ele>
        <time>2013-03-30T08:54:01.000Z</time>
      </trkpt>
      <trkpt lat="47.26446" lon="4.96576">
        <ele>477</ele>
        <time>2013-03-30T08:54:02.000Z</time>
      </trkpt>
      <trkpt lat="47.26445" lon="4.9658">
        <ele>477.1</ele>
        <time>2013-03-30T08:54:04.000Z</time>
      </trkpt>
      <trkpt lat="47.26444" lon="4.96582">
        <ele>477.2</ele>
        <time>2013-03-30T08:54:05.000Z</time>
      </trkpt>
      <trkpt lat="47.26442" lon="4.96587">
        <ele>477.2</ele>
        <time>2013-03-30T08:54:07.000Z</time>
      </trkpt>
      <trkpt lat="47.26441" lon="4.96589">
        <ele>477.1</ele>
        <time>2013-03-30T08:54:08.000Z</time>
      </trkpt>
      <trkpt lat="47.2644" lon="4.96593">
        <ele>477.2</ele>
        <time>2013-03-30T08:54:10.000Z</time>
      </trkpt>
      <trkpt lat="47.26439" lon="4.96595">
        <ele>477.2</ele>
        <time>2013-03-30T08:54:11.000Z</time>
      </trkpt>
      <trkpt lat="47.26437" lon="4.96599">
        <ele>477.1</ele>
        <time>2013-03-30T08:54:13.000Z</time>
      </trkpt>
      <trkpt lat="47.26437" lon="4.96601">
        <ele>477.1</ele>
        <time>2013-03-30T08:54:14.000Z</time>
      </trkpt>
      <trkpt lat="47.26435" lon="4.96606">
        <ele>476.9</ele>
        <time>2013-03-30T08:54:16.000Z</time>
      </trkpt>
      <trkpt lat="47.26434" lon="4.96608">
        <ele>476.9</ele>
        <time>2013-03-30T08:54:17.000Z</time>
      </trkpt>
      <trkpt lat="47.26434" lon="4.9661">
        <ele>476.8</ele>
        <time>2013-03-30T08:54:18.000Z</time>
      </trkpt>
      <trkpt lat="47.26425" lon="4.96624">
        <ele>471.1</ele>
        <time>2013-03-30T08:54:25.000Z</time>
      </trkpt>
      <trkpt lat="47.26424" lon="4.96628">
        <ele>471.9</ele>
        <time>2013-03-30T08:54:27.000Z</time>
      </trkpt>
      <trkpt lat="47.26424" lon="4.96631">
        <ele>471.4</ele>
        <time>2013-03-30T08:54:28.000Z</time>
      </trkpt>
      <trkpt lat="47.26422" lon="4.96636">
        <ele>469.9</ele>
        <time>2013-03-30T08:54:31.000Z</time>
      </trkpt>
      <trkpt lat="47.26421" lon="4.96638">
        <ele>470.2</ele>
        <time>2013-03-30T08:54:32.000Z</time>
      </trkpt>
      <trkpt lat="47.2642" lon="4.96644">
        <ele>472.1</ele>
        <time>2013-03-30T08:54:36.000Z</time>
      </trkpt>
      <trkpt lat="47.2642" lon="4.96645">
        <ele>473.6</ele>
        <time>2013-03-30T08:54:37.000Z</time>
      </trkpt>
      <trkpt lat="47.26422" lon="4.96639">
        <ele>476.1</ele>
        <time>2013-03-30T08:54:42.000Z</time>
      </trkpt>
      <trkpt lat="47.26422" lon="4.96638">
        <ele>476.5</ele>
        <time>2013-03-30T08:54:43.000Z</time>
      </trkpt>
      <trkpt lat="47.26423" lon="4.96633">
        <ele>477.9</ele>
        <time>2013-03-30T08:55:18.000Z</time>
      </trkpt>
      <trkpt lat="47.26421" lon="4.96629">
        <ele>462.4</ele>
        <time>2013-03-30T08:55:25.000Z</time>
      </trkpt>
      <trkpt lat="47.26418" lon="4.96633">
        <ele>478.6</ele>
        <time>2013-03-30T08:57:06.000Z</time>
      </trkpt>
      <trkpt lat="47.26418" lon="4.96636">
        <ele>478.3</ele>
        <time>2013-03-30T08:57:07.000Z</time>
      </trkpt>
      <trkpt lat="47.26417" lon="4.96641">
        <ele>477.8</ele>
        <time>2013-03-30T08:57:09.000Z</time>
      </trkpt>
      <trkpt lat="47.26417" lon="4.96644">
        <ele>477.4</ele>
        <time>2013-03-30T08:57:10.000Z</time>
      </trkpt>
      <trkpt lat="47.26416" lon="4.9665">
        <ele>476.8</ele>
        <time>2013-03-30T08:57:12.000Z</time>
      </trkpt>
      <trkpt lat="47.26415" lon="4.96653">
        <ele>476.5</ele>
        <time>2013-03-30T08:57:13.000Z</time>
      </trkpt>
      <trkpt lat="47.26415" lon="4.96657">
        <ele>476.1</ele>
        <time>2013-03-30T08:57:15.000Z</time>
      </trkpt>
      <trkpt lat="47.26414" lon="4.9666">
        <ele>476.1</ele>
        <time>2013-03-30T08:57:16.000Z</time>
      </trkpt>
      <trkpt lat="47.26413" lon="4.96665">
        <ele>476</ele>
        <time>2013-03-30T08:57:18.000Z</time>
      </trkpt>
      <trkpt lat="47.26397" lon="4.96714">
        <ele>468.4</ele>
        <time>2013-03-30T08:57:38.000Z</time>
      </trkpt>
      <trkpt lat="47.26396" lon="4.96719">
        <ele>470</ele>
        <time>2013-03-30T08:57:40.000Z</time>
      </trkpt>
      <trkpt lat="47.26394" lon="4.96721">
        <ele>471.2</ele>
        <time>2013-03-30T08:57:41.000Z</time>
      </trkpt>
      <trkpt lat="47.26393" lon="4.96726">
        <ele>470.4</ele>
        <time>2013-03-30T08:57:43.000Z</time>
      </trkpt>
      <trkpt lat="47.26392" lon="4.96728">
        <ele>470.4</ele>
        <time>2013-03-30T08:57:44.000Z</time>
      </trkpt>
      <trkpt lat="47.26391" lon="4.96733">
        <ele>469.5</ele>
        <time>2013-03-30T08:57:46.000Z</time>
      </trkpt>
      <trkpt lat="47.2639" lon="4.96735">
        <ele>469.8</ele>
        <time>2013-03-30T08:57:47.000Z</time>
      </trkpt>
      <trkpt lat="47.26389" lon="4.96739">
        <ele>470.6</ele>
        <time>2013-03-30T08:57:49.000Z</time>
      </trkpt>
      <trkpt lat="47.26389" lon="4.96741">
        <ele>470.3</ele>
        <time>2013-03-30T08:57:50.000Z</time>
      </trkpt>
      <trkpt lat="47.26389" lon="4.96746">
        <ele>469.8</ele>
        <time>2013-03-30T08:57:52.000Z</time>
      </trkpt>
      <trkpt lat="47.2639" lon="4.96749">
        <ele>469.1</ele>
        <time>2013-03-30T08:57:53.000Z</time>
      </trkpt>
      <trkpt lat="47.2639" lon="4.96755">
        <ele>468.8</ele>
        <time>2013-03-30T08:57:56.000Z</time>
      </trkpt>
      <trkpt lat="47.2639" lon="4.96758">
        <ele>468.6</ele>
        <time>2013-03-30T08:57:57.000Z</time>
      </trkpt>
      <trkpt lat="47.2639" lon="4.96763">
        <ele>468.5</ele>
        <time>2013-03-30T08:57:59.000Z</time>
      </trkpt>
      <trkpt lat="47.26391" lon="4.96766">
        <ele>468.2</ele>
        <time>2013-03-30T08:58:00.000Z</time>
      </trkpt>
      <trkpt lat="47.26392" lon="4.9677">
        <ele>468</ele>
        <time>2013-03-30T08:58:02.000Z</time>
      </trkpt>
      <trkpt lat="47.26393" lon="4.96772">
        <ele>467.9</ele>
        <time>2013-03-30T08:58:03.000Z</time>
      </trkpt>
      <trkpt lat="47.26394" lon="4.96777">
        <ele>467.6</ele>
        <time>2013-03-30T08:58:05.000Z</time>
      </trkpt>
      <trkpt lat="47.26395" lon="4.96779">
        <ele>467.6</ele>
        <time>2013-03-30T08:58:06.000Z</time>
      </trkpt>
      <trkpt lat="47.26396" lon="4.96784">
        <ele>467.4</ele>
        <time>2013-03-30T08:58:08.000Z</time>
      </trkpt>
      <trkpt lat="47.26397" lon="4.96786">
        <ele>467.3</ele>
        <time>2013-03-30T08:58:09.000Z</time>
      </trkpt>
      <trkpt lat="47.26399" lon="4.9679">
        <ele>467.1</ele>
        <time>2013-03-30T08:58:11.000Z</time>
      </trkpt>
      <trkpt lat="47.264" lon="4.96792">
        <ele>467.1</ele>
        <time>2013-03-30T08:58:12.000Z</time>
      </trkpt>
      <trkpt lat="47.26403" lon="4.96796">
        <ele>467.1</ele>
        <time>2013-03-30T08:58:14.000Z</time>
      </trkpt>
      <trkpt lat="47.26404" lon="4.96798">
        <ele>466.8</ele>
        <time>2013-03-30T08:58:15.000Z</time>
      </trkpt>
      <trkpt lat="47.26407" lon="4.96801">
        <ele>466.4</ele>
        <time>2013-03-30T08:58:17.000Z</time>
      </trkpt>
      <trkpt lat="47.26409" lon="4.96803">
        <ele>466.1</ele>
        <time>2013-03-30T08:58:18.000Z</time>
      </trkpt>
      <trkpt lat="47.2642" lon="4.96823">
        <ele>461.3</ele>
        <time>2013-03-30T08:58:25.000Z</time>
      </trkpt>
      <trkpt lat="47.26423" lon="4.96826">
        <ele>462</ele>
        <time>2013-03-30T08:58:27.000Z</time>
      </trkpt>
      <trkpt lat="47.26424" lon="4.96827">
        <ele>462.7</ele>
        <time>2013-03-30T08:58:28.000Z</time>
      </trkpt>
      <trkpt lat="47.26426" lon="4.96832">
        <ele>462.4</ele>
        <time>2013-03-30T08:58:31.000Z</time>
      </trkpt>
      <trkpt lat="47.26426" lon="4.96834">
        <ele>462</ele>
        <time>2013-03-30T08:58:32.000Z</time>
      </trkpt>
      <trkpt lat="47.26427" lon="4.9684">
        <ele>462</ele>
        <time>2013-03-30T08:58:35.000Z</time>
      </trkpt>
      <trkpt lat="47.26427" lon="4.96842">
        <ele>461.7</ele>
        <time>2013-03-30T08:58:36.000Z</time>
      </trkpt>
      <trkpt lat="47.26427" lon="4.96846">
        <ele>461.9</ele>
        <time>2013-03-30T08:58:38.000Z</time>
      </trkpt>
      <trkpt lat="47.26427" lon="4.96849">
        <ele>461.8</ele>
        <time>2013-03-30T08:58:39.000Z</time>
      </trkpt>
      <trkpt lat="47.26427" lon="4.96853">
        <ele>461.7</ele>
        <time>2013-03-30T08:58:41.000Z</time>
      </trkpt>
      <trkpt lat="47.26427" lon="4.96855">
        <ele>461.8</ele>
        <time>2013-03-30T08:58:42.000Z</time>
      </trkpt>
      <trkpt lat="47.26427" lon="4.9686">
        <ele>461.5</ele>
        <time>2013-03-30T08:58:44.000Z</time>
      </trkpt>
      <trkpt lat="47.26427" lon="4.96862">
        <ele>461.5</ele>
        <time>2013-03-30T08:58:45.000Z</time>
      </trkpt>
      <trkpt lat="47.26427" lon="4.96867">
        <ele>461.2</ele>
        <time>2013-03-30T08:58:47.000Z</time>
      </trkpt>
      <trkpt lat="47.26427" lon="4.96869">
        <ele>461.1</ele>
        <time>2013-03-30T08:58:48.000Z</time>
      </trkpt>
      <trkpt lat="47.26428" lon="4.96875">
        <ele>461</ele>
        <time>2013-03-30T08:58:51.000Z</time>
      </trkpt>
      <trkpt lat="47.26428" lon="4.96878">
        <ele>460.8</ele>
        <time>2013-03-30T08:58:52.000Z</time>
      </trkpt>
      <trkpt lat="47.26428" lon="4.96883">
        <ele>460.3</ele>
        <time>2013-03-30T08:58:54.000Z</time>
      </trkpt>
      <trkpt lat="47.26429" lon="4.96885">
        <ele>460.2</ele>
        <time>2013-03-30T08:58:55.000Z</time>
      </trkpt>
      <trkpt lat="47.2643" lon="4.9689">
        <ele>459.5</ele>
        <time>2013-03-30T08:58:57.000Z</time>
      </trkpt>
      <trkpt lat="47.2643" lon="4.96892">
        <ele>459.4</ele>
        <time>2013-03-30T08:58:58.000Z</time>
      </trkpt>
      <trkpt lat="47.26431" lon="4.96896">
        <ele>459.2</ele>
        <time>2013-03-30T08:59:00.000Z</time>
      </trkpt>
      <trkpt lat="47.26432" lon="4.96899">
        <ele>459.1</ele>
        <time>2013-03-30T08:59:01.000Z</time>
      </trkpt>
      <trkpt lat="47.26434" lon="4.96904">
        <ele>458.2</ele>
        <time>2013-03-30T08:59:03.000Z</time>
      </trkpt>
      <trkpt lat="47.26434" lon="4.96907">
        <ele>457.9</ele>
        <time>2013-03-30T08:59:04.000Z</time>
      </trkpt>
      <trkpt lat="47.26435" lon="4.96911">
        <ele>457.5</ele>
        <time>2013-03-30T08:59:06.000Z</time>
      </trkpt>
      <trkpt lat="47.26436" lon="4.96914">
        <ele>457.2</ele>
        <time>2013-03-30T08:59:07.000Z</time>
      </trkpt>
      <trkpt lat="47.26437" lon="4.96919">
        <ele>456.5</ele>
        <time>2013-03-30T08:59:09.000Z</time>
      </trkpt>
      <trkpt lat="47.26438" lon="4.96921">
        <ele>456.2</ele>
        <time>2013-03-30T08:59:10.000Z</time>
      </trkpt>
      <trkpt lat="47.26439" lon="4.96925">
        <ele>455.6</ele>
        <time>2013-03-30T08:59:12.000Z</time>
      </trkpt>
      <trkpt lat="47.2644" lon="4.96927">
        <ele>455.4</ele>
        <time>2013-03-30T08:59:13.000Z</time>
      </trkpt>
      <trkpt lat="47.26441" lon="4.96931">
        <ele>454.9</ele>
        <time>2013-03-30T08:59:15.000Z</time>
      </trkpt>
      <trkpt lat="47.26441" lon="4.96933">
        <ele>454.5</ele>
        <time>2013-03-30T08:59:16.000Z</time>
      </trkpt>
      <trkpt lat="47.26442" lon="4.96935">
        <ele>453.7</ele>
        <time>2013-03-30T08:59:18.000Z</time>
      </trkpt>
      <trkpt lat="47.26446" lon="4.96948">
        <ele>455.2</ele>
        <time>2013-03-30T08:59:25.000Z</time>
      </trkpt>
      <trkpt lat="47.26447" lon="4.96954">
        <ele>453.9</ele>
        <time>2013-03-30T08:59:28.000Z</time>
      </trkpt>
      <trkpt lat="47.26448" lon="4.96956">
        <ele>452.7</ele>
        <time>2013-03-30T08:59:29.000Z</time>
      </trkpt>
      <trkpt lat="47.26451" lon="4.96961">
        <ele>451.2</ele>
        <time>2013-03-30T08:59:31.000Z</time>
      </trkpt>
      <trkpt lat="47.26452" lon="4.96963">
        <ele>451.4</ele>
        <time>2013-03-30T08:59:32.000Z</time>
      </trkpt>
      <trkpt lat="47.26453" lon="4.96967">
        <ele>450.7</ele>
        <time>2013-03-30T08:59:34.000Z</time>
      </trkpt>
      <trkpt lat="47.26454" lon="4.96969">
        <ele>450.2</ele>
        <time>2013-03-30T08:59:35.000Z</time>
      </trkpt>
      <trkpt lat="47.26456" lon="4.96974">
        <ele>449.1</ele>
        <time>2013-03-30T08:59:38.000Z</time>
      </trkpt>
      <trkpt lat="47.26457" lon="4.96977">
        <ele>449.1</ele>
        <time>2013-03-30T08:59:39.000Z</time>
      </trkpt>
      <trkpt lat="47.26459" lon="4.96981">
        <ele>448.1</ele>
        <time>2013-03-30T08:59:41.000Z</time>
      </trkpt>
      <trkpt lat="47.2646" lon="4.96983">
        <ele>448.5</ele>
        <time>2013-03-30T08:59:42.000Z</time>
      </trkpt>
      <trkpt lat="47.26461" lon="4.96988">
        <ele>448.6</ele>
        <time>2013-03-30T08:59:44.000Z</time>
      </trkpt>
      <trkpt lat="47.26462" lon="4.96991">
        <ele>448.7</ele>
        <time>2013-03-30T08:59:45.000Z</time>
      </trkpt>
      <trkpt lat="47.26464" lon="4.96995">
        <ele>448.8</ele>
        <time>2013-03-30T08:59:47.000Z</time>
      </trkpt>
      <trkpt lat="47.26464" lon="4.96997">
        <ele>448.8</ele>
        <time>2013-03-30T08:59:48.000Z</time>
      </trkpt>
      <trkpt lat="47.26466" lon="4.97003">
        <ele>448.5</ele>
        <time>2013-03-30T08:59:51.000Z</time>
      </trkpt>
      <trkpt lat="47.26466" lon="4.97005">
        <ele>448.5</ele>
        <time>2013-03-30T08:59:52.000Z</time>
      </trkpt>
      <trkpt lat="47.26468" lon="4.9701">
        <ele>448.4</ele>
        <time>2013-03-30T08:59:55.000Z</time>
      </trkpt>
      <trkpt lat="47.26469" lon="4.97011">
        <ele>448.3</ele>
        <time>2013-03-30T08:59:56.000Z</time>
      </trkpt>
      <trkpt lat="47.2647" lon="4.97015">
        <ele>448</ele>
        <time>2013-03-30T08:59:58.000Z</time>
      </trkpt>
      <trkpt lat="47.26471" lon="4.97017">
        <ele>447.9</ele>
        <time>2013-03-30T08:59:59.000Z</time>
      </trkpt>
      <trkpt lat="47.26473" lon="4.97021">
        <ele>447.8</ele>
        <time>2013-03-30T09:00:01.000Z</time>
      </trkpt>
      <trkpt lat="47.26474" lon="4.97023">
        <ele>447.5</ele>
        <time>2013-03-30T09:00:02.000Z</time>
      </trkpt>
      <trkpt lat="47.26476" lon="4.97028">
        <ele>447.5</ele>
        <time>2013-03-30T09:00:05.000Z</time>
      </trkpt>
      <trkpt lat="47.26477" lon="4.9703">
        <ele>447.5</ele>
        <time>2013-03-30T09:00:06.000Z</time>
      </trkpt>
      <trkpt lat="47.26477" lon="4.97035">
        <ele>447.3</ele>
        <time>2013-03-30T09:00:09.000Z</time>
      </trkpt>
      <trkpt lat="47.26478" lon="4.97038">
        <ele>447.2</ele>
        <time>2013-03-30T09:00:10.000Z</time>
      </trkpt>
      <trkpt lat="47.26479" lon="4.97042">
        <ele>447.1</ele>
        <time>2013-03-30T09:00:12.000Z</time>
      </trkpt>
      <trkpt lat="47.2648" lon="4.97044">
        <ele>446.9</ele>
        <time>2013-03-30T09:00:13.000Z</time>
      </trkpt>
      <trkpt lat="47.2648" lon="4.97049">
        <ele>446.8</ele>
        <time>2013-03-30T09:00:15.000Z</time>
      </trkpt>
      <trkpt lat="47.2648" lon="4.97052">
        <ele>446.6</ele>
        <time>2013-03-30T09:00:16.000Z</time>
      </trkpt>
      <trkpt lat="47.26481" lon="4.97056">
        <ele>446.5</ele>
        <time>2013-03-30T09:00:18.000Z</time>
      </trkpt>
      <trkpt lat="47.2649" lon="4.97083">
        <ele>443.4</ele>
        <time>2013-03-30T09:00:26.000Z</time>
      </trkpt>
      <trkpt lat="47.26489" lon="4.97089">
        <ele>442.3</ele>
        <time>2013-03-30T09:00:28.000Z</time>
      </trkpt>
      <trkpt lat="47.26491" lon="4.97091">
        <ele>441.2</ele>
        <time>2013-03-30T09:00:29.000Z</time>
      </trkpt>
      <trkpt lat="47.26494" lon="4.97094">
        <ele>442.8</ele>
        <time>2013-03-30T09:00:31.000Z</time>
      </trkpt>
      <trkpt lat="47.26495" lon="4.97096">
        <ele>443</ele>
        <time>2013-03-30T09:00:32.000Z</time>
      </trkpt>
      <trkpt lat="47.26498" lon="4.971">
        <ele>442.4</ele>
        <time>2013-03-30T09:00:35.000Z</time>
      </trkpt>
      <trkpt lat="47.26499" lon="4.97101">
        <ele>441.4</ele>
        <time>2013-03-30T09:00:36.000Z</time>
      </trkpt>
      <trkpt lat="47.26502" lon="4.97105">
        <ele>440.1</ele>
        <time>2013-03-30T09:00:38.000Z</time>
      </trkpt>
      <trkpt lat="47.26502" lon="4.97107">
        <ele>439.1</ele>
        <time>2013-03-30T09:00:39.000Z</time>
      </trkpt>
      <trkpt lat="47.26505" lon="4.9711">
        <ele>437.9</ele>
        <time>2013-03-30T09:00:41.000Z</time>
      </trkpt>
      <trkpt lat="47.26507" lon="4.97112">
        <ele>437.6</ele>
        <time>2013-03-30T09:00:42.000Z</time>
      </trkpt>
      <trkpt lat="47.2651" lon="4.97115">
        <ele>438.6</ele>
        <time>2013-03-30T09:00:45.000Z</time>
      </trkpt>
      <trkpt lat="47.26511" lon="4.97115">
        <ele>438.6</ele>
        <time>2013-03-30T09:00:46.000Z</time>
      </trkpt>
      <trkpt lat="47.26514" lon="4.97119">
        <ele>439.7</ele>
        <time>2013-03-30T09:00:49.000Z</time>
      </trkpt>
      <trkpt lat="47.26516" lon="4.9712">
        <ele>440.2</ele>
        <time>2013-03-30T09:00:50.000Z</time>
      </trkpt>
      <trkpt lat="47.2652" lon="4.97122">
        <ele>439.1</ele>
        <time>2013-03-30T09:00:53.000Z</time>
      </trkpt>
      <trkpt lat="47.26521" lon="4.97123">
        <ele>439.1</ele>
        <time>2013-03-30T09:00:54.000Z</time>
      </trkpt>
      <trkpt lat="47.26524" lon="4.97127">
        <ele>439</ele>
        <time>2013-03-30T09:00:56.000Z</time>
      </trkpt>
      <trkpt lat="47.26525" lon="4.97128">
        <ele>439.1</ele>
        <time>2013-03-30T09:00:57.000Z</time>
      </trkpt>
      <trkpt lat="47.26527" lon="4.97132">
        <ele>439.2</ele>
        <time>2013-03-30T09:00:59.000Z</time>
      </trkpt>
      <trkpt lat="47.26528" lon="4.97133">
        <ele>439</ele>
        <time>2013-03-30T09:01:00.000Z</time>
      </trkpt>
      <trkpt lat="47.26531" lon="4.97136">
        <ele>438.9</ele>
        <time>2013-03-30T09:01:04.000Z</time>
      </trkpt>
      <trkpt lat="47.26532" lon="4.97137">
        <ele>439.2</ele>
        <time>2013-03-30T09:01:05.000Z</time>
      </trkpt>
      <trkpt lat="47.26534" lon="4.97141">
        <ele>438.9</ele>
        <time>2013-03-30T09:01:08.000Z</time>
      </trkpt>
      <trkpt lat="47.26535" lon="4.97143">
        <ele>438.8</ele>
        <time>2013-03-30T09:01:09.000Z</time>
      </trkpt>
      <trkpt lat="47.26539" lon="4.97146">
        <ele>438.4</ele>
        <time>2013-03-30T09:01:12.000Z</time>
      </trkpt>
      <trkpt lat="47.26541" lon="4.97147">
        <ele>438.1</ele>
        <time>2013-03-30T09:01:13.000Z</time>
      </trkpt>
      <trkpt lat="47.26544" lon="4.97149">
        <ele>438.1</ele>
        <time>2013-03-30T09:01:15.000Z</time>
      </trkpt>
      <trkpt lat="47.26545" lon="4.97151">
        <ele>438.2</ele>
        <time>2013-03-30T09:01:16.000Z</time>
      </trkpt>
      <trkpt lat="47.26547" lon="4.97153">
        <ele>438.2</ele>
        <time>2013-03-30T09:01:18.000Z</time>
      </trkpt>
      <trkpt lat="47.26555" lon="4.97175">
        <ele>434.4</ele>
        <time>2013-03-30T09:01:25.000Z</time>
      </trkpt>
      <trkpt lat="47.26556" lon="4.97181">
        <ele>432.5</ele>
        <time>2013-03-30T09:01:30.000Z</time>
      </trkpt>
      <trkpt lat="47.26557" lon="4.97184">
        <ele>429.9</ele>
        <time>2013-03-30T09:01:31.000Z</time>
      </trkpt>
      <trkpt lat="47.26558" lon="4.97189">
        <ele>430.2</ele>
        <time>2013-03-30T09:01:33.000Z</time>
      </trkpt>
      <trkpt lat="47.26558" lon="4.97191">
        <ele>429.8</ele>
        <time>2013-03-30T09:01:34.000Z</time>
      </trkpt>
      <trkpt lat="47.26559" lon="4.97196">
        <ele>429.5</ele>
        <time>2013-03-30T09:01:37.000Z</time>
      </trkpt>
      <trkpt lat="47.26559" lon="4.97199">
        <ele>429.7</ele>
        <time>2013-03-30T09:01:38.000Z</time>
      </trkpt>
      <trkpt lat="47.26558" lon="4.97204">
        <ele>427.5</ele>
        <time>2013-03-30T09:01:40.000Z</time>
      </trkpt>
      <trkpt lat="47.26557" lon="4.97206">
        <ele>425.4</ele>
        <time>2013-03-30T09:01:41.000Z</time>
      </trkpt>
      <trkpt lat="47.26557" lon="4.97211">
        <ele>423.2</ele>
        <time>2013-03-30T09:01:43.000Z</time>
      </trkpt>
      <trkpt lat="47.26556" lon="4.97213">
        <ele>421.9</ele>
        <time>2013-03-30T09:01:44.000Z</time>
      </trkpt>
      <trkpt lat="47.26557" lon="4.97219">
        <ele>416.1</ele>
        <time>2013-03-30T09:01:48.000Z</time>
      </trkpt>
      <trkpt lat="47.26557" lon="4.97222">
        <ele>414</ele>
        <time>2013-03-30T09:01:49.000Z</time>
      </trkpt>
      <trkpt lat="47.26557" lon="4.97225">
        <ele>413.7</ele>
        <time>2013-03-30T09:01:50.000Z</time>
      </trkpt>
      <trkpt lat="47.26558" lon="4.97229">
        <ele>413.2</ele>
        <time>2013-03-30T09:01:51.000Z</time>
      </trkpt>
      <trkpt lat="47.26559" lon="4.97233">
        <ele>413.2</ele>
        <time>2013-03-30T09:01:53.000Z</time>
      </trkpt>
      <trkpt lat="47.26559" lon="4.97235">
        <ele>413.3</ele>
        <time>2013-03-30T09:01:54.000Z</time>
      </trkpt>
      <trkpt lat="47.2656" lon="4.9724">
        <ele>412.1</ele>
        <time>2013-03-30T09:01:57.000Z</time>
      </trkpt>
      <trkpt lat="47.2656" lon="4.97242">
        <ele>412.7</ele>
        <time>2013-03-30T09:01:58.000Z</time>
      </trkpt>
      <trkpt lat="47.26563" lon="4.97246">
        <ele>412.9</ele>
        <time>2013-03-30T09:02:00.000Z</time>
      </trkpt>
      <trkpt lat="47.26565" lon="4.97247">
        <ele>412.8</ele>
        <time>2013-03-30T09:02:01.000Z</time>
      </trkpt>
      <trkpt lat="47.26568" lon="4.9725">
        <ele>412.7</ele>
        <time>2013-03-30T09:02:04.000Z</time>
      </trkpt>
      <trkpt lat="47.2657" lon="4.9725">
        <ele>412.8</ele>
        <time>2013-03-30T09:02:05.000Z</time>
      </trkpt>
      <trkpt lat="47.26573" lon="4.97251">
        <ele>412.3</ele>
        <time>2013-03-30T09:02:07.000Z</time>
      </trkpt>
      <trkpt lat="47.26574" lon="4.97251">
        <ele>412.2</ele>
        <time>2013-03-30T09:02:08.000Z</time>
      </trkpt>
      <trkpt lat="47.26578" lon="4.97253">
        <ele>411</ele>
        <time>2013-03-30T09:02:13.000Z</time>
      </trkpt>
      <trkpt lat="47.26579" lon="4.97254">
        <ele>411</ele>
        <time>2013-03-30T09:02:14.000Z</time>
      </trkpt>
      <trkpt lat="47.2658" lon="4.97256">
        <ele>409.7</ele>
        <time>2013-03-30T09:02:18.000Z</time>
      </trkpt>
      <trkpt lat="47.26604" lon="4.97269">
        <ele>413.8</ele>
        <time>2013-03-30T09:02:25.000Z</time>
      </trkpt>
      <trkpt lat="47.26607" lon="4.97269">
        <ele>416</ele>
        <time>2013-03-30T09:02:28.000Z</time>
      </trkpt>
      <trkpt lat="47.26609" lon="4.97269">
        <ele>415.7</ele>
        <time>2013-03-30T09:02:29.000Z</time>
      </trkpt>
      <trkpt lat="47.26611" lon="4.97269">
        <ele>396.6</ele>
        <time>2013-03-30T09:02:42.000Z</time>
      </trkpt>
      <trkpt lat="47.26614" lon="4.97269">
        <ele>394.4</ele>
        <time>2013-03-30T09:02:43.000Z</time>
      </trkpt>
      <trkpt lat="47.26618" lon="4.97271">
        <ele>393.4</ele>
        <time>2013-03-30T09:02:47.000Z</time>
      </trkpt>
      <trkpt lat="47.26619" lon="4.97272">
        <ele>394.9</ele>
        <time>2013-03-30T09:02:48.000Z</time>
      </trkpt>
      <trkpt lat="47.26623" lon="4.97273">
        <ele>396.7</ele>
        <time>2013-03-30T09:02:50.000Z</time>
      </trkpt>
      <trkpt lat="47.26624" lon="4.97274">
        <ele>397.2</ele>
        <time>2013-03-30T09:02:51.000Z</time>
      </trkpt>
      <trkpt lat="47.26627" lon="4.97274">
        <ele>396.9</ele>
        <time>2013-03-30T09:02:53.000Z</time>
      </trkpt>
      <trkpt lat="47.26629" lon="4.97275">
        <ele>396.6</ele>
        <time>2013-03-30T09:02:54.000Z</time>
      </trkpt>
      <trkpt lat="47.26632" lon="4.97276">
        <ele>396.7</ele>
        <time>2013-03-30T09:02:56.000Z</time>
      </trkpt>
      <trkpt lat="47.26634" lon="4.97277">
        <ele>397.1</ele>
        <time>2013-03-30T09:02:57.000Z</time>
      </trkpt>
      <trkpt lat="47.26638" lon="4.97278">
        <ele>398.7</ele>
        <time>2013-03-30T09:03:02.000Z</time>
      </trkpt>
      <trkpt lat="47.26638" lon="4.97278">
        <ele>398.7</ele>
        <time>2013-03-30T09:03:03.000Z</time>
      </trkpt>
      <trkpt lat="47.26642" lon="4.9728">
        <ele>398.2</ele>
        <time>2013-03-30T09:03:06.000Z</time>
      </trkpt>
      <trkpt lat="47.26644" lon="4.9728">
        <ele>398</ele>
        <time>2013-03-30T09:03:07.000Z</time>
      </trkpt>
      <trkpt lat="47.26647" lon="4.97282">
        <ele>397.9</ele>
        <time>2013-03-30T09:03:09.000Z</time>
      </trkpt>
      <trkpt lat="47.26648" lon="4.97283">
        <ele>397.7</ele>
        <time>2013-03-30T09:03:10.000Z</time>
      </trkpt>
      <trkpt lat="47.26652" lon="4.97285">
        <ele>397</ele>
        <time>2013-03-30T09:03:13.000Z</time>
      </trkpt>
      <trkpt lat="47.26653" lon="4.97285">
        <ele>396.7</ele>
        <time>2013-03-30T09:03:14.000Z</time>
      </trkpt>
      <trkpt lat="47.26656" lon="4.97288">
        <ele>395.6</ele>
        <time>2013-03-30T09:03:18.000Z</time>
      </trkpt>
      <trkpt lat="47.26668" lon="4.97311">
        <ele>391.8</ele>
        <time>2013-03-30T09:03:26.000Z</time>
      </trkpt>
      <trkpt lat="47.2667" lon="4.97315">
        <ele>391.8</ele>
        <time>2013-03-30T09:03:28.000Z</time>
      </trkpt>
      <trkpt lat="47.26673" lon="4.97317">
        <ele>393.5</ele>
        <time>2013-03-30T09:03:29.000Z</time>
      </trkpt>
      <trkpt lat="47.26675" lon="4.97321">
        <ele>393.1</ele>
        <time>2013-03-30T09:03:31.000Z</time>
      </trkpt>
      <trkpt lat="47.26676" lon="4.97323">
        <ele>393.3</ele>
        <time>2013-03-30T09:03:32.000Z</time>
      </trkpt>
      <trkpt lat="47.26678" lon="4.97328">
        <ele>394.3</ele>
        <time>2013-03-30T09:03:34.000Z</time>
      </trkpt>
      <trkpt lat="47.26679" lon="4.9733">
        <ele>394.6</ele>
        <time>2013-03-30T09:03:35.000Z</time>
      </trkpt>
      <trkpt lat="47.26682" lon="4.97333">
        <ele>395.6</ele>
        <time>2013-03-30T09:03:36.000Z</time>
      </trkpt>
      <trkpt lat="47.26683" lon="4.97336">
        <ele>396.1</ele>
        <time>2013-03-30T09:03:37.000Z</time>
      </trkpt>
      <trkpt lat="47.26685" lon="4.97341">
        <ele>397.4</ele>
        <time>2013-03-30T09:03:39.000Z</time>
      </trkpt>
      <trkpt lat="47.26686" lon="4.97344">
        <ele>397.9</ele>
        <time>2013-03-30T09:03:40.000Z</time>
      </trkpt>
      <trkpt lat="47.26687" lon="4.97349">
        <ele>399.2</ele>
        <time>2013-03-30T09:03:42.000Z</time>
      </trkpt>
      <trkpt lat="47.26688" lon="4.97352">
        <ele>399.5</ele>
        <time>2013-03-30T09:03:43.000Z</time>
      </trkpt>
      <trkpt lat="47.26688" lon="4.97356">
        <ele>399.5</ele>
        <time>2013-03-30T09:03:45.000Z</time>
      </trkpt>
      <trkpt lat="47.26688" lon="4.97358">
        <ele>399.9</ele>
        <time>2013-03-30T09:03:46.000Z</time>
      </trkpt>
      <trkpt lat="47.26689" lon="4.97363">
        <ele>400.3</ele>
        <time>2013-03-30T09:03:48.000Z</time>
      </trkpt>
      <trkpt lat="47.2669" lon="4.97366">
        <ele>400.2</ele>
        <time>2013-03-30T09:03:49.000Z</time>
      </trkpt>
      <trkpt lat="47.2669" lon="4.97371">
        <ele>399.2</ele>
        <time>2013-03-30T09:03:51.000Z</time>
      </trkpt>
      <trkpt lat="47.26691" lon="4.97373">
        <ele>399.2</ele>
        <time>2013-03-30T09:03:52.000Z</time>
      </trkpt>
      <trkpt lat="47.26691" lon="4.97378">
        <ele>398.7</ele>
        <time>2013-03-30T09:03:54.000Z</time>
      </trkpt>
      <trkpt lat="47.26692" lon="4.9738">
        <ele>398.6</ele>
        <time>2013-03-30T09:03:55.000Z</time>
      </trkpt>
      <trkpt lat="47.26693" lon="4.97384">
        <ele>398.3</ele>
        <time>2013-03-30T09:03:57.000Z</time>
      </trkpt>
      <trkpt lat="47.26693" lon="4.97387">
        <ele>398.3</ele>
        <time>2013-03-30T09:03:58.000Z</time>
      </trkpt>
      <trkpt lat="47.26694" lon="4.97392">
        <ele>397.9</ele>
        <time>2013-03-30T09:04:00.000Z</time>
      </trkpt>
      <trkpt lat="47.26696" lon="4.97394">
        <ele>397.4</ele>
        <time>2013-03-30T09:04:01.000Z</time>
      </trkpt>
      <trkpt lat="47.26697" lon="4.97398">
        <ele>396.8</ele>
        <time>2013-03-30T09:04:03.000Z</time>
      </trkpt>
      <trkpt lat="47.26697" lon="4.97401">
        <ele>396.4</ele>
        <time>2013-03-30T09:04:04.000Z</time>
      </trkpt>
      <trkpt lat="47.26698" lon="4.97406">
        <ele>395.9</ele>
        <time>2013-03-30T09:04:06.000Z</time>
      </trkpt>
      <trkpt lat="47.26698" lon="4.97408">
        <ele>395.7</ele>
        <time>2013-03-30T09:04:07.000Z</time>
      </trkpt>
      <trkpt lat="47.26699" lon="4.97413">
        <ele>395.2</ele>
        <time>2013-03-30T09:04:09.000Z</time>
      </trkpt>
      <trkpt lat="47.267" lon="4.97415">
        <ele>394.6</ele>
        <time>2013-03-30T09:04:10.000Z</time>
      </trkpt>
      <trkpt lat="47.26702" lon="4.9742">
        <ele>394.1</ele>
        <time>2013-03-30T09:04:12.000Z</time>
      </trkpt>
      <trkpt lat="47.26702" lon="4.97423">
        <ele>393.8</ele>
        <time>2013-03-30T09:04:13.000Z</time>
      </trkpt>
      <trkpt lat="47.26704" lon="4.97428">
        <ele>393.1</ele>
        <time>2013-03-30T09:04:15.000Z</time>
      </trkpt>
      <trkpt lat="47.26705" lon="4.9743">
        <ele>392.4</ele>
        <time>2013-03-30T09:04:16.000Z</time>
      </trkpt>
      <trkpt lat="47.26707" lon="4.97435">
        <ele>391.5</ele>
        <time>2013-03-30T09:04:18.000Z</time>
      </trkpt>
      <trkpt lat="47.26708" lon="4.97452">
        <ele>382.6</ele>
        <time>2013-03-30T09:04:25.000Z</time>
      </trkpt>
      <trkpt lat="47.26708" lon="4.97458">
        <ele>383.7</ele>
        <time>2013-03-30T09:04:28.000Z</time>
      </trkpt>
      <trkpt lat="47.26708" lon="4.9746">
        <ele>383.4</ele>
        <time>2013-03-30T09:04:29.000Z</time>
      </trkpt>
      <trkpt lat="47.26708" lon="4.97466">
        <ele>384</ele>
        <time>2013-03-30T09:04:32.000Z</time>
      </trkpt>
      <trkpt lat="47.26709" lon="4.97468">
        <ele>383.5</ele>
        <time>2013-03-30T09:04:33.000Z</time>
      </trkpt>
      <trkpt lat="47.26709" lon="4.97473">
        <ele>383.3</ele>
        <time>2013-03-30T09:04:35.000Z</time>
      </trkpt>
      <trkpt lat="47.26709" lon="4.97476">
        <ele>382.6</ele>
        <time>2013-03-30T09:04:36.000Z</time>
      </trkpt>
      <trkpt lat="47.2671" lon="4.97481">
        <ele>381.9</ele>
        <time>2013-03-30T09:04:38.000Z</time>
      </trkpt>
      <trkpt lat="47.2671" lon="4.97484">
        <ele>381.6</ele>
        <time>2013-03-30T09:04:39.000Z</time>
      </trkpt>
      <trkpt lat="47.2671" lon="4.97489">
        <ele>381.3</ele>
        <time>2013-03-30T09:04:41.000Z</time>
      </trkpt>
      <trkpt lat="47.2671" lon="4.97492">
        <ele>381.4</ele>
        <time>2013-03-30T09:04:42.000Z</time>
      </trkpt>
      <trkpt lat="47.2671" lon="4.97498">
        <ele>381.7</ele>
        <time>2013-03-30T09:04:45.000Z</time>
      </trkpt>
      <trkpt lat="47.2671" lon="4.975">
        <ele>381.5</ele>
        <time>2013-03-30T09:04:46.000Z</time>
      </trkpt>
      <trkpt lat="47.2671" lon="4.97506">
        <ele>381.3</ele>
        <time>2013-03-30T09:04:48.000Z</time>
      </trkpt>
      <trkpt lat="47.2671" lon="4.97508">
        <ele>381.3</ele>
        <time>2013-03-30T09:04:49.000Z</time>
      </trkpt>
      <trkpt lat="47.26711" lon="4.97513">
        <ele>380.7</ele>
        <time>2013-03-30T09:04:51.000Z</time>
      </trkpt>
      <trkpt lat="47.26711" lon="4.97516">
        <ele>380.5</ele>
        <time>2013-03-30T09:04:52.000Z</time>
      </trkpt>
      <trkpt lat="47.26712" lon="4.97522">
        <ele>380.1</ele>
        <time>2013-03-30T09:04:54.000Z</time>
      </trkpt>
      <trkpt lat="47.26711" lon="4.97524">
        <ele>380.1</ele>
        <time>2013-03-30T09:04:55.000Z</time>
      </trkpt>
      <trkpt lat="47.26712" lon="4.9753">
        <ele>380</ele>
        <time>2013-03-30T09:04:57.000Z</time>
      </trkpt>
      <trkpt lat="47.26712" lon="4.97532">
        <ele>379.9</ele>
        <time>2013-03-30T09:04:58.000Z</time>
      </trkpt>
      <trkpt lat="47.26712" lon="4.97538">
        <ele>380</ele>
        <time>2013-03-30T09:05:01.000Z</time>
      </trkpt>
      <trkpt lat="47.26712" lon="4.9754">
        <ele>379.9</ele>
        <time>2013-03-30T09:05:02.000Z</time>
      </trkpt>
      <trkpt lat="47.26713" lon="4.97546">
        <ele>379.8</ele>
        <time>2013-03-30T09:05:05.000Z</time>
      </trkpt>
      <trkpt lat="47.26713" lon="4.97548">
        <ele>379.8</ele>
        <time>2013-03-30T09:05:06.000Z</time>
      </trkpt>
      <trkpt lat="47.26715" lon="4.97554">
        <ele>379.7</ele>
        <time>2013-03-30T09:05:09.000Z</time>
      </trkpt>
      <trkpt lat="47.26716" lon="4.97556">
        <ele>379.7</ele>
        <time>2013-03-30T09:05:10.000Z</time>
      </trkpt>
      <trkpt lat="47.26718" lon="4.97559">
        <ele>379.5</ele>
        <time>2013-03-30T09:05:12.000Z</time>
      </trkpt>
      <trkpt lat="47.26719" lon="4.97561">
        <ele>379.4</ele>
        <time>2013-03-30T09:05:13.000Z</time>
      </trkpt>
      <trkpt lat="47.26721" lon="4.97565">
        <ele>379.3</ele>
        <time>2013-03-30T09:05:15.000Z</time>
      </trkpt>
      <trkpt lat="47.26722" lon="4.97567">
        <ele>379.2</ele>
        <time>2013-03-30T09:05:16.000Z</time>
      </trkpt>
      <trkpt lat="47.26724" lon="4.97571">
        <ele>379.1</ele>
        <time>2013-03-30T09:05:18.000Z</time>
      </trkpt>
      <trkpt lat="47.26734" lon="4.97587">
        <ele>373.3</ele>
        <time>2013-03-30T09:05:25.000Z</time>
      </trkpt>
      <trkpt lat="47.26736" lon="4.9759">
        <ele>372.5</ele>
        <time>2013-03-30T09:05:27.000Z</time>
      </trkpt>
      <trkpt lat="47.26737" lon="4.97592">
        <ele>371.6</ele>
        <time>2013-03-30T09:05:28.000Z</time>
      </trkpt>
      <trkpt lat="47.26739" lon="4.97594">
        <ele>370.9</ele>
        <time>2013-03-30T09:05:29.000Z</time>
      </trkpt>
      <trkpt lat="47.26741" lon="4.97596">
        <ele>370.3</ele>
        <time>2013-03-30T09:05:30.000Z</time>
      </trkpt>
      <trkpt lat="47.26744" lon="4.97599">
        <ele>369.9</ele>
        <time>2013-03-30T09:05:32.000Z</time>
      </trkpt>
      <trkpt lat="47.26745" lon="4.97601">
        <ele>369.3</ele>
        <time>2013-03-30T09:05:33.000Z</time>
      </trkpt>
      <trkpt lat="47.26749" lon="4.97604">
        <ele>369.7</ele>
        <time>2013-03-30T09:05:36.000Z</time>
      </trkpt>
      <trkpt lat="47.26751" lon="4.97605">
        <ele>370.3</ele>
        <time>2013-03-30T09:05:37.000Z</time>
      </trkpt>
      <trkpt lat="47.26754" lon="4.97607">
        <ele>370.6</ele>
        <time>2013-03-30T09:05:40.000Z</time>
      </trkpt>
      <trkpt lat="47.26755" lon="4.97608">
        <ele>370.4</ele>
        <time>2013-03-30T09:05:41.000Z</time>
      </trkpt>
      <trkpt lat="47.26759" lon="4.97607">
        <ele>372</ele>
        <time>2013-03-30T09:05:45.000Z</time>
      </trkpt>
      <trkpt lat="47.26761" lon="4.97606">
        <ele>372.5</ele>
        <time>2013-03-30T09:05:46.000Z</time>
      </trkpt>
      <trkpt lat="47.26764" lon="4.97603">
        <ele>373.5</ele>
        <time>2013-03-30T09:05:49.000Z</time>
      </trkpt>
      <trkpt lat="47.26766" lon="4.97601">
        <ele>372.6</ele>
        <time>2013-03-30T09:05:50.000Z</time>
      </trkpt>
      <trkpt lat="47.26769" lon="4.97597">
        <ele>372.2</ele>
        <time>2013-03-30T09:05:53.000Z</time>
      </trkpt>
      <trkpt lat="47.26769" lon="4.97595">
        <ele>371.9</ele>
        <time>2013-03-30T09:05:54.000Z</time>
      </trkpt>
      <trkpt lat="47.26772" lon="4.97591">
        <ele>372.1</ele>
        <time>2013-03-30T09:05:56.000Z</time>
      </trkpt>
      <trkpt lat="47.26773" lon="4.97589">
        <ele>372.2</ele>
        <time>2013-03-30T09:05:57.000Z</time>
      </trkpt>
      <trkpt lat="47.26775" lon="4.97588">
        <ele>372.3</ele>
        <time>2013-03-30T09:05:58.000Z</time>
      </trkpt>
      <trkpt lat="47.26777" lon="4.97586">
        <ele>372.2</ele>
        <time>2013-03-30T09:05:59.000Z</time>
      </trkpt>
      <trkpt lat="47.26781" lon="4.97582">
        <ele>371.6</ele>
        <time>2013-03-30T09:06:01.000Z</time>
      </trkpt>
      <trkpt lat="47.26783" lon="4.97581">
        <ele>371.1</ele>
        <time>2013-03-30T09:06:02.000Z</time>
      </trkpt>
      <trkpt lat="47.26786" lon="4.97578">
        <ele>370.1</ele>
        <time>2013-03-30T09:06:04.000Z</time>
      </trkpt>
      <trkpt lat="47.26788" lon="4.97578">
        <ele>369.5</ele>
        <time>2013-03-30T09:06:05.000Z</time>
      </trkpt>
      <trkpt lat="47.26791" lon="4.97579">
        <ele>368.8</ele>
        <time>2013-03-30T09:06:08.000Z</time>
      </trkpt>
      <trkpt lat="47.26792" lon="4.9758">
        <ele>368.7</ele>
        <time>2013-03-30T09:06:09.000Z</time>
      </trkpt>
      <trkpt lat="47.26791" lon="4.9758">
        <ele>369.5</ele>
        <time>2013-03-30T09:06:18.000Z</time>
      </trkpt>
      <trkpt lat="47.26789" lon="4.97575">
        <ele>360.2</ele>
        <time>2013-03-30T09:06:25.000Z</time>
      </trkpt>
      <trkpt lat="47.26789" lon="4.97575">
        <ele>360.2</ele>
        <time>2013-03-30T09:07:16.000Z</time>
      </trkpt>
      <trkpt lat="47.26794" lon="4.97576">
        <ele>365.8</ele>
        <time>2013-03-30T09:07:17.000Z</time>
      </trkpt>
      <trkpt lat="47.26795" lon="4.97576">
        <ele>365.7</ele>
        <time>2013-03-30T09:07:18.000Z</time>
      </trkpt>
      <trkpt lat="47.26819" lon="4.97597">
        <ele>371.6</ele>
        <time>2013-03-30T09:07:38.000Z</time>
      </trkpt>
      <trkpt lat="47.2682" lon="4.97602">
        <ele>369.1</ele>
        <time>2013-03-30T09:07:39.000Z</time>
      </trkpt>
      <trkpt lat="47.26822" lon="4.97606">
        <ele>367.9</ele>
        <time>2013-03-30T09:07:40.000Z</time>
      </trkpt>
      <trkpt lat="47.26824" lon="4.97611">
        <ele>366.9</ele>
        <time>2013-03-30T09:07:42.000Z</time>
      </trkpt>
      <trkpt lat="47.26825" lon="4.97613">
        <ele>366.7</ele>
        <time>2013-03-30T09:07:43.000Z</time>
      </trkpt>
      <trkpt lat="47.26827" lon="4.97616">
        <ele>366.5</ele>
        <time>2013-03-30T09:07:45.000Z</time>
      </trkpt>
      <trkpt lat="47.26829" lon="4.97618">
        <ele>366.4</ele>
        <time>2013-03-30T09:07:46.000Z</time>
      </trkpt>
      <trkpt lat="47.26831" lon="4.97621">
        <ele>366.5</ele>
        <time>2013-03-30T09:07:48.000Z</time>
      </trkpt>
      <trkpt lat="47.26832" lon="4.97622">
        <ele>366.7</ele>
        <time>2013-03-30T09:07:49.000Z</time>
      </trkpt>
      <trkpt lat="47.26836" lon="4.97626">
        <ele>367.1</ele>
        <time>2013-03-30T09:07:52.000Z</time>
      </trkpt>
      <trkpt lat="47.26837" lon="4.97628">
        <ele>367</ele>
        <time>2013-03-30T09:07:53.000Z</time>
      </trkpt>
      <trkpt lat="47.26839" lon="4.97632">
        <ele>367.5</ele>
        <time>2013-03-30T09:07:56.000Z</time>
      </trkpt>
      <trkpt lat="47.2684" lon="4.97634">
        <ele>367.6</ele>
        <time>2013-03-30T09:07:57.000Z</time>
      </trkpt>
      <trkpt lat="47.26842" lon="4.97639">
        <ele>367.9</ele>
        <time>2013-03-30T09:08:00.000Z</time>
      </trkpt>
      <trkpt lat="47.26842" lon="4.97641">
        <ele>367.6</ele>
        <time>2013-03-30T09:08:01.000Z</time>
      </trkpt>
      <trkpt lat="47.26843" lon="4.97646">
        <ele>367.5</ele>
        <time>2013-03-30T09:08:03.000Z</time>
      </trkpt>
      <trkpt lat="47.26843" lon="4.97648">
        <ele>367.6</ele>
        <time>2013-03-30T09:08:04.000Z</time>
      </trkpt>
      <trkpt lat="47.26843" lon="4.97652">
        <ele>367.6</ele>
        <time>2013-03-30T09:08:06.000Z</time>
      </trkpt>
      <trkpt lat="47.26843" lon="4.97655">
        <ele>367.7</ele>
        <time>2013-03-30T09:08:07.000Z</time>
      </trkpt>
      <trkpt lat="47.26841" lon="4.97659">
        <ele>367.7</ele>
        <time>2013-03-30T09:08:09.000Z</time>
      </trkpt>
      <trkpt lat="47.26841" lon="4.97662">
        <ele>367.7</ele>
        <time>2013-03-30T09:08:10.000Z</time>
      </trkpt>
      <trkpt lat="47.2684" lon="4.97666">
        <ele>367.6</ele>
        <time>2013-03-30T09:08:12.000Z</time>
      </trkpt>
      <trkpt lat="47.2684" lon="4.97668">
        <ele>367.5</ele>
        <time>2013-03-30T09:08:13.000Z</time>
      </trkpt>
      <trkpt lat="47.2684" lon="4.97673">
        <ele>367.3</ele>
        <time>2013-03-30T09:08:15.000Z</time>
      </trkpt>
      <trkpt lat="47.2684" lon="4.97675">
        <ele>367.4</ele>
        <time>2013-03-30T09:08:16.000Z</time>
      </trkpt>
      <trkpt lat="47.26841" lon="4.97679">
        <ele>367.2</ele>
        <time>2013-03-30T09:08:18.000Z</time>
      </trkpt>
      <trkpt lat="47.2685" lon="4.97698">
        <ele>366.9</ele>
        <time>2013-03-30T09:08:25.000Z</time>
      </trkpt>
      <trkpt lat="47.26851" lon="4.97702">
        <ele>365.7</ele>
        <time>2013-03-30T09:08:27.000Z</time>
      </trkpt>
      <trkpt lat="47.26852" lon="4.97704">
        <ele>365.6</ele>
        <time>2013-03-30T09:08:28.000Z</time>
      </trkpt>
      <trkpt lat="47.26854" lon="4.97708">
        <ele>365.1</ele>
        <time>2013-03-30T09:08:30.000Z</time>
      </trkpt>
      <trkpt lat="47.26855" lon="4.9771">
        <ele>365.1</ele>
        <time>2013-03-30T09:08:31.000Z</time>
      </trkpt>
      <trkpt lat="47.26857" lon="4.97713">
        <ele>364.6</ele>
        <time>2013-03-30T09:08:33.000Z</time>
      </trkpt>
      <trkpt lat="47.26858" lon="4.97715">
        <ele>364.4</ele>
        <time>2013-03-30T09:08:34.000Z</time>
      </trkpt>
      <trkpt lat="47.26861" lon="4.9772">
        <ele>364.4</ele>
        <time>2013-03-30T09:08:37.000Z</time>
      </trkpt>
      <trkpt lat="47.26862" lon="4.97721">
        <ele>364.5</ele>
        <time>2013-03-30T09:08:38.000Z</time>
      </trkpt>
      <trkpt lat="47.26864" lon="4.97726">
        <ele>365.5</ele>
        <time>2013-03-30T09:08:41.000Z</time>
      </trkpt>
      <trkpt lat="47.26865" lon="4.97728">
        <ele>366.3</ele>
        <time>2013-03-30T09:08:42.000Z</time>
      </trkpt>
      <trkpt lat="47.26867" lon="4.97732">
        <ele>366.7</ele>
        <time>2013-03-30T09:08:45.000Z</time>
      </trkpt>
      <trkpt lat="47.26868" lon="4.97734">
        <ele>366.9</ele>
        <time>2013-03-30T09:08:46.000Z</time>
      </trkpt>
      <trkpt lat="47.2687" lon="4.97739">
        <ele>366.8</ele>
        <time>2013-03-30T09:08:49.000Z</time>
      </trkpt>
      <trkpt lat="47.26871" lon="4.97741">
        <ele>366.8</ele>
        <time>2013-03-30T09:08:50.000Z</time>
      </trkpt>
      <trkpt lat="47.26873" lon="4.97745">
        <ele>366.5</ele>
        <time>2013-03-30T09:08:52.000Z</time>
      </trkpt>
      <trkpt lat="47.26874" lon="4.97747">
        <ele>366.6</ele>
        <time>2013-03-30T09:08:53.000Z</time>
      </trkpt>
      <trkpt lat="47.26876" lon="4.97752">
        <ele>367.2</ele>
        <time>2013-03-30T09:08:56.000Z</time>
      </trkpt>
      <trkpt lat="47.26877" lon="4.97754">
        <ele>367.1</ele>
        <time>2013-03-30T09:08:57.000Z</time>
      </trkpt>
      <trkpt lat="47.26879" lon="4.97759">
        <ele>367.1</ele>
        <time>2013-03-30T09:09:00.000Z</time>
      </trkpt>
      <trkpt lat="47.2688" lon="4.97761">
        <ele>367.1</ele>
        <time>2013-03-30T09:09:01.000Z</time>
      </trkpt>
      <trkpt lat="47.26882" lon="4.97764">
        <ele>367</ele>
        <time>2013-03-30T09:09:03.000Z</time>
      </trkpt>
      <trkpt lat="47.26883" lon="4.97766">
        <ele>367.1</ele>
        <time>2013-03-30T09:09:04.000Z</time>
      </trkpt>
      <trkpt lat="47.26885" lon="4.9777">
        <ele>366.9</ele>
        <time>2013-03-30T09:09:06.000Z</time>
      </trkpt>
      <trkpt lat="47.26887" lon="4.97771">
        <ele>366.6</ele>
        <time>2013-03-30T09:09:07.000Z</time>
      </trkpt>
      <trkpt lat="47.2689" lon="4.97771">
        <ele>365.7</ele>
        <time>2013-03-30T09:09:12.000Z</time>
      </trkpt>
      <trkpt lat="47.26891" lon="4.9777">
        <ele>365.5</ele>
        <time>2013-03-30T09:09:13.000Z</time>
      </trkpt>
      <trkpt lat="47.26894" lon="4.97765">
        <ele>366</ele>
        <time>2013-03-30T09:09:17.000Z</time>
      </trkpt>
      <trkpt lat="47.26895" lon="4.97764">
        <ele>366.2</ele>
        <time>2013-03-30T09:09:18.000Z</time>
      </trkpt>
      <trkpt lat="47.26896" lon="4.97754">
        <ele>368.9</ele>
        <time>2013-03-30T09:09:25.000Z</time>
      </trkpt>
      <trkpt lat="47.26899" lon="4.97749">
        <ele>369.7</ele>
        <time>2013-03-30T09:09:28.000Z</time>
      </trkpt>
      <trkpt lat="47.269" lon="4.97748">
        <ele>369.9</ele>
        <time>2013-03-30T09:09:29.000Z</time>
      </trkpt>
      <trkpt lat="47.26903" lon="4.97745">
        <ele>370</ele>
        <time>2013-03-30T09:09:31.000Z</time>
      </trkpt>
      <trkpt lat="47.26905" lon="4.97744">
        <ele>369.1</ele>
        <time>2013-03-30T09:09:32.000Z</time>
      </trkpt>
      <trkpt lat="47.26909" lon="4.97742">
        <ele>368.3</ele>
        <time>2013-03-30T09:09:34.000Z</time>
      </trkpt>
      <trkpt lat="47.26911" lon="4.97741">
        <ele>368.1</ele>
        <time>2013-03-30T09:09:35.000Z</time>
      </trkpt>
      <trkpt lat="47.26914" lon="4.9774">
        <ele>368.1</ele>
        <time>2013-03-30T09:09:37.000Z</time>
      </trkpt>
      <trkpt lat="47.26916" lon="4.9774">
        <ele>368.3</ele>
        <time>2013-03-30T09:09:38.000Z</time>
      </trkpt>
      <trkpt lat="47.26919" lon="4.97739">
        <ele>368.5</ele>
        <time>2013-03-30T09:09:40.000Z</time>
      </trkpt>
      <trkpt lat="47.2692" lon="4.97739">
        <ele>368.6</ele>
        <time>2013-03-30T09:09:41.000Z</time>
      </trkpt>
      <trkpt lat="47.26925" lon="4.97737">
        <ele>368.9</ele>
        <time>2013-03-30T09:09:44.000Z</time>
      </trkpt>
      <trkpt lat="47.26926" lon="4.97737">
        <ele>369.1</ele>
        <time>2013-03-30T09:09:45.000Z</time>
      </trkpt>
      <trkpt lat="47.26929" lon="4.97736">
        <ele>369.2</ele>
        <time>2013-03-30T09:09:47.000Z</time>
      </trkpt>
      <trkpt lat="47.26931" lon="4.97736">
        <ele>369.1</ele>
        <time>2013-03-30T09:09:48.000Z</time>
      </trkpt>
      <trkpt lat="47.26934" lon="4.97734">
        <ele>369.1</ele>
        <time>2013-03-30T09:09:50.000Z</time>
      </trkpt>
      <trkpt lat="47.26935" lon="4.97734">
        <ele>369.2</ele>
        <time>2013-03-30T09:09:51.000Z</time>
      </trkpt>
      <trkpt lat="47.26939" lon="4.97731">
        <ele>369.9</ele>
        <time>2013-03-30T09:09:54.000Z</time>
      </trkpt>
      <trkpt lat="47.2694" lon="4.9773">
        <ele>370</ele>
        <time>2013-03-30T09:09:55.000Z</time>
      </trkpt>
      <trkpt lat="47.26944" lon="4.97727">
        <ele>370.3</ele>
        <time>2013-03-30T09:09:58.000Z</time>
      </trkpt>
      <trkpt lat="47.26945" lon="4.97726">
        <ele>370.3</ele>
        <time>2013-03-30T09:09:59.000Z</time>
      </trkpt>
      <trkpt lat="47.26948" lon="4.97724">
        <ele>370.5</ele>
        <time>2013-03-30T09:10:02.000Z</time>
      </trkpt>
      <trkpt lat="47.2695" lon="4.97723">
        <ele>370.7</ele>
        <time>2013-03-30T09:10:03.000Z</time>
      </trkpt>
      <trkpt lat="47.26953" lon="4.97719">
        <ele>371</ele>
        <time>2013-03-30T09:10:06.000Z</time>
      </trkpt>
      <trkpt lat="47.26954" lon="4.97718">
        <ele>371.2</ele>
        <time>2013-03-30T09:10:07.000Z</time>
      </trkpt>
      <trkpt lat="47.26958" lon="4.97715">
        <ele>371.7</ele>
        <time>2013-03-30T09:10:10.000Z</time>
      </trkpt>
      <trkpt lat="47.26959" lon="4.97714">
        <ele>371.9</ele>
        <time>2013-03-30T09:10:11.000Z</time>
      </trkpt>
      <trkpt lat="47.26963" lon="4.97712">
        <ele>372.6</ele>
        <time>2013-03-30T09:10:14.000Z</time>
      </trkpt>
      <trkpt lat="47.26964" lon="4.97711">
        <ele>372.8</ele>
        <time>2013-03-30T09:10:15.000Z</time>
      </trkpt>
      <trkpt lat="47.26967" lon="4.9771">
        <ele>373</ele>
        <time>2013-03-30T09:10:17.000Z</time>
      </trkpt>
      <trkpt lat="47.26968" lon="4.97709">
        <ele>373</ele>
        <time>2013-03-30T09:10:18.000Z</time>
      </trkpt>
      <trkpt lat="47.26997" lon="4.97704">
        <ele>380.6</ele>
        <time>2013-03-30T09:10:38.000Z</time>
      </trkpt>
      <trkpt lat="47.27001" lon="4.97706">
        <ele>380.1</ele>
        <time>2013-03-30T09:10:40.000Z</time>
      </trkpt>
      <trkpt lat="47.27002" lon="4.97705">
        <ele>380.1</ele>
        <time>2013-03-30T09:10:41.000Z</time>
      </trkpt>
      <trkpt lat="47.27006" lon="4.97705">
        <ele>379.7</ele>
        <time>2013-03-30T09:10:43.000Z</time>
      </trkpt>
      <trkpt lat="47.27007" lon="4.97705">
        <ele>379.9</ele>
        <time>2013-03-30T09:10:44.000Z</time>
      </trkpt>
      <trkpt lat="47.27011" lon="4.97704">
        <ele>380.3</ele>
        <time>2013-03-30T09:10:47.000Z</time>
      </trkpt>
      <trkpt lat="47.27013" lon="4.97704">
        <ele>380.5</ele>
        <time>2013-03-30T09:10:48.000Z</time>
      </trkpt>
      <trkpt lat="47.27017" lon="4.97702">
        <ele>381</ele>
        <time>2013-03-30T09:10:51.000Z</time>
      </trkpt>
      <trkpt lat="47.27018" lon="4.97702">
        <ele>381</ele>
        <time>2013-03-30T09:10:52.000Z</time>
      </trkpt>
      <trkpt lat="47.27021" lon="4.97701">
        <ele>381.2</ele>
        <time>2013-03-30T09:10:54.000Z</time>
      </trkpt>
      <trkpt lat="47.27022" lon="4.977">
        <ele>381.4</ele>
        <time>2013-03-30T09:10:55.000Z</time>
      </trkpt>
      <trkpt lat="47.27025" lon="4.97699">
        <ele>381.4</ele>
        <time>2013-03-30T09:10:57.000Z</time>
      </trkpt>
      <trkpt lat="47.27027" lon="4.97698">
        <ele>381.4</ele>
        <time>2013-03-30T09:10:58.000Z</time>
      </trkpt>
      <trkpt lat="47.27031" lon="4.97696">
        <ele>382.4</ele>
        <time>2013-03-30T09:11:01.000Z</time>
      </trkpt>
      <trkpt lat="47.27032" lon="4.97695">
        <ele>382.7</ele>
        <time>2013-03-30T09:11:02.000Z</time>
      </trkpt>
      <trkpt lat="47.27036" lon="4.97693">
        <ele>383</ele>
        <time>2013-03-30T09:11:05.000Z</time>
      </trkpt>
      <trkpt lat="47.27037" lon="4.97692">
        <ele>383</ele>
        <time>2013-03-30T09:11:06.000Z</time>
      </trkpt>
      <trkpt lat="47.27041" lon="4.9769">
        <ele>383.6</ele>
        <time>2013-03-30T09:11:09.000Z</time>
      </trkpt>
      <trkpt lat="47.27043" lon="4.97689">
        <ele>383.8</ele>
        <time>2013-03-30T09:11:10.000Z</time>
      </trkpt>
      <trkpt lat="47.27046" lon="4.97687">
        <ele>384.4</ele>
        <time>2013-03-30T09:11:13.000Z</time>
      </trkpt>
      <trkpt lat="47.27047" lon="4.97687">
        <ele>384.6</ele>
        <time>2013-03-30T09:11:14.000Z</time>
      </trkpt>
      <trkpt lat="47.2705" lon="4.97685">
        <ele>385.1</ele>
        <time>2013-03-30T09:11:18.000Z</time>
      </trkpt>
      <trkpt lat="47.27047" lon="4.97663">
        <ele>390.4</ele>
        <time>2013-03-30T09:11:25.000Z</time>
      </trkpt>
      <trkpt lat="47.27047" lon="4.97663">
        <ele>390.4</ele>
        <time>2013-03-30T09:12:02.000Z</time>
      </trkpt>
      <trkpt lat="47.2705" lon="4.97669">
        <ele>390.1</ele>
        <time>2013-03-30T09:12:03.000Z</time>
      </trkpt>
      <trkpt lat="47.2705" lon="4.97671">
        <ele>389</ele>
        <time>2013-03-30T09:12:18.000Z</time>
      </trkpt>
      <trkpt lat="47.27049" lon="4.97681">
        <ele>380</ele>
        <time>2013-03-30T09:12:25.000Z</time>
      </trkpt>
      <trkpt lat="47.27052" lon="4.97682">
        <ele>390.4</ele>
        <time>2013-03-30T09:17:42.000Z</time>
      </trkpt>
      <trkpt lat="47.27054" lon="4.97681">
        <ele>390.9</ele>
        <time>2013-03-30T09:17:43.000Z</time>
      </trkpt>
      <trkpt lat="47.27058" lon="4.97681">
        <ele>390.5</ele>
        <time>2013-03-30T09:17:45.000Z</time>
      </trkpt>
      <trkpt lat="47.27059" lon="4.9768">
        <ele>390.4</ele>
        <time>2013-03-30T09:17:46.000Z</time>
      </trkpt>
      <trkpt lat="47.27063" lon="4.97681">
        <ele>390.7</ele>
        <time>2013-03-30T09:17:48.000Z</time>
      </trkpt>
      <trkpt lat="47.27064" lon="4.9768">
        <ele>391.3</ele>
        <time>2013-03-30T09:17:49.000Z</time>
      </trkpt>
      <trkpt lat="47.27068" lon="4.97679">
        <ele>390.9</ele>
        <time>2013-03-30T09:17:52.000Z</time>
      </trkpt>
      <trkpt lat="47.2707" lon="4.97679">
        <ele>390.9</ele>
        <time>2013-03-30T09:17:53.000Z</time>
      </trkpt>
      <trkpt lat="47.27073" lon="4.97678">
        <ele>390.4</ele>
        <time>2013-03-30T09:17:55.000Z</time>
      </trkpt>
      <trkpt lat="47.27075" lon="4.97677">
        <ele>390.5</ele>
        <time>2013-03-30T09:17:56.000Z</time>
      </trkpt>
      <trkpt lat="47.27078" lon="4.97676">
        <ele>391.1</ele>
        <time>2013-03-30T09:17:58.000Z</time>
      </trkpt>
      <trkpt lat="47.27079" lon="4.97676">
        <ele>391.3</ele>
        <time>2013-03-30T09:17:59.000Z</time>
      </trkpt>
      <trkpt lat="47.27083" lon="4.97673">
        <ele>391.7</ele>
        <time>2013-03-30T09:18:01.000Z</time>
      </trkpt>
      <trkpt lat="47.27084" lon="4.97672">
        <ele>391.8</ele>
        <time>2013-03-30T09:18:02.000Z</time>
      </trkpt>
      <trkpt lat="47.27088" lon="4.9767">
        <ele>392.4</ele>
        <time>2013-03-30T09:18:04.000Z</time>
      </trkpt>
      <trkpt lat="47.2709" lon="4.97668">
        <ele>392.9</ele>
        <time>2013-03-30T09:18:05.000Z</time>
      </trkpt>
      <trkpt lat="47.27094" lon="4.97667">
        <ele>393.4</ele>
        <time>2013-03-30T09:18:07.000Z</time>
      </trkpt>
      <trkpt lat="47.27095" lon="4.97666">
        <ele>393.7</ele>
        <time>2013-03-30T09:18:08.000Z</time>
      </trkpt>
      <trkpt lat="47.27099" lon="4.97664">
        <ele>394.4</ele>
        <time>2013-03-30T09:18:11.000Z</time>
      </trkpt>
      <trkpt lat="47.271" lon="4.97664">
        <ele>394.6</ele>
        <time>2013-03-30T09:18:12.000Z</time>
      </trkpt>
      <trkpt lat="47.27103" lon="4.97662">
        <ele>395.1</ele>
        <time>2013-03-30T09:18:14.000Z</time>
      </trkpt>
      <trkpt lat="47.27105" lon="4.97662">
        <ele>395.2</ele>
        <time>2013-03-30T09:18:15.000Z</time>
      </trkpt>
      <trkpt lat="47.27109" lon="4.97661">
        <ele>395.5</ele>
        <time>2013-03-30T09:18:17.000Z</time>
      </trkpt>
      <trkpt lat="47.2711" lon="4.97661">
        <ele>395.7</ele>
        <time>2013-03-30T09:18:18.000Z</time>
      </trkpt>
      <trkpt lat="47.2712" lon="4.97663">
        <ele>409.3</ele>
        <time>2013-03-30T09:18:25.000Z</time>
      </trkpt>
      <trkpt lat="47.27124" lon="4.97662">
        <ele>410.6</ele>
        <time>2013-03-30T09:18:27.000Z</time>
      </trkpt>
      <trkpt lat="47.27126" lon="4.97662">
        <ele>411.6</ele>
        <time>2013-03-30T09:18:28.000Z</time>
      </trkpt>
      <trkpt lat="47.27129" lon="4.9766">
        <ele>412</ele>
        <time>2013-03-30T09:18:30.000Z</time>
      </trkpt>
      <trkpt lat="47.2713" lon="4.97659">
        <ele>412.5</ele>
        <time>2013-03-30T09:18:31.000Z</time>
      </trkpt>
      <trkpt lat="47.27132" lon="4.97656">
        <ele>414</ele>
        <time>2013-03-30T09:18:34.000Z</time>
      </trkpt>
      <trkpt lat="47.27134" lon="4.97655">
        <ele>413.9</ele>
        <time>2013-03-30T09:18:35.000Z</time>
      </trkpt>
      <trkpt lat="47.27138" lon="4.97653">
        <ele>416.1</ele>
        <time>2013-03-30T09:18:38.000Z</time>
      </trkpt>
      <trkpt lat="47.27139" lon="4.97653">
        <ele>416.3</ele>
        <time>2013-03-30T09:18:39.000Z</time>
      </trkpt>
      <trkpt lat="47.27142" lon="4.97651">
        <ele>416</ele>
        <time>2013-03-30T09:18:41.000Z</time>
      </trkpt>
      <trkpt lat="47.27143" lon="4.9765">
        <ele>415.9</ele>
        <time>2013-03-30T09:18:42.000Z</time>
      </trkpt>
      <trkpt lat="47.27145" lon="4.97648">
        <ele>415.9</ele>
        <time>2013-03-30T09:18:44.000Z</time>
      </trkpt>
      <trkpt lat="47.27148" lon="4.97648">
        <ele>415.5</ele>
        <time>2013-03-30T09:18:45.000Z</time>
      </trkpt>
      <trkpt lat="47.27152" lon="4.97646">
        <ele>415.8</ele>
        <time>2013-03-30T09:18:47.000Z</time>
      </trkpt>
      <trkpt lat="47.27154" lon="4.97645">
        <ele>415.8</ele>
        <time>2013-03-30T09:18:48.000Z</time>
      </trkpt>
      <trkpt lat="47.27158" lon="4.97644">
        <ele>415.6</ele>
        <time>2013-03-30T09:18:50.000Z</time>
      </trkpt>
      <trkpt lat="47.27159" lon="4.97643">
        <ele>415</ele>
        <time>2013-03-30T09:18:51.000Z</time>
      </trkpt>
      <trkpt lat="47.27163" lon="4.97642">
        <ele>414.6</ele>
        <time>2013-03-30T09:18:53.000Z</time>
      </trkpt>
      <trkpt lat="47.27165" lon="4.97641">
        <ele>414.6</ele>
        <time>2013-03-30T09:18:54.000Z</time>
      </trkpt>
      <trkpt lat="47.27168" lon="4.9764">
        <ele>414.4</ele>
        <time>2013-03-30T09:18:56.000Z</time>
      </trkpt>
      <trkpt lat="47.2717" lon="4.97639">
        <ele>414.4</ele>
        <time>2013-03-30T09:18:57.000Z</time>
      </trkpt>
      <trkpt lat="47.27173" lon="4.97637">
        <ele>413.8</ele>
        <time>2013-03-30T09:18:59.000Z</time>
      </trkpt>
      <trkpt lat="47.27176" lon="4.97637">
        <ele>413.8</ele>
        <time>2013-03-30T09:19:00.000Z</time>
      </trkpt>
      <trkpt lat="47.27179" lon="4.97636">
        <ele>414.1</ele>
        <time>2013-03-30T09:19:02.000Z</time>
      </trkpt>
      <trkpt lat="47.2718" lon="4.97636">
        <ele>414</ele>
        <time>2013-03-30T09:19:03.000Z</time>
      </trkpt>
      <trkpt lat="47.27184" lon="4.97634">
        <ele>414.3</ele>
        <time>2013-03-30T09:19:05.000Z</time>
      </trkpt>
      <trkpt lat="47.27185" lon="4.97634">
        <ele>414.3</ele>
        <time>2013-03-30T09:19:06.000Z</time>
      </trkpt>
      <trkpt lat="47.27189" lon="4.97632">
        <ele>414.2</ele>
        <time>2013-03-30T09:19:09.000Z</time>
      </trkpt>
      <trkpt lat="47.2719" lon="4.97631">
        <ele>414.4</ele>
        <time>2013-03-30T09:19:10.000Z</time>
      </trkpt>
      <trkpt lat="47.27194" lon="4.97629">
        <ele>415</ele>
        <time>2013-03-30T09:19:13.000Z</time>
      </trkpt>
      <trkpt lat="47.27196" lon="4.97629">
        <ele>414.9</ele>
        <time>2013-03-30T09:19:14.000Z</time>
      </trkpt>
      <trkpt lat="47.27198" lon="4.97627">
        <ele>415.2</ele>
        <time>2013-03-30T09:19:16.000Z</time>
      </trkpt>
      <trkpt lat="47.272" lon="4.97625">
        <ele>415.3</ele>
        <time>2013-03-30T09:19:17.000Z</time>
      </trkpt>
      <trkpt lat="47.27201" lon="4.97624">
        <ele>415.1</ele>
        <time>2013-03-30T09:19:18.000Z</time>
      </trkpt>
      <trkpt lat="47.27213" lon="4.97611">
        <ele>421.4</ele>
        <time>2013-03-30T09:19:25.000Z</time>
      </trkpt>
      <trkpt lat="47.27216" lon="4.97609">
        <ele>421.2</ele>
        <time>2013-03-30T09:19:27.000Z</time>
      </trkpt>
      <trkpt lat="47.27217" lon="4.97608">
        <ele>421.7</ele>
        <time>2013-03-30T09:19:28.000Z</time>
      </trkpt>
      <trkpt lat="47.27221" lon="4.97606">
        <ele>423.4</ele>
        <time>2013-03-30T09:19:31.000Z</time>
      </trkpt>
      <trkpt lat="47.27222" lon="4.97605">
        <ele>424.2</ele>
        <time>2013-03-30T09:19:32.000Z</time>
      </trkpt>
      <trkpt lat="47.27225" lon="4.97602">
        <ele>427.4</ele>
        <time>2013-03-30T09:19:35.000Z</time>
      </trkpt>
      <trkpt lat="47.27226" lon="4.976">
        <ele>428.1</ele>
        <time>2013-03-30T09:19:36.000Z</time>
      </trkpt>
      <trkpt lat="47.27228" lon="4.97597">
        <ele>428.1</ele>
        <time>2013-03-30T09:19:38.000Z</time>
      </trkpt>
      <trkpt lat="47.2723" lon="4.97595">
        <ele>427.5</ele>
        <time>2013-03-30T09:19:39.000Z</time>
      </trkpt>
      <trkpt lat="47.27233" lon="4.97592">
        <ele>427.5</ele>
        <time>2013-03-30T09:19:41.000Z</time>
      </trkpt>
      <trkpt lat="47.27233" lon="4.9759">
        <ele>428.5</ele>
        <time>2013-03-30T09:19:42.000Z</time>
      </trkpt>
      <trkpt lat="47.27237" lon="4.97588">
        <ele>429.7</ele>
        <time>2013-03-30T09:19:44.000Z</time>
      </trkpt>
      <trkpt lat="47.27239" lon="4.97587">
        <ele>429.8</ele>
        <time>2013-03-30T09:19:45.000Z</time>
      </trkpt>
      <trkpt lat="47.27242" lon="4.97584">
        <ele>430.4</ele>
        <time>2013-03-30T09:19:47.000Z</time>
      </trkpt>
      <trkpt lat="47.27243" lon="4.97583">
        <ele>430.7</ele>
        <time>2013-03-30T09:19:48.000Z</time>
      </trkpt>
      <trkpt lat="47.27245" lon="4.97581">
        <ele>430.2</ele>
        <time>2013-03-30T09:19:50.000Z</time>
      </trkpt>
      <trkpt lat="47.27246" lon="4.97579">
        <ele>429.7</ele>
        <time>2013-03-30T09:19:51.000Z</time>
      </trkpt>
      <trkpt lat="47.27249" lon="4.97574">
        <ele>428.9</ele>
        <time>2013-03-30T09:19:54.000Z</time>
      </trkpt>
      <trkpt lat="47.2725" lon="4.97573">
        <ele>428.5</ele>
        <time>2013-03-30T09:19:55.000Z</time>
      </trkpt>
      <trkpt lat="47.27252" lon="4.97569">
        <ele>427.7</ele>
        <time>2013-03-30T09:19:57.000Z</time>
      </trkpt>
      <trkpt lat="47.27253" lon="4.97567">
        <ele>427.5</ele>
        <time>2013-03-30T09:19:58.000Z</time>
      </trkpt>
      <trkpt lat="47.27255" lon="4.97562">
        <ele>427.3</ele>
        <time>2013-03-30T09:20:01.000Z</time>
      </trkpt>
      <trkpt lat="47.27255" lon="4.9756">
        <ele>427.1</ele>
        <time>2013-03-30T09:20:02.000Z</time>
      </trkpt>
      <trkpt lat="47.27257" lon="4.97554">
        <ele>426.2</ele>
        <time>2013-03-30T09:20:05.000Z</time>
      </trkpt>
      <trkpt lat="47.27257" lon="4.97551">
        <ele>426</ele>
        <time>2013-03-30T09:20:06.000Z</time>
      </trkpt>
      <trkpt lat="47.27259" lon="4.97546">
        <ele>426</ele>
        <time>2013-03-30T09:20:09.000Z</time>
      </trkpt>
      <trkpt lat="47.2726" lon="4.97543">
        <ele>425.9</ele>
        <time>2013-03-30T09:20:10.000Z</time>
      </trkpt>
      <trkpt lat="47.27262" lon="4.97537">
        <ele>426.1</ele>
        <time>2013-03-30T09:20:13.000Z</time>
      </trkpt>
      <trkpt lat="47.27262" lon="4.97535">
        <ele>426.1</ele>
        <time>2013-03-30T09:20:14.000Z</time>
      </trkpt>
      <trkpt lat="47.27264" lon="4.97531">
        <ele>426</ele>
        <time>2013-03-30T09:20:16.000Z</time>
      </trkpt>
      <trkpt lat="47.27265" lon="4.97529">
        <ele>426</ele>
        <time>2013-03-30T09:20:17.000Z</time>
      </trkpt>
      <trkpt lat="47.27266" lon="4.97528">
        <ele>426.2</ele>
        <time>2013-03-30T09:20:18.000Z</time>
      </trkpt>
      <trkpt lat="47.27268" lon="4.97511">
        <ele>431.6</ele>
        <time>2013-03-30T09:20:25.000Z</time>
      </trkpt>
      <trkpt lat="47.27269" lon="4.97506">
        <ele>433.2</ele>
        <time>2013-03-30T09:20:29.000Z</time>
      </trkpt>
      <trkpt lat="47.27269" lon="4.97505">
        <ele>434.4</ele>
        <time>2013-03-30T09:20:30.000Z</time>
      </trkpt>
      <trkpt lat="47.2727" lon="4.97499">
        <ele>436.5</ele>
        <time>2013-03-30T09:20:34.000Z</time>
      </trkpt>
      <trkpt lat="47.2727" lon="4.97497">
        <ele>436.8</ele>
        <time>2013-03-30T09:20:35.000Z</time>
      </trkpt>
      <trkpt lat="47.27272" lon="4.97492">
        <ele>437.8</ele>
        <time>2013-03-30T09:20:38.000Z</time>
      </trkpt>
      <trkpt lat="47.27272" lon="4.9749">
        <ele>437.9</ele>
        <time>2013-03-30T09:20:39.000Z</time>
      </trkpt>
      <trkpt lat="47.27274" lon="4.97485">
        <ele>438.9</ele>
        <time>2013-03-30T09:20:42.000Z</time>
      </trkpt>
      <trkpt lat="47.27274" lon="4.97483">
        <ele>439</ele>
        <time>2013-03-30T09:20:43.000Z</time>
      </trkpt>
      <trkpt lat="47.27276" lon="4.97477">
        <ele>441.1</ele>
        <time>2013-03-30T09:20:47.000Z</time>
      </trkpt>
      <trkpt lat="47.27276" lon="4.97476">
        <ele>441.5</ele>
        <time>2013-03-30T09:20:48.000Z</time>
      </trkpt>
      <trkpt lat="47.27278" lon="4.97471">
        <ele>441.3</ele>
        <time>2013-03-30T09:20:51.000Z</time>
      </trkpt>
      <trkpt lat="47.27279" lon="4.97469">
        <ele>441.2</ele>
        <time>2013-03-30T09:20:52.000Z</time>
      </trkpt>
      <trkpt lat="47.27281" lon="4.97464">
        <ele>441.2</ele>
        <time>2013-03-30T09:20:55.000Z</time>
      </trkpt>
      <trkpt lat="47.27281" lon="4.97462">
        <ele>441.2</ele>
        <time>2013-03-30T09:20:56.000Z</time>
      </trkpt>
      <trkpt lat="47.27284" lon="4.97457">
        <ele>440.9</ele>
        <time>2013-03-30T09:20:59.000Z</time>
      </trkpt>
      <trkpt lat="47.27285" lon="4.97455">
        <ele>440.8</ele>
        <time>2013-03-30T09:21:00.000Z</time>
      </trkpt>
      <trkpt lat="47.27286" lon="4.97449">
        <ele>440.4</ele>
        <time>2013-03-30T09:21:03.000Z</time>
      </trkpt>
      <trkpt lat="47.27287" lon="4.97447">
        <ele>440.4</ele>
        <time>2013-03-30T09:21:04.000Z</time>
      </trkpt>
      <trkpt lat="47.27288" lon="4.97442">
        <ele>440.6</ele>
        <time>2013-03-30T09:21:07.000Z</time>
      </trkpt>
      <trkpt lat="47.27289" lon="4.9744">
        <ele>440.8</ele>
        <time>2013-03-30T09:21:08.000Z</time>
      </trkpt>
      <trkpt lat="47.27289" lon="4.97435">
        <ele>441.2</ele>
        <time>2013-03-30T09:21:11.000Z</time>
      </trkpt>
      <trkpt lat="47.2729" lon="4.97433">
        <ele>441.5</ele>
        <time>2013-03-30T09:21:12.000Z</time>
      </trkpt>
      <trkpt lat="47.27292" lon="4.97427">
        <ele>442.1</ele>
        <time>2013-03-30T09:21:16.000Z</time>
      </trkpt>
      <trkpt lat="47.27292" lon="4.97425">
        <ele>442.3</ele>
        <time>2013-03-30T09:21:17.000Z</time>
      </trkpt>
      <trkpt lat="47.27293" lon="4.97424">
        <ele>442.3</ele>
        <time>2013-03-30T09:21:18.000Z</time>
      </trkpt>
      <trkpt lat="47.27299" lon="4.97407">
        <ele>440.3</ele>
        <time>2013-03-30T09:21:25.000Z</time>
      </trkpt>
      <trkpt lat="47.273" lon="4.97402">
        <ele>448.8</ele>
        <time>2013-03-30T09:21:32.000Z</time>
      </trkpt>
      <trkpt lat="47.273" lon="4.974">
        <ele>449.5</ele>
        <time>2013-03-30T09:21:33.000Z</time>
      </trkpt>
      <trkpt lat="47.27299" lon="4.97395">
        <ele>453.1</ele>
        <time>2013-03-30T09:21:37.000Z</time>
      </trkpt>
      <trkpt lat="47.27299" lon="4.97394">
        <ele>454</ele>
        <time>2013-03-30T09:21:38.000Z</time>
      </trkpt>
      <trkpt lat="47.27301" lon="4.97388">
        <ele>456.8</ele>
        <time>2013-03-30T09:21:42.000Z</time>
      </trkpt>
      <trkpt lat="47.27301" lon="4.97387">
        <ele>457.4</ele>
        <time>2013-03-30T09:21:43.000Z</time>
      </trkpt>
      <trkpt lat="47.27302" lon="4.97382">
        <ele>458.8</ele>
        <time>2013-03-30T09:21:46.000Z</time>
      </trkpt>
      <trkpt lat="47.27302" lon="4.9738">
        <ele>459.2</ele>
        <time>2013-03-30T09:21:47.000Z</time>
      </trkpt>
      <trkpt lat="47.27303" lon="4.97374">
        <ele>460</ele>
        <time>2013-03-30T09:21:51.000Z</time>
      </trkpt>
      <trkpt lat="47.27303" lon="4.97372">
        <ele>460</ele>
        <time>2013-03-30T09:21:52.000Z</time>
      </trkpt>
      <trkpt lat="47.27305" lon="4.97367">
        <ele>459.6</ele>
        <time>2013-03-30T09:21:55.000Z</time>
      </trkpt>
      <trkpt lat="47.27305" lon="4.97365">
        <ele>459.8</ele>
        <time>2013-03-30T09:21:56.000Z</time>
      </trkpt>
      <trkpt lat="47.27307" lon="4.9736">
        <ele>460.3</ele>
        <time>2013-03-30T09:22:00.000Z</time>
      </trkpt>
      <trkpt lat="47.27307" lon="4.97358">
        <ele>460.3</ele>
        <time>2013-03-30T09:22:01.000Z</time>
      </trkpt>
      <trkpt lat="47.27308" lon="4.97352">
        <ele>460.7</ele>
        <time>2013-03-30T09:22:04.000Z</time>
      </trkpt>
      <trkpt lat="47.27309" lon="4.97351">
        <ele>460.8</ele>
        <time>2013-03-30T09:22:05.000Z</time>
      </trkpt>
      <trkpt lat="47.27311" lon="4.97345">
        <ele>461.2</ele>
        <time>2013-03-30T09:22:09.000Z</time>
      </trkpt>
      <trkpt lat="47.27311" lon="4.97344">
        <ele>461.5</ele>
        <time>2013-03-30T09:22:10.000Z</time>
      </trkpt>
      <trkpt lat="47.27313" lon="4.97339">
        <ele>462.4</ele>
        <time>2013-03-30T09:22:14.000Z</time>
      </trkpt>
      <trkpt lat="47.27314" lon="4.97338">
        <ele>463</ele>
        <time>2013-03-30T09:22:15.000Z</time>
      </trkpt>
      <trkpt lat="47.27315" lon="4.97332">
        <ele>463.5</ele>
        <time>2013-03-30T09:22:18.000Z</time>
      </trkpt>
      <trkpt lat="47.27322" lon="4.97312">
        <ele>468.5</ele>
        <time>2013-03-30T09:22:27.000Z</time>
      </trkpt>
      <trkpt lat="47.27323" lon="4.97306">
        <ele>467.4</ele>
        <time>2013-03-30T09:22:34.000Z</time>
      </trkpt>
      <trkpt lat="47.27323" lon="4.97305">
        <ele>468</ele>
        <time>2013-03-30T09:22:35.000Z</time>
      </trkpt>
      <trkpt lat="47.27324" lon="4.97301">
        <ele>468.1</ele>
        <time>2013-03-30T09:22:43.000Z</time>
      </trkpt>
      <trkpt lat="47.27324" lon="4.97297">
        <ele>470.1</ele>
        <time>2013-03-30T09:22:44.000Z</time>
      </trkpt>
      <trkpt lat="47.27325" lon="4.97292">
        <ele>468.5</ele>
        <time>2013-03-30T09:22:48.000Z</time>
      </trkpt>
      <trkpt lat="47.27325" lon="4.9729">
        <ele>469.1</ele>
        <time>2013-03-30T09:22:49.000Z</time>
      </trkpt>
      <trkpt lat="47.27328" lon="4.97285">
        <ele>469.5</ele>
        <time>2013-03-30T09:22:53.000Z</time>
      </trkpt>
      <trkpt lat="47.27328" lon="4.97284">
        <ele>470</ele>
        <time>2013-03-30T09:22:54.000Z</time>
      </trkpt>
      <trkpt lat="47.2733" lon="4.97278">
        <ele>470.3</ele>
        <time>2013-03-30T09:22:57.000Z</time>
      </trkpt>
      <trkpt lat="47.2733" lon="4.97277">
        <ele>470.5</ele>
        <time>2013-03-30T09:22:58.000Z</time>
      </trkpt>
      <trkpt lat="47.27333" lon="4.97272">
        <ele>470.6</ele>
        <time>2013-03-30T09:23:01.000Z</time>
      </trkpt>
      <trkpt lat="47.27334" lon="4.97271">
        <ele>470.5</ele>
        <time>2013-03-30T09:23:02.000Z</time>
      </trkpt>
      <trkpt lat="47.27335" lon="4.97265">
        <ele>470.5</ele>
        <time>2013-03-30T09:23:06.000Z</time>
      </trkpt>
      <trkpt lat="47.27335" lon="4.97264">
        <ele>470.6</ele>
        <time>2013-03-30T09:23:07.000Z</time>
      </trkpt>
      <trkpt lat="47.27337" lon="4.97258">
        <ele>471.5</ele>
        <time>2013-03-30T09:23:11.000Z</time>
      </trkpt>
      <trkpt lat="47.27338" lon="4.97257">
        <ele>471.6</ele>
        <time>2013-03-30T09:23:12.000Z</time>
      </trkpt>
      <trkpt lat="47.27339" lon="4.97253">
        <ele>472.3</ele>
        <time>2013-03-30T09:23:15.000Z</time>
      </trkpt>
      <trkpt lat="47.2734" lon="4.97251">
        <ele>472.1</ele>
        <time>2013-03-30T09:23:16.000Z</time>
      </trkpt>
      <trkpt lat="47.27341" lon="4.97247">
        <ele>472.2</ele>
        <time>2013-03-30T09:23:18.000Z</time>
      </trkpt>
      <trkpt lat="47.27343" lon="4.97232">
        <ele>473.6</ele>
        <time>2013-03-30T09:23:25.000Z</time>
      </trkpt>
      <trkpt lat="47.27343" lon="4.97226">
        <ele>475.3</ele>
        <time>2013-03-30T09:23:29.000Z</time>
      </trkpt>
      <trkpt lat="47.27344" lon="4.97224">
        <ele>475.5</ele>
        <time>2013-03-30T09:23:30.000Z</time>
      </trkpt>
      <trkpt lat="47.27345" lon="4.97218">
        <ele>476.1</ele>
        <time>2013-03-30T09:23:33.000Z</time>
      </trkpt>
      <trkpt lat="47.27346" lon="4.97217">
        <ele>476.6</ele>
        <time>2013-03-30T09:23:34.000Z</time>
      </trkpt>
      <trkpt lat="47.27347" lon="4.97213">
        <ele>478.4</ele>
        <time>2013-03-30T09:23:37.000Z</time>
      </trkpt>
      <trkpt lat="47.27347" lon="4.9721">
        <ele>477.8</ele>
        <time>2013-03-30T09:23:38.000Z</time>
      </trkpt>
      <trkpt lat="47.27348" lon="4.97205">
        <ele>478.4</ele>
        <time>2013-03-30T09:23:41.000Z</time>
      </trkpt>
      <trkpt lat="47.27349" lon="4.97204">
        <ele>478.7</ele>
        <time>2013-03-30T09:23:42.000Z</time>
      </trkpt>
      <trkpt lat="47.2735" lon="4.97198">
        <ele>480.1</ele>
        <time>2013-03-30T09:23:46.000Z</time>
      </trkpt>
      <trkpt lat="47.27351" lon="4.97197">
        <ele>480.3</ele>
        <time>2013-03-30T09:23:47.000Z</time>
      </trkpt>
      <trkpt lat="47.27352" lon="4.97192">
        <ele>480.3</ele>
        <time>2013-03-30T09:23:50.000Z</time>
      </trkpt>
      <trkpt lat="47.27353" lon="4.9719">
        <ele>479.7</ele>
        <time>2013-03-30T09:23:51.000Z</time>
      </trkpt>
      <trkpt lat="47.27355" lon="4.97184">
        <ele>479.4</ele>
        <time>2013-03-30T09:23:54.000Z</time>
      </trkpt>
      <trkpt lat="47.27355" lon="4.97183">
        <ele>479.5</ele>
        <time>2013-03-30T09:23:55.000Z</time>
      </trkpt>
      <trkpt lat="47.27358" lon="4.97178">
        <ele>479.3</ele>
        <time>2013-03-30T09:23:58.000Z</time>
      </trkpt>
      <trkpt lat="47.27358" lon="4.97176">
        <ele>479.5</ele>
        <time>2013-03-30T09:23:59.000Z</time>
      </trkpt>
      <trkpt lat="47.2736" lon="4.97172">
        <ele>479.8</ele>
        <time>2013-03-30T09:24:03.000Z</time>
      </trkpt>
      <trkpt lat="47.27361" lon="4.9717">
        <ele>479.9</ele>
        <time>2013-03-30T09:24:04.000Z</time>
      </trkpt>
      <trkpt lat="47.27362" lon="4.97166">
        <ele>480.2</ele>
        <time>2013-03-30T09:24:06.000Z</time>
      </trkpt>
      <trkpt lat="47.27363" lon="4.97164">
        <ele>480.2</ele>
        <time>2013-03-30T09:24:07.000Z</time>
      </trkpt>
      <trkpt lat="47.27364" lon="4.9716">
        <ele>480.3</ele>
        <time>2013-03-30T09:24:09.000Z</time>
      </trkpt>
      <trkpt lat="47.27364" lon="4.97158">
        <ele>480.4</ele>
        <time>2013-03-30T09:24:10.000Z</time>
      </trkpt>
      <trkpt lat="47.27365" lon="4.97153">
        <ele>480.6</ele>
        <time>2013-03-30T09:24:12.000Z</time>
      </trkpt>
      <trkpt lat="47.27366" lon="4.97151">
        <ele>480.5</ele>
        <time>2013-03-30T09:24:13.000Z</time>
      </trkpt>
      <trkpt lat="47.27367" lon="4.97145">
        <ele>480.9</ele>
        <time>2013-03-30T09:24:16.000Z</time>
      </trkpt>
      <trkpt lat="47.27368" lon="4.97144">
        <ele>481.1</ele>
        <time>2013-03-30T09:24:17.000Z</time>
      </trkpt>
      <trkpt lat="47.27368" lon="4.97142">
        <ele>481.3</ele>
        <time>2013-03-30T09:24:18.000Z</time>
      </trkpt>
      <trkpt lat="47.2737" lon="4.97127">
        <ele>484.6</ele>
        <time>2013-03-30T09:24:25.000Z</time>
      </trkpt>
      <trkpt lat="47.2737" lon="4.97122">
        <ele>490.6</ele>
        <time>2013-03-30T09:24:29.000Z</time>
      </trkpt>
      <trkpt lat="47.27371" lon="4.9712">
        <ele>491.5</ele>
        <time>2013-03-30T09:24:30.000Z</time>
      </trkpt>
      <trkpt lat="47.27372" lon="4.97114">
        <ele>491.8</ele>
        <time>2013-03-30T09:24:33.000Z</time>
      </trkpt>
      <trkpt lat="47.27372" lon="4.97113">
        <ele>493</ele>
        <time>2013-03-30T09:24:34.000Z</time>
      </trkpt>
      <trkpt lat="47.27374" lon="4.97108">
        <ele>492.9</ele>
        <time>2013-03-30T09:24:37.000Z</time>
      </trkpt>
      <trkpt lat="47.27375" lon="4.97106">
        <ele>492.7</ele>
        <time>2013-03-30T09:24:38.000Z</time>
      </trkpt>
      <trkpt lat="47.27376" lon="4.97101">
        <ele>494.1</ele>
        <time>2013-03-30T09:24:41.000Z</time>
      </trkpt>
      <trkpt lat="47.27377" lon="4.97099">
        <ele>494</ele>
        <time>2013-03-30T09:24:42.000Z</time>
      </trkpt>
      <trkpt lat="47.27378" lon="4.97094">
        <ele>494</ele>
        <time>2013-03-30T09:24:44.000Z</time>
      </trkpt>
      <trkpt lat="47.27378" lon="4.97092">
        <ele>493.9</ele>
        <time>2013-03-30T09:24:45.000Z</time>
      </trkpt>
      <trkpt lat="47.2738" lon="4.97087">
        <ele>494.5</ele>
        <time>2013-03-30T09:24:48.000Z</time>
      </trkpt>
      <trkpt lat="47.2738" lon="4.97086">
        <ele>494.9</ele>
        <time>2013-03-30T09:24:49.000Z</time>
      </trkpt>
      <trkpt lat="47.27381" lon="4.9708">
        <ele>494</ele>
        <time>2013-03-30T09:24:52.000Z</time>
      </trkpt>
      <trkpt lat="47.27382" lon="4.97078">
        <ele>493.9</ele>
        <time>2013-03-30T09:24:53.000Z</time>
      </trkpt>
      <trkpt lat="47.27384" lon="4.97075">
        <ele>492.6</ele>
        <time>2013-03-30T09:25:00.000Z</time>
      </trkpt>
      <trkpt lat="47.27385" lon="4.97072">
        <ele>491.3</ele>
        <time>2013-03-30T09:25:01.000Z</time>
      </trkpt>
      <trkpt lat="47.27386" lon="4.97068">
        <ele>490.8</ele>
        <time>2013-03-30T09:25:04.000Z</time>
      </trkpt>
      <trkpt lat="47.27387" lon="4.97066">
        <ele>490.6</ele>
        <time>2013-03-30T09:25:05.000Z</time>
      </trkpt>
      <trkpt lat="47.27389" lon="4.9706">
        <ele>490.2</ele>
        <time>2013-03-30T09:25:08.000Z</time>
      </trkpt>
      <trkpt lat="47.2739" lon="4.97059">
        <ele>490.4</ele>
        <time>2013-03-30T09:25:09.000Z</time>
      </trkpt>
      <trkpt lat="47.27391" lon="4.97055">
        <ele>490.6</ele>
        <time>2013-03-30T09:25:11.000Z</time>
      </trkpt>
      <trkpt lat="47.27391" lon="4.97052">
        <ele>490.5</ele>
        <time>2013-03-30T09:25:12.000Z</time>
      </trkpt>
      <trkpt lat="47.27393" lon="4.97046">
        <ele>490.3</ele>
        <time>2013-03-30T09:25:15.000Z</time>
      </trkpt>
      <trkpt lat="47.27393" lon="4.97045">
        <ele>490.1</ele>
        <time>2013-03-30T09:25:16.000Z</time>
      </trkpt>
      <trkpt lat="47.27395" lon="4.97041">
        <ele>490.1</ele>
        <time>2013-03-30T09:25:18.000Z</time>
      </trkpt>
      <trkpt lat="47.27437" lon="4.96861">
        <ele>494.9</ele>
        <time>2013-03-30T09:26:35.000Z</time>
      </trkpt>
      <trkpt lat="47.27439" lon="4.96865">
        <ele>491.2</ele>
        <time>2013-03-30T09:27:54.000Z</time>
      </trkpt>
      <trkpt lat="47.27438" lon="4.96867">
        <ele>491.5</ele>
        <time>2013-03-30T09:27:55.000Z</time>
      </trkpt>
      <trkpt lat="47.27437" lon="4.96871">
        <ele>492.2</ele>
        <time>2013-03-30T09:27:57.000Z</time>
      </trkpt>
      <trkpt lat="47.27437" lon="4.96873">
        <ele>492.5</ele>
        <time>2013-03-30T09:27:58.000Z</time>
      </trkpt>
      <trkpt lat="47.27436" lon="4.96879">
        <ele>492.5</ele>
        <time>2013-03-30T09:28:00.000Z</time>
      </trkpt>
      <trkpt lat="47.27435" lon="4.96881">
        <ele>492.6</ele>
        <time>2013-03-30T09:28:01.000Z</time>
      </trkpt>
      <trkpt lat="47.27434" lon="4.96886">
        <ele>492.9</ele>
        <time>2013-03-30T09:28:03.000Z</time>
      </trkpt>
      <trkpt lat="47.27433" lon="4.96889">
        <ele>493.1</ele>
        <time>2013-03-30T09:28:04.000Z</time>
      </trkpt>
      <trkpt lat="47.27431" lon="4.96894">
        <ele>493.7</ele>
        <time>2013-03-30T09:28:07.000Z</time>
      </trkpt>
      <trkpt lat="47.27431" lon="4.96896">
        <ele>494.1</ele>
        <time>2013-03-30T09:28:08.000Z</time>
      </trkpt>
      <trkpt lat="47.27429" lon="4.96902">
        <ele>494.9</ele>
        <time>2013-03-30T09:28:11.000Z</time>
      </trkpt>
      <trkpt lat="47.27429" lon="4.96903">
        <ele>494.9</ele>
        <time>2013-03-30T09:28:12.000Z</time>
      </trkpt>
      <trkpt lat="47.27428" lon="4.96908">
        <ele>495.2</ele>
        <time>2013-03-30T09:28:14.000Z</time>
      </trkpt>
      <trkpt lat="47.27427" lon="4.9691">
        <ele>495.5</ele>
        <time>2013-03-30T09:28:15.000Z</time>
      </trkpt>
      <trkpt lat="47.27426" lon="4.96914">
        <ele>495.6</ele>
        <time>2013-03-30T09:28:17.000Z</time>
      </trkpt>
      <trkpt lat="47.27425" lon="4.96916">
        <ele>495.3</ele>
        <time>2013-03-30T09:28:18.000Z</time>
      </trkpt>
      <trkpt lat="47.27393" lon="4.97061">
        <ele>486.2</ele>
        <time>2013-03-30T09:29:25.000Z</time>
      </trkpt>
      <trkpt lat="47.2739" lon="4.97066">
        <ele>479.8</ele>
        <time>2013-03-30T09:29:33.000Z</time>
      </trkpt>
      <trkpt lat="47.2739" lon="4.97067">
        <ele>479.6</ele>
        <time>2013-03-30T09:29:34.000Z</time>
      </trkpt>
      <trkpt lat="47.27394" lon="4.9707">
        <ele>483</ele>
        <time>2013-03-30T09:30:14.000Z</time>
      </trkpt>
      <trkpt lat="47.27394" lon="4.9707">
        <ele>483.2</ele>
        <time>2013-03-30T09:30:15.000Z</time>
      </trkpt>
      <trkpt lat="47.27397" lon="4.97072">
        <ele>483.8</ele>
        <time>2013-03-30T09:30:18.000Z</time>
      </trkpt>
      <trkpt lat="47.27405" lon="4.97079">
        <ele>487.1</ele>
        <time>2013-03-30T09:30:25.000Z</time>
      </trkpt>
      <trkpt lat="47.27409" lon="4.9708">
        <ele>490</ele>
        <time>2013-03-30T09:30:29.000Z</time>
      </trkpt>
      <trkpt lat="47.2741" lon="4.97081">
        <ele>491.4</ele>
        <time>2013-03-30T09:30:30.000Z</time>
      </trkpt>
      <trkpt lat="47.27413" lon="4.97082">
        <ele>487.1</ele>
        <time>2013-03-30T09:30:33.000Z</time>
      </trkpt>
      <trkpt lat="47.27415" lon="4.97084">
        <ele>487.3</ele>
        <time>2013-03-30T09:30:34.000Z</time>
      </trkpt>
      <trkpt lat="47.27418" lon="4.97085">
        <ele>487.4</ele>
        <time>2013-03-30T09:30:36.000Z</time>
      </trkpt>
      <trkpt lat="47.2742" lon="4.97085">
        <ele>486.6</ele>
        <time>2013-03-30T09:30:37.000Z</time>
      </trkpt>
      <trkpt lat="47.27424" lon="4.97085">
        <ele>485.4</ele>
        <time>2013-03-30T09:30:40.000Z</time>
      </trkpt>
      <trkpt lat="47.27425" lon="4.97086">
        <ele>486</ele>
        <time>2013-03-30T09:30:41.000Z</time>
      </trkpt>
      <trkpt lat="47.27429" lon="4.97087">
        <ele>487.6</ele>
        <time>2013-03-30T09:30:43.000Z</time>
      </trkpt>
      <trkpt lat="47.2743" lon="4.97089">
        <ele>488.4</ele>
        <time>2013-03-30T09:30:44.000Z</time>
      </trkpt>
      <trkpt lat="47.27432" lon="4.97091">
        <ele>489.3</ele>
        <time>2013-03-30T09:30:46.000Z</time>
      </trkpt>
      <trkpt lat="47.27434" lon="4.97092">
        <ele>488.8</ele>
        <time>2013-03-30T09:30:47.000Z</time>
      </trkpt>
      <trkpt lat="47.27438" lon="4.97094">
        <ele>488.5</ele>
        <time>2013-03-30T09:30:49.000Z</time>
      </trkpt>
      <trkpt lat="47.27439" lon="4.97094">
        <ele>487</ele>
        <time>2013-03-30T09:30:50.000Z</time>
      </trkpt>
      <trkpt lat="47.27442" lon="4.97097">
        <ele>486.6</ele>
        <time>2013-03-30T09:30:52.000Z</time>
      </trkpt>
      <trkpt lat="47.27444" lon="4.97099">
        <ele>486.8</ele>
        <time>2013-03-30T09:30:53.000Z</time>
      </trkpt>
      <trkpt lat="47.27447" lon="4.97102">
        <ele>487.6</ele>
        <time>2013-03-30T09:30:55.000Z</time>
      </trkpt>
      <trkpt lat="47.27449" lon="4.97103">
        <ele>487.6</ele>
        <time>2013-03-30T09:30:56.000Z</time>
      </trkpt>
      <trkpt lat="47.27453" lon="4.97105">
        <ele>487.4</ele>
        <time>2013-03-30T09:30:58.000Z</time>
      </trkpt>
      <trkpt lat="47.27455" lon="4.97106">
        <ele>487</ele>
        <time>2013-03-30T09:30:59.000Z</time>
      </trkpt>
      <trkpt lat="47.27457" lon="4.97109">
        <ele>486.3</ele>
        <time>2013-03-30T09:31:01.000Z</time>
      </trkpt>
      <trkpt lat="47.27459" lon="4.9711">
        <ele>485.7</ele>
        <time>2013-03-30T09:31:02.000Z</time>
      </trkpt>
      <trkpt lat="47.27462" lon="4.97111">
        <ele>485</ele>
        <time>2013-03-30T09:31:04.000Z</time>
      </trkpt>
      <trkpt lat="47.27464" lon="4.97112">
        <ele>485</ele>
        <time>2013-03-30T09:31:05.000Z</time>
      </trkpt>
      <trkpt lat="47.27467" lon="4.97114">
        <ele>484.3</ele>
        <time>2013-03-30T09:31:07.000Z</time>
      </trkpt>
      <trkpt lat="47.27469" lon="4.97115">
        <ele>484.1</ele>
        <time>2013-03-30T09:31:08.000Z</time>
      </trkpt>
      <trkpt lat="47.27472" lon="4.97116">
        <ele>483.2</ele>
        <time>2013-03-30T09:31:10.000Z</time>
      </trkpt>
      <trkpt lat="47.27473" lon="4.97117">
        <ele>483.3</ele>
        <time>2013-03-30T09:31:11.000Z</time>
      </trkpt>
      <trkpt lat="47.27477" lon="4.97118">
        <ele>483.5</ele>
        <time>2013-03-30T09:31:13.000Z</time>
      </trkpt>
      <trkpt lat="47.27479" lon="4.97119">
        <ele>483.4</ele>
        <time>2013-03-30T09:31:14.000Z</time>
      </trkpt>
      <trkpt lat="47.27483" lon="4.97121">
        <ele>483.1</ele>
        <time>2013-03-30T09:31:17.000Z</time>
      </trkpt>
      <trkpt lat="47.27485" lon="4.97122">
        <ele>483</ele>
        <time>2013-03-30T09:31:18.000Z</time>
      </trkpt>
      <trkpt lat="47.27503" lon="4.97131">
        <ele>471.1</ele>
        <time>2013-03-30T09:31:25.000Z</time>
      </trkpt>
      <trkpt lat="47.27506" lon="4.97134">
        <ele>474</ele>
        <time>2013-03-30T09:31:28.000Z</time>
      </trkpt>
      <trkpt lat="47.27508" lon="4.97134">
        <ele>474.4</ele>
        <time>2013-03-30T09:31:29.000Z</time>
      </trkpt>
      <trkpt lat="47.27511" lon="4.97136">
        <ele>475.3</ele>
        <time>2013-03-30T09:31:31.000Z</time>
      </trkpt>
      <trkpt lat="47.27512" lon="4.97137">
        <ele>474.9</ele>
        <time>2013-03-30T09:31:32.000Z</time>
      </trkpt>
      <trkpt lat="47.27515" lon="4.9714">
        <ele>477.2</ele>
        <time>2013-03-30T09:31:35.000Z</time>
      </trkpt>
      <trkpt lat="47.27516" lon="4.97141">
        <ele>478.5</ele>
        <time>2013-03-30T09:31:36.000Z</time>
      </trkpt>
      <trkpt lat="47.2752" lon="4.97144">
        <ele>478.2</ele>
        <time>2013-03-30T09:31:38.000Z</time>
      </trkpt>
      <trkpt lat="47.27521" lon="4.97145">
        <ele>477.7</ele>
        <time>2013-03-30T09:31:39.000Z</time>
      </trkpt>
      <trkpt lat="47.27524" lon="4.97146">
        <ele>476.9</ele>
        <time>2013-03-30T09:31:41.000Z</time>
      </trkpt>
      <trkpt lat="47.27526" lon="4.97146">
        <ele>476.8</ele>
        <time>2013-03-30T09:31:42.000Z</time>
      </trkpt>
      <trkpt lat="47.27529" lon="4.97148">
        <ele>477</ele>
        <time>2013-03-30T09:31:44.000Z</time>
      </trkpt>
      <trkpt lat="47.27531" lon="4.97148">
        <ele>476.6</ele>
        <time>2013-03-30T09:31:45.000Z</time>
      </trkpt>
      <trkpt lat="47.27534" lon="4.9715">
        <ele>477.2</ele>
        <time>2013-03-30T09:31:47.000Z</time>
      </trkpt>
      <trkpt lat="47.27535" lon="4.97152">
        <ele>477.3</ele>
        <time>2013-03-30T09:31:48.000Z</time>
      </trkpt>
      <trkpt lat="47.27539" lon="4.97153">
        <ele>477.1</ele>
        <time>2013-03-30T09:31:50.000Z</time>
      </trkpt>
      <trkpt lat="47.2754" lon="4.97153">
        <ele>477.7</ele>
        <time>2013-03-30T09:31:51.000Z</time>
      </trkpt>
      <trkpt lat="47.27543" lon="4.97157">
        <ele>478.2</ele>
        <time>2013-03-30T09:31:55.000Z</time>
      </trkpt>
      <trkpt lat="47.27544" lon="4.97157">
        <ele>478.3</ele>
        <time>2013-03-30T09:31:56.000Z</time>
      </trkpt>
      <trkpt lat="47.27547" lon="4.97157">
        <ele>477.7</ele>
        <time>2013-03-30T09:31:58.000Z</time>
      </trkpt>
      <trkpt lat="47.27549" lon="4.97158">
        <ele>477.8</ele>
        <time>2013-03-30T09:31:59.000Z</time>
      </trkpt>
      <trkpt lat="47.27552" lon="4.97159">
        <ele>477.5</ele>
        <time>2013-03-30T09:32:01.000Z</time>
      </trkpt>
      <trkpt lat="47.27553" lon="4.9716">
        <ele>477.3</ele>
        <time>2013-03-30T09:32:02.000Z</time>
      </trkpt>
      <trkpt lat="47.27556" lon="4.97161">
        <ele>477.2</ele>
        <time>2013-03-30T09:32:04.000Z</time>
      </trkpt>
      <trkpt lat="47.27558" lon="4.97162">
        <ele>476.9</ele>
        <time>2013-03-30T09:32:05.000Z</time>
      </trkpt>
      <trkpt lat="47.27562" lon="4.97165">
        <ele>476.6</ele>
        <time>2013-03-30T09:32:08.000Z</time>
      </trkpt>
      <trkpt lat="47.27563" lon="4.97166">
        <ele>476.6</ele>
        <time>2013-03-30T09:32:09.000Z</time>
      </trkpt>
      <trkpt lat="47.27566" lon="4.97168">
        <ele>476.6</ele>
        <time>2013-03-30T09:32:11.000Z</time>
      </trkpt>
      <trkpt lat="47.27568" lon="4.97169">
        <ele>476.7</ele>
        <time>2013-03-30T09:32:12.000Z</time>
      </trkpt>
      <trkpt lat="47.27571" lon="4.97172">
        <ele>476.6</ele>
        <time>2013-03-30T09:32:14.000Z</time>
      </trkpt>
      <trkpt lat="47.27572" lon="4.97173">
        <ele>476.4</ele>
        <time>2013-03-30T09:32:15.000Z</time>
      </trkpt>
      <trkpt lat="47.27575" lon="4.97174">
        <ele>476.3</ele>
        <time>2013-03-30T09:32:17.000Z</time>
      </trkpt>
      <trkpt lat="47.27577" lon="4.97175">
        <ele>476.1</ele>
        <time>2013-03-30T09:32:18.000Z</time>
      </trkpt>
      <trkpt lat="47.27593" lon="4.97183">
        <ele>469.4</ele>
        <time>2013-03-30T09:32:25.000Z</time>
      </trkpt>
      <trkpt lat="47.27597" lon="4.97186">
        <ele>472.5</ele>
        <time>2013-03-30T09:32:28.000Z</time>
      </trkpt>
      <trkpt lat="47.27598" lon="4.97186">
        <ele>473</ele>
        <time>2013-03-30T09:32:29.000Z</time>
      </trkpt>
      <trkpt lat="47.27601" lon="4.97188">
        <ele>474.9</ele>
        <time>2013-03-30T09:32:31.000Z</time>
      </trkpt>
      <trkpt lat="47.27604" lon="4.97189">
        <ele>474.3</ele>
        <time>2013-03-30T09:32:32.000Z</time>
      </trkpt>
      <trkpt lat="47.27608" lon="4.97191">
        <ele>475.9</ele>
        <time>2013-03-30T09:32:34.000Z</time>
      </trkpt>
      <trkpt lat="47.27609" lon="4.97192">
        <ele>475.3</ele>
        <time>2013-03-30T09:32:35.000Z</time>
      </trkpt>
      <trkpt lat="47.27613" lon="4.97195">
        <ele>476.1</ele>
        <time>2013-03-30T09:32:38.000Z</time>
      </trkpt>
      <trkpt lat="47.27613" lon="4.97196">
        <ele>475.2</ele>
        <time>2013-03-30T09:32:39.000Z</time>
      </trkpt>
      <trkpt lat="47.27616" lon="4.972">
        <ele>465.8</ele>
        <time>2013-03-30T09:32:43.000Z</time>
      </trkpt>
      <trkpt lat="47.27616" lon="4.97202">
        <ele>465.4</ele>
        <time>2013-03-30T09:32:44.000Z</time>
      </trkpt>
      <trkpt lat="47.27614" lon="4.97206">
        <ele>464.5</ele>
        <time>2013-03-30T09:32:47.000Z</time>
      </trkpt>
      <trkpt lat="47.27614" lon="4.97208">
        <ele>464.2</ele>
        <time>2013-03-30T09:32:48.000Z</time>
      </trkpt>
      <trkpt lat="47.27613" lon="4.97212">
        <ele>464.8</ele>
        <time>2013-03-30T09:32:50.000Z</time>
      </trkpt>
      <trkpt lat="47.27613" lon="4.97214">
        <ele>465.2</ele>
        <time>2013-03-30T09:32:51.000Z</time>
      </trkpt>
      <trkpt lat="47.27612" lon="4.9722">
        <ele>465.2</ele>
        <time>2013-03-30T09:32:53.000Z</time>
      </trkpt>
      <trkpt lat="47.27611" lon="4.97221">
        <ele>464.8</ele>
        <time>2013-03-30T09:32:54.000Z</time>
      </trkpt>
      <trkpt lat="47.27609" lon="4.97226">
        <ele>464.6</ele>
        <time>2013-03-30T09:32:56.000Z</time>
      </trkpt>
      <trkpt lat="47.27608" lon="4.97228">
        <ele>464.6</ele>
        <time>2013-03-30T09:32:57.000Z</time>
      </trkpt>
      <trkpt lat="47.27605" lon="4.97232">
        <ele>464.8</ele>
        <time>2013-03-30T09:32:59.000Z</time>
      </trkpt>
      <trkpt lat="47.27604" lon="4.97233">
        <ele>464.8</ele>
        <time>2013-03-30T09:33:00.000Z</time>
      </trkpt>
      <trkpt lat="47.27602" lon="4.97237">
        <ele>464.1</ele>
        <time>2013-03-30T09:33:02.000Z</time>
      </trkpt>
      <trkpt lat="47.276" lon="4.9724">
        <ele>464.5</ele>
        <time>2013-03-30T09:33:03.000Z</time>
      </trkpt>
      <trkpt lat="47.27599" lon="4.97245">
        <ele>464.8</ele>
        <time>2013-03-30T09:33:05.000Z</time>
      </trkpt>
      <trkpt lat="47.27598" lon="4.97247">
        <ele>464.9</ele>
        <time>2013-03-30T09:33:06.000Z</time>
      </trkpt>
      <trkpt lat="47.27597" lon="4.97252">
        <ele>464.4</ele>
        <time>2013-03-30T09:33:08.000Z</time>
      </trkpt>
      <trkpt lat="47.27596" lon="4.97255">
        <ele>464.4</ele>
        <time>2013-03-30T09:33:09.000Z</time>
      </trkpt>
      <trkpt lat="47.27595" lon="4.97257">
        <ele>464.1</ele>
        <time>2013-03-30T09:33:10.000Z</time>
      </trkpt>
      <trkpt lat="47.27595" lon="4.97261">
        <ele>463.4</ele>
        <time>2013-03-30T09:33:11.000Z</time>
      </trkpt>
      <trkpt lat="47.27593" lon="4.97267">
        <ele>462.1</ele>
        <time>2013-03-30T09:33:13.000Z</time>
      </trkpt>
      <trkpt lat="47.27593" lon="4.97268">
        <ele>461.6</ele>
        <time>2013-03-30T09:33:14.000Z</time>
      </trkpt>
      <trkpt lat="47.27592" lon="4.97272">
        <ele>460.8</ele>
        <time>2013-03-30T09:33:16.000Z</time>
      </trkpt>
      <trkpt lat="47.2759" lon="4.97274">
        <ele>460.4</ele>
        <time>2013-03-30T09:33:17.000Z</time>
      </trkpt>
      <trkpt lat="47.27589" lon="4.97276">
        <ele>460.2</ele>
        <time>2013-03-30T09:33:18.000Z</time>
      </trkpt>
      <trkpt lat="47.27583" lon="4.97295">
        <ele>443.4</ele>
        <time>2013-03-30T09:33:26.000Z</time>
      </trkpt>
      <trkpt lat="47.27582" lon="4.97298">
        <ele>442.6</ele>
        <time>2013-03-30T09:33:27.000Z</time>
      </trkpt>
      <trkpt lat="47.27582" lon="4.97303">
        <ele>442.8</ele>
        <time>2013-03-30T09:33:28.000Z</time>
      </trkpt>
      <trkpt lat="47.2758" lon="4.97306">
        <ele>442</ele>
        <time>2013-03-30T09:33:29.000Z</time>
      </trkpt>
      <trkpt lat="47.2758" lon="4.97309">
        <ele>441.2</ele>
        <time>2013-03-30T09:33:30.000Z</time>
      </trkpt>
      <trkpt lat="47.27579" lon="4.97313">
        <ele>442</ele>
        <time>2013-03-30T09:33:31.000Z</time>
      </trkpt>
      <trkpt lat="47.27577" lon="4.97315">
        <ele>441.9</ele>
        <time>2013-03-30T09:33:32.000Z</time>
      </trkpt>
      <trkpt lat="47.27577" lon="4.9732">
        <ele>443.4</ele>
        <time>2013-03-30T09:33:34.000Z</time>
      </trkpt>
      <trkpt lat="47.27577" lon="4.97323">
        <ele>444.4</ele>
        <time>2013-03-30T09:33:35.000Z</time>
      </trkpt>
      <trkpt lat="47.27577" lon="4.97328">
        <ele>444.4</ele>
        <time>2013-03-30T09:33:37.000Z</time>
      </trkpt>
      <trkpt lat="47.27577" lon="4.9733">
        <ele>443.6</ele>
        <time>2013-03-30T09:33:38.000Z</time>
      </trkpt>
      <trkpt lat="47.27576" lon="4.97335">
        <ele>443.3</ele>
        <time>2013-03-30T09:33:40.000Z</time>
      </trkpt>
      <trkpt lat="47.27576" lon="4.97337">
        <ele>443.4</ele>
        <time>2013-03-30T09:33:41.000Z</time>
      </trkpt>
      <trkpt lat="47.27574" lon="4.97341">
        <ele>442.7</ele>
        <time>2013-03-30T09:33:43.000Z</time>
      </trkpt>
      <trkpt lat="47.27573" lon="4.97343">
        <ele>442.8</ele>
        <time>2013-03-30T09:33:44.000Z</time>
      </trkpt>
      <trkpt lat="47.27572" lon="4.97347">
        <ele>443.8</ele>
        <time>2013-03-30T09:33:46.000Z</time>
      </trkpt>
      <trkpt lat="47.2757" lon="4.97349">
        <ele>443.6</ele>
        <time>2013-03-30T09:33:47.000Z</time>
      </trkpt>
      <trkpt lat="47.27569" lon="4.97353">
        <ele>444.1</ele>
        <time>2013-03-30T09:33:49.000Z</time>
      </trkpt>
      <trkpt lat="47.27568" lon="4.97355">
        <ele>443.6</ele>
        <time>2013-03-30T09:33:50.000Z</time>
      </trkpt>
      <trkpt lat="47.27566" lon="4.97361">
        <ele>443.9</ele>
        <time>2013-03-30T09:33:52.000Z</time>
      </trkpt>
      <trkpt lat="47.27566" lon="4.97364">
        <ele>443.9</ele>
        <time>2013-03-30T09:33:53.000Z</time>
      </trkpt>
      <trkpt lat="47.27565" lon="4.97369">
        <ele>443.1</ele>
        <time>2013-03-30T09:33:55.000Z</time>
      </trkpt>
      <trkpt lat="47.27564" lon="4.97372">
        <ele>442.4</ele>
        <time>2013-03-30T09:33:56.000Z</time>
      </trkpt>
      <trkpt lat="47.27564" lon="4.97376">
        <ele>441</ele>
        <time>2013-03-30T09:33:57.000Z</time>
      </trkpt>
      <trkpt lat="47.27563" lon="4.9738">
        <ele>439.3</ele>
        <time>2013-03-30T09:33:58.000Z</time>
      </trkpt>
      <trkpt lat="47.27563" lon="4.97384">
        <ele>438.2</ele>
        <time>2013-03-30T09:33:59.000Z</time>
      </trkpt>
      <trkpt lat="47.27561" lon="4.97388">
        <ele>437.5</ele>
        <time>2013-03-30T09:34:00.000Z</time>
      </trkpt>
      <trkpt lat="47.2756" lon="4.97394">
        <ele>436.7</ele>
        <time>2013-03-30T09:34:02.000Z</time>
      </trkpt>
      <trkpt lat="47.2756" lon="4.97397">
        <ele>436.3</ele>
        <time>2013-03-30T09:34:03.000Z</time>
      </trkpt>
      <trkpt lat="47.27559" lon="4.97403">
        <ele>436.1</ele>
        <time>2013-03-30T09:34:05.000Z</time>
      </trkpt>
      <trkpt lat="47.2756" lon="4.97406">
        <ele>436.1</ele>
        <time>2013-03-30T09:34:06.000Z</time>
      </trkpt>
      <trkpt lat="47.2756" lon="4.97412">
        <ele>436.4</ele>
        <time>2013-03-30T09:34:08.000Z</time>
      </trkpt>
      <trkpt lat="47.27559" lon="4.97414">
        <ele>436.3</ele>
        <time>2013-03-30T09:34:09.000Z</time>
      </trkpt>
      <trkpt lat="47.27556" lon="4.9742">
        <ele>436.1</ele>
        <time>2013-03-30T09:34:11.000Z</time>
      </trkpt>
      <trkpt lat="47.27555" lon="4.97422">
        <ele>435.9</ele>
        <time>2013-03-30T09:34:12.000Z</time>
      </trkpt>
      <trkpt lat="47.27554" lon="4.97427">
        <ele>435.4</ele>
        <time>2013-03-30T09:34:14.000Z</time>
      </trkpt>
      <trkpt lat="47.27553" lon="4.9743">
        <ele>435.1</ele>
        <time>2013-03-30T09:34:15.000Z</time>
      </trkpt>
      <trkpt lat="47.27552" lon="4.97434">
        <ele>435.4</ele>
        <time>2013-03-30T09:34:17.000Z</time>
      </trkpt>
      <trkpt lat="47.27551" lon="4.97436">
        <ele>435.4</ele>
        <time>2013-03-30T09:34:18.000Z</time>
      </trkpt>
      <trkpt lat="47.27537" lon="4.97494">
        <ele>431.2</ele>
        <time>2013-03-30T09:34:40.000Z</time>
      </trkpt>
      <trkpt lat="47.27534" lon="4.97496">
        <ele>431</ele>
        <time>2013-03-30T09:34:42.000Z</time>
      </trkpt>
      <trkpt lat="47.27533" lon="4.97499">
        <ele>430.1</ele>
        <time>2013-03-30T09:34:43.000Z</time>
      </trkpt>
      <trkpt lat="47.27531" lon="4.97503">
        <ele>428.3</ele>
        <time>2013-03-30T09:34:45.000Z</time>
      </trkpt>
      <trkpt lat="47.27529" lon="4.97504">
        <ele>426.9</ele>
        <time>2013-03-30T09:34:46.000Z</time>
      </trkpt>
      <trkpt lat="47.27526" lon="4.97508">
        <ele>428.7</ele>
        <time>2013-03-30T09:34:48.000Z</time>
      </trkpt>
      <trkpt lat="47.27525" lon="4.9751">
        <ele>429.1</ele>
        <time>2013-03-30T09:34:49.000Z</time>
      </trkpt>
      <trkpt lat="47.27523" lon="4.97513">
        <ele>429.5</ele>
        <time>2013-03-30T09:34:50.000Z</time>
      </trkpt>
      <trkpt lat="47.27522" lon="4.97516">
        <ele>430.3</ele>
        <time>2013-03-30T09:34:51.000Z</time>
      </trkpt>
      <trkpt lat="47.27519" lon="4.9752">
        <ele>428.8</ele>
        <time>2013-03-30T09:34:53.000Z</time>
      </trkpt>
      <trkpt lat="47.27518" lon="4.97522">
        <ele>428.6</ele>
        <time>2013-03-30T09:34:54.000Z</time>
      </trkpt>
      <trkpt lat="47.27517" lon="4.97527">
        <ele>428</ele>
        <time>2013-03-30T09:34:56.000Z</time>
      </trkpt>
      <trkpt lat="47.27516" lon="4.9753">
        <ele>428.1</ele>
        <time>2013-03-30T09:34:57.000Z</time>
      </trkpt>
      <trkpt lat="47.27515" lon="4.97534">
        <ele>428.8</ele>
        <time>2013-03-30T09:34:58.000Z</time>
      </trkpt>
      <trkpt lat="47.27515" lon="4.97537">
        <ele>429.5</ele>
        <time>2013-03-30T09:34:59.000Z</time>
      </trkpt>
      <trkpt lat="47.27513" lon="4.97542">
        <ele>427.4</ele>
        <time>2013-03-30T09:35:01.000Z</time>
      </trkpt>
      <trkpt lat="47.27512" lon="4.97545">
        <ele>426.6</ele>
        <time>2013-03-30T09:35:02.000Z</time>
      </trkpt>
      <trkpt lat="47.2751" lon="4.97551">
        <ele>426.2</ele>
        <time>2013-03-30T09:35:04.000Z</time>
      </trkpt>
      <trkpt lat="47.27511" lon="4.97554">
        <ele>425.4</ele>
        <time>2013-03-30T09:35:05.000Z</time>
      </trkpt>
      <trkpt lat="47.27509" lon="4.97558">
        <ele>422.2</ele>
        <time>2013-03-30T09:35:08.000Z</time>
      </trkpt>
      <trkpt lat="47.27508" lon="4.9756">
        <ele>421.5</ele>
        <time>2013-03-30T09:35:09.000Z</time>
      </trkpt>
      <trkpt lat="47.27508" lon="4.97565">
        <ele>420.8</ele>
        <time>2013-03-30T09:35:11.000Z</time>
      </trkpt>
      <trkpt lat="47.27507" lon="4.97568">
        <ele>420.9</ele>
        <time>2013-03-30T09:35:12.000Z</time>
      </trkpt>
      <trkpt lat="47.27506" lon="4.9757">
        <ele>420.3</ele>
        <time>2013-03-30T09:35:13.000Z</time>
      </trkpt>
      <trkpt lat="47.27504" lon="4.97573">
        <ele>420.1</ele>
        <time>2013-03-30T09:35:14.000Z</time>
      </trkpt>
      <trkpt lat="47.27503" lon="4.97578">
        <ele>419.1</ele>
        <time>2013-03-30T09:35:16.000Z</time>
      </trkpt>
      <trkpt lat="47.27503" lon="4.97582">
        <ele>418.5</ele>
        <time>2013-03-30T09:35:17.000Z</time>
      </trkpt>
      <trkpt lat="47.27502" lon="4.97585">
        <ele>418.2</ele>
        <time>2013-03-30T09:35:18.000Z</time>
      </trkpt>
      <trkpt lat="47.27498" lon="4.97617">
        <ele>409</ele>
        <time>2013-03-30T09:35:28.000Z</time>
      </trkpt>
      <trkpt lat="47.27498" lon="4.97621">
        <ele>405.7</ele>
        <time>2013-03-30T09:35:29.000Z</time>
      </trkpt>
      <trkpt lat="47.27498" lon="4.97626">
        <ele>405.2</ele>
        <time>2013-03-30T09:35:30.000Z</time>
      </trkpt>
      <trkpt lat="47.27497" lon="4.97631">
        <ele>404.1</ele>
        <time>2013-03-30T09:35:32.000Z</time>
      </trkpt>
      <trkpt lat="47.27496" lon="4.97633">
        <ele>401.8</ele>
        <time>2013-03-30T09:35:33.000Z</time>
      </trkpt>
      <trkpt lat="47.27497" lon="4.97638">
        <ele>399.2</ele>
        <time>2013-03-30T09:35:35.000Z</time>
      </trkpt>
      <trkpt lat="47.27496" lon="4.97642">
        <ele>399</ele>
        <time>2013-03-30T09:35:36.000Z</time>
      </trkpt>
      <trkpt lat="47.27494" lon="4.97647">
        <ele>396.3</ele>
        <time>2013-03-30T09:35:38.000Z</time>
      </trkpt>
      <trkpt lat="47.27493" lon="4.9765">
        <ele>395.4</ele>
        <time>2013-03-30T09:35:39.000Z</time>
      </trkpt>
      <trkpt lat="47.27493" lon="4.97656">
        <ele>391.9</ele>
        <time>2013-03-30T09:35:42.000Z</time>
      </trkpt>
      <trkpt lat="47.27492" lon="4.97658">
        <ele>391.3</ele>
        <time>2013-03-30T09:35:43.000Z</time>
      </trkpt>
      <trkpt lat="47.27492" lon="4.97663">
        <ele>390.6</ele>
        <time>2013-03-30T09:35:45.000Z</time>
      </trkpt>
      <trkpt lat="47.27491" lon="4.97666">
        <ele>390.8</ele>
        <time>2013-03-30T09:35:46.000Z</time>
      </trkpt>
      <trkpt lat="47.2749" lon="4.97672">
        <ele>392.4</ele>
        <time>2013-03-30T09:35:48.000Z</time>
      </trkpt>
      <trkpt lat="47.27489" lon="4.97673">
        <ele>392.2</ele>
        <time>2013-03-30T09:35:49.000Z</time>
      </trkpt>
      <trkpt lat="47.27488" lon="4.97679">
        <ele>393.7</ele>
        <time>2013-03-30T09:35:52.000Z</time>
      </trkpt>
      <trkpt lat="47.27487" lon="4.97681">
        <ele>393.8</ele>
        <time>2013-03-30T09:35:53.000Z</time>
      </trkpt>
      <trkpt lat="47.27485" lon="4.97685">
        <ele>394.1</ele>
        <time>2013-03-30T09:35:55.000Z</time>
      </trkpt>
      <trkpt lat="47.27484" lon="4.97686">
        <ele>394.2</ele>
        <time>2013-03-30T09:35:56.000Z</time>
      </trkpt>
      <trkpt lat="47.27484" lon="4.97692">
        <ele>395.1</ele>
        <time>2013-03-30T09:35:58.000Z</time>
      </trkpt>
      <trkpt lat="47.27485" lon="4.97695">
        <ele>395.5</ele>
        <time>2013-03-30T09:35:59.000Z</time>
      </trkpt>
      <trkpt lat="47.27485" lon="4.97699">
        <ele>396.1</ele>
        <time>2013-03-30T09:36:01.000Z</time>
      </trkpt>
      <trkpt lat="47.27486" lon="4.97702">
        <ele>396.3</ele>
        <time>2013-03-30T09:36:02.000Z</time>
      </trkpt>
      <trkpt lat="47.27487" lon="4.97708">
        <ele>396.5</ele>
        <time>2013-03-30T09:36:04.000Z</time>
      </trkpt>
      <trkpt lat="47.27487" lon="4.9771">
        <ele>396.6</ele>
        <time>2013-03-30T09:36:05.000Z</time>
      </trkpt>
      <trkpt lat="47.27488" lon="4.97716">
        <ele>396.6</ele>
        <time>2013-03-30T09:36:07.000Z</time>
      </trkpt>
      <trkpt lat="47.27489" lon="4.97719">
        <ele>396.5</ele>
        <time>2013-03-30T09:36:08.000Z</time>
      </trkpt>
      <trkpt lat="47.27489" lon="4.97725">
        <ele>397.2</ele>
        <time>2013-03-30T09:36:10.000Z</time>
      </trkpt>
      <trkpt lat="47.2749" lon="4.97728">
        <ele>397.6</ele>
        <time>2013-03-30T09:36:11.000Z</time>
      </trkpt>
      <trkpt lat="47.2749" lon="4.97733">
        <ele>398.6</ele>
        <time>2013-03-30T09:36:13.000Z</time>
      </trkpt>
      <trkpt lat="47.2749" lon="4.97736">
        <ele>399.4</ele>
        <time>2013-03-30T09:36:14.000Z</time>
      </trkpt>
      <trkpt lat="47.27491" lon="4.97742">
        <ele>400.8</ele>
        <time>2013-03-30T09:36:16.000Z</time>
      </trkpt>
      <trkpt lat="47.27491" lon="4.97744">
        <ele>401.3</ele>
        <time>2013-03-30T09:36:17.000Z</time>
      </trkpt>
      <trkpt lat="47.27491" lon="4.97747">
        <ele>401.8</ele>
        <time>2013-03-30T09:36:18.000Z</time>
      </trkpt>
      <trkpt lat="47.27489" lon="4.97773">
        <ele>405.4</ele>
        <time>2013-03-30T09:36:25.000Z</time>
      </trkpt>
      <trkpt lat="47.27488" lon="4.97779">
        <ele>405.1</ele>
        <time>2013-03-30T09:36:29.000Z</time>
      </trkpt>
      <trkpt lat="47.27488" lon="4.97781">
        <ele>405.8</ele>
        <time>2013-03-30T09:36:30.000Z</time>
      </trkpt>
      <trkpt lat="47.27487" lon="4.97784">
        <ele>404</ele>
        <time>2013-03-30T09:36:38.000Z</time>
      </trkpt>
      <trkpt lat="47.27489" lon="4.97788">
        <ele>403.2</ele>
        <time>2013-03-30T09:36:39.000Z</time>
      </trkpt>
      <trkpt lat="47.27492" lon="4.97791">
        <ele>401.7</ele>
        <time>2013-03-30T09:36:44.000Z</time>
      </trkpt>
      <trkpt lat="47.27493" lon="4.97792">
        <ele>401.5</ele>
        <time>2013-03-30T09:36:45.000Z</time>
      </trkpt>
      <trkpt lat="47.27496" lon="4.97795">
        <ele>403</ele>
        <time>2013-03-30T09:36:47.000Z</time>
      </trkpt>
      <trkpt lat="47.27497" lon="4.97795">
        <ele>403.2</ele>
        <time>2013-03-30T09:36:48.000Z</time>
      </trkpt>
      <trkpt lat="47.275" lon="4.97797">
        <ele>404.7</ele>
        <time>2013-03-30T09:36:51.000Z</time>
      </trkpt>
      <trkpt lat="47.27502" lon="4.97797">
        <ele>405.8</ele>
        <time>2013-03-30T09:36:52.000Z</time>
      </trkpt>
      <trkpt lat="47.27505" lon="4.97798">
        <ele>406</ele>
        <time>2013-03-30T09:36:54.000Z</time>
      </trkpt>
      <trkpt lat="47.27507" lon="4.97798">
        <ele>406.1</ele>
        <time>2013-03-30T09:36:55.000Z</time>
      </trkpt>
      <trkpt lat="47.2751" lon="4.97799">
        <ele>405.8</ele>
        <time>2013-03-30T09:36:57.000Z</time>
      </trkpt>
      <trkpt lat="47.27511" lon="4.97799">
        <ele>406</ele>
        <time>2013-03-30T09:36:58.000Z</time>
      </trkpt>
      <trkpt lat="47.27515" lon="4.97801">
        <ele>406.5</ele>
        <time>2013-03-30T09:37:01.000Z</time>
      </trkpt>
      <trkpt lat="47.27516" lon="4.97801">
        <ele>406.7</ele>
        <time>2013-03-30T09:37:02.000Z</time>
      </trkpt>
      <trkpt lat="47.27519" lon="4.97803">
        <ele>407.3</ele>
        <time>2013-03-30T09:37:04.000Z</time>
      </trkpt>
      <trkpt lat="47.27521" lon="4.97803">
        <ele>407.6</ele>
        <time>2013-03-30T09:37:05.000Z</time>
      </trkpt>
      <trkpt lat="47.27524" lon="4.97805">
        <ele>408</ele>
        <time>2013-03-30T09:37:07.000Z</time>
      </trkpt>
      <trkpt lat="47.27526" lon="4.97806">
        <ele>408</ele>
        <time>2013-03-30T09:37:08.000Z</time>
      </trkpt>
      <trkpt lat="47.27529" lon="4.97808">
        <ele>408.5</ele>
        <time>2013-03-30T09:37:10.000Z</time>
      </trkpt>
      <trkpt lat="47.27531" lon="4.97808">
        <ele>408.7</ele>
        <time>2013-03-30T09:37:11.000Z</time>
      </trkpt>
      <trkpt lat="47.27534" lon="4.9781">
        <ele>409</ele>
        <time>2013-03-30T09:37:13.000Z</time>
      </trkpt>
      <trkpt lat="47.27536" lon="4.9781">
        <ele>409.2</ele>
        <time>2013-03-30T09:37:14.000Z</time>
      </trkpt>
      <trkpt lat="47.27539" lon="4.97814">
        <ele>409.7</ele>
        <time>2013-03-30T09:37:17.000Z</time>
      </trkpt>
      <trkpt lat="47.2754" lon="4.97815">
        <ele>409.6</ele>
        <time>2013-03-30T09:37:18.000Z</time>
      </trkpt>
      <trkpt lat="47.27556" lon="4.97836">
        <ele>398.8</ele>
        <time>2013-03-30T09:37:27.000Z</time>
      </trkpt>
      <trkpt lat="47.27558" lon="4.9784">
        <ele>400.8</ele>
        <time>2013-03-30T09:37:29.000Z</time>
      </trkpt>
      <trkpt lat="47.2756" lon="4.97841">
        <ele>402.5</ele>
        <time>2013-03-30T09:37:30.000Z</time>
      </trkpt>
      <trkpt lat="47.27563" lon="4.97843">
        <ele>404.4</ele>
        <time>2013-03-30T09:37:32.000Z</time>
      </trkpt>
      <trkpt lat="47.27565" lon="4.97843">
        <ele>405.2</ele>
        <time>2013-03-30T09:37:33.000Z</time>
      </trkpt>
      <trkpt lat="47.27569" lon="4.97845">
        <ele>404.7</ele>
        <time>2013-03-30T09:37:37.000Z</time>
      </trkpt>
      <trkpt lat="47.2757" lon="4.97846">
        <ele>405.4</ele>
        <time>2013-03-30T09:37:38.000Z</time>
      </trkpt>
      <trkpt lat="47.27572" lon="4.97849">
        <ele>406.9</ele>
        <time>2013-03-30T09:37:40.000Z</time>
      </trkpt>
      <trkpt lat="47.27574" lon="4.9785">
        <ele>405.9</ele>
        <time>2013-03-30T09:37:41.000Z</time>
      </trkpt>
      <trkpt lat="47.27577" lon="4.97852">
        <ele>406.2</ele>
        <time>2013-03-30T09:37:43.000Z</time>
      </trkpt>
      <trkpt lat="47.27579" lon="4.97852">
        <ele>404.8</ele>
        <time>2013-03-30T09:37:44.000Z</time>
      </trkpt>
      <trkpt lat="47.27581" lon="4.97856">
        <ele>405.4</ele>
        <time>2013-03-30T09:37:47.000Z</time>
      </trkpt>
      <trkpt lat="47.27582" lon="4.97857">
        <ele>405.7</ele>
        <time>2013-03-30T09:37:48.000Z</time>
      </trkpt>
      <trkpt lat="47.27585" lon="4.9786">
        <ele>405.3</ele>
        <time>2013-03-30T09:37:51.000Z</time>
      </trkpt>
      <trkpt lat="47.27587" lon="4.9786">
        <ele>405.4</ele>
        <time>2013-03-30T09:37:52.000Z</time>
      </trkpt>
      <trkpt lat="47.2759" lon="4.97863">
        <ele>407.7</ele>
        <time>2013-03-30T09:37:54.000Z</time>
      </trkpt>
      <trkpt lat="47.27591" lon="4.97863">
        <ele>408.2</ele>
        <time>2013-03-30T09:37:55.000Z</time>
      </trkpt>
      <trkpt lat="47.27595" lon="4.97863">
        <ele>409.3</ele>
        <time>2013-03-30T09:37:58.000Z</time>
      </trkpt>
      <trkpt lat="47.27596" lon="4.97862">
        <ele>409.5</ele>
        <time>2013-03-30T09:37:59.000Z</time>
      </trkpt>
      <trkpt lat="47.276" lon="4.9786">
        <ele>409.7</ele>
        <time>2013-03-30T09:38:02.000Z</time>
      </trkpt>
      <trkpt lat="47.27602" lon="4.97859">
        <ele>410</ele>
        <time>2013-03-30T09:38:03.000Z</time>
      </trkpt>
      <trkpt lat="47.27605" lon="4.97859">
        <ele>410.6</ele>
        <time>2013-03-30T09:38:05.000Z</time>
      </trkpt>
      <trkpt lat="47.27607" lon="4.97859">
        <ele>410.9</ele>
        <time>2013-03-30T09:38:06.000Z</time>
      </trkpt>
      <trkpt lat="47.2761" lon="4.97859">
        <ele>411.7</ele>
        <time>2013-03-30T09:38:08.000Z</time>
      </trkpt>
      <trkpt lat="47.27611" lon="4.97859">
        <ele>411.9</ele>
        <time>2013-03-30T09:38:09.000Z</time>
      </trkpt>
      <trkpt lat="47.27614" lon="4.9786">
        <ele>412.4</ele>
        <time>2013-03-30T09:38:11.000Z</time>
      </trkpt>
      <trkpt lat="47.27616" lon="4.97861">
        <ele>412.8</ele>
        <time>2013-03-30T09:38:12.000Z</time>
      </trkpt>
      <trkpt lat="47.2762" lon="4.9786">
        <ele>412.7</ele>
        <time>2013-03-30T09:38:15.000Z</time>
      </trkpt>
      <trkpt lat="47.27621" lon="4.97859">
        <ele>412.9</ele>
        <time>2013-03-30T09:38:16.000Z</time>
      </trkpt>
      <trkpt lat="47.27623" lon="4.97856">
        <ele>413.2</ele>
        <time>2013-03-30T09:38:18.000Z</time>
      </trkpt>
      <trkpt lat="47.27632" lon="4.97841">
        <ele>409.9</ele>
        <time>2013-03-30T09:38:25.000Z</time>
      </trkpt>
      <trkpt lat="47.27635" lon="4.97837">
        <ele>410.5</ele>
        <time>2013-03-30T09:38:28.000Z</time>
      </trkpt>
      <trkpt lat="47.27635" lon="4.97835">
        <ele>411.3</ele>
        <time>2013-03-30T09:38:29.000Z</time>
      </trkpt>
      <trkpt lat="47.27638" lon="4.97832">
        <ele>412.6</ele>
        <time>2013-03-30T09:38:32.000Z</time>
      </trkpt>
      <trkpt lat="47.27638" lon="4.9783">
        <ele>412.6</ele>
        <time>2013-03-30T09:38:33.000Z</time>
      </trkpt>
      <trkpt lat="47.27639" lon="4.97824">
        <ele>414.2</ele>
        <time>2013-03-30T09:38:36.000Z</time>
      </trkpt>
      <trkpt lat="47.27639" lon="4.97823">
        <ele>414.7</ele>
        <time>2013-03-30T09:38:37.000Z</time>
      </trkpt>
      <trkpt lat="47.27641" lon="4.97818">
        <ele>416.1</ele>
        <time>2013-03-30T09:38:41.000Z</time>
      </trkpt>
      <trkpt lat="47.27641" lon="4.97816">
        <ele>416.5</ele>
        <time>2013-03-30T09:38:42.000Z</time>
      </trkpt>
      <trkpt lat="47.27643" lon="4.97811">
        <ele>418.7</ele>
        <time>2013-03-30T09:38:45.000Z</time>
      </trkpt>
      <trkpt lat="47.27644" lon="4.97809">
        <ele>418.8</ele>
        <time>2013-03-30T09:38:46.000Z</time>
      </trkpt>
      <trkpt lat="47.27645" lon="4.97804">
        <ele>420.5</ele>
        <time>2013-03-30T09:38:49.000Z</time>
      </trkpt>
      <trkpt lat="47.27646" lon="4.97802">
        <ele>418.6</ele>
        <time>2013-03-30T09:38:50.000Z</time>
      </trkpt>
      <trkpt lat="47.27647" lon="4.97797">
        <ele>417.3</ele>
        <time>2013-03-30T09:38:52.000Z</time>
      </trkpt>
      <trkpt lat="47.27647" lon="4.97795">
        <ele>417.1</ele>
        <time>2013-03-30T09:38:53.000Z</time>
      </trkpt>
      <trkpt lat="47.27648" lon="4.97791">
        <ele>416.1</ele>
        <time>2013-03-30T09:38:55.000Z</time>
      </trkpt>
      <trkpt lat="47.27649" lon="4.97789">
        <ele>416.4</ele>
        <time>2013-03-30T09:38:56.000Z</time>
      </trkpt>
      <trkpt lat="47.27651" lon="4.97784">
        <ele>415.7</ele>
        <time>2013-03-30T09:38:59.000Z</time>
      </trkpt>
      <trkpt lat="47.27651" lon="4.97782">
        <ele>415.8</ele>
        <time>2013-03-30T09:39:00.000Z</time>
      </trkpt>
      <trkpt lat="47.27653" lon="4.97778">
        <ele>415.8</ele>
        <time>2013-03-30T09:39:02.000Z</time>
      </trkpt>
      <trkpt lat="47.27654" lon="4.97776">
        <ele>415.7</ele>
        <time>2013-03-30T09:39:03.000Z</time>
      </trkpt>
      <trkpt lat="47.27656" lon="4.97771">
        <ele>415.6</ele>
        <time>2013-03-30T09:39:06.000Z</time>
      </trkpt>
      <trkpt lat="47.27657" lon="4.97769">
        <ele>415.8</ele>
        <time>2013-03-30T09:39:07.000Z</time>
      </trkpt>
      <trkpt lat="47.27659" lon="4.97764">
        <ele>416</ele>
        <time>2013-03-30T09:39:10.000Z</time>
      </trkpt>
      <trkpt lat="47.2766" lon="4.97762">
        <ele>416.3</ele>
        <time>2013-03-30T09:39:11.000Z</time>
      </trkpt>
      <trkpt lat="47.27661" lon="4.97756">
        <ele>416.9</ele>
        <time>2013-03-30T09:39:14.000Z</time>
      </trkpt>
      <trkpt lat="47.27662" lon="4.97754">
        <ele>417</ele>
        <time>2013-03-30T09:39:15.000Z</time>
      </trkpt>
      <trkpt lat="47.27663" lon="4.9775">
        <ele>417.4</ele>
        <time>2013-03-30T09:39:17.000Z</time>
      </trkpt>
      <trkpt lat="47.27663" lon="4.97748">
        <ele>417.4</ele>
        <time>2013-03-30T09:39:18.000Z</time>
      </trkpt>
      <trkpt lat="47.27669" lon="4.97732">
        <ele>421</ele>
        <time>2013-03-30T09:39:25.000Z</time>
      </trkpt>
      <trkpt lat="47.2767" lon="4.97726">
        <ele>421.1</ele>
        <time>2013-03-30T09:39:28.000Z</time>
      </trkpt>
      <trkpt lat="47.2767" lon="4.97725">
        <ele>421.9</ele>
        <time>2013-03-30T09:39:29.000Z</time>
      </trkpt>
      <trkpt lat="47.27671" lon="4.97719">
        <ele>424.1</ele>
        <time>2013-03-30T09:39:32.000Z</time>
      </trkpt>
      <trkpt lat="47.27672" lon="4.97717">
        <ele>424.8</ele>
        <time>2013-03-30T09:39:33.000Z</time>
      </trkpt>
      <trkpt lat="47.27673" lon="4.97713">
        <ele>425.7</ele>
        <time>2013-03-30T09:39:36.000Z</time>
      </trkpt>
      <trkpt lat="47.27674" lon="4.97711">
        <ele>426</ele>
        <time>2013-03-30T09:39:37.000Z</time>
      </trkpt>
      <trkpt lat="47.27675" lon="4.97706">
        <ele>427.5</ele>
        <time>2013-03-30T09:39:40.000Z</time>
      </trkpt>
      <trkpt lat="47.27676" lon="4.97704">
        <ele>427.9</ele>
        <time>2013-03-30T09:39:41.000Z</time>
      </trkpt>
      <trkpt lat="47.27677" lon="4.97699">
        <ele>430.2</ele>
        <time>2013-03-30T09:39:44.000Z</time>
      </trkpt>
      <trkpt lat="47.27678" lon="4.97697">
        <ele>430.6</ele>
        <time>2013-03-30T09:39:45.000Z</time>
      </trkpt>
      <trkpt lat="47.27679" lon="4.97692">
        <ele>429.6</ele>
        <time>2013-03-30T09:39:47.000Z</time>
      </trkpt>
      <trkpt lat="47.2768" lon="4.9769">
        <ele>429.5</ele>
        <time>2013-03-30T09:39:48.000Z</time>
      </trkpt>
      <trkpt lat="47.27682" lon="4.97685">
        <ele>429.7</ele>
        <time>2013-03-30T09:39:51.000Z</time>
      </trkpt>
      <trkpt lat="47.27683" lon="4.97683">
        <ele>429.6</ele>
        <time>2013-03-30T09:39:52.000Z</time>
      </trkpt>
      <trkpt lat="47.27684" lon="4.97679">
        <ele>429.8</ele>
        <time>2013-03-30T09:39:55.000Z</time>
      </trkpt>
      <trkpt lat="47.27685" lon="4.97677">
        <ele>429.9</ele>
        <time>2013-03-30T09:39:56.000Z</time>
      </trkpt>
      <trkpt lat="47.27686" lon="4.97672">
        <ele>430</ele>
        <time>2013-03-30T09:39:58.000Z</time>
      </trkpt>
      <trkpt lat="47.27686" lon="4.9767">
        <ele>430</ele>
        <time>2013-03-30T09:39:59.000Z</time>
      </trkpt>
      <trkpt lat="47.27688" lon="4.97666">
        <ele>430</ele>
        <time>2013-03-30T09:40:01.000Z</time>
      </trkpt>
      <trkpt lat="47.27688" lon="4.97664">
        <ele>430.2</ele>
        <time>2013-03-30T09:40:02.000Z</time>
      </trkpt>
      <trkpt lat="47.2769" lon="4.9766">
        <ele>430.7</ele>
        <time>2013-03-30T09:40:04.000Z</time>
      </trkpt>
      <trkpt lat="47.2769" lon="4.97658">
        <ele>430.8</ele>
        <time>2013-03-30T09:40:05.000Z</time>
      </trkpt>
      <trkpt lat="47.27692" lon="4.97653">
        <ele>430.9</ele>
        <time>2013-03-30T09:40:07.000Z</time>
      </trkpt>
      <trkpt lat="47.27693" lon="4.97651">
        <ele>430.9</ele>
        <time>2013-03-30T09:40:08.000Z</time>
      </trkpt>
      <trkpt lat="47.27695" lon="4.97646">
        <ele>430.8</ele>
        <time>2013-03-30T09:40:11.000Z</time>
      </trkpt>
      <trkpt lat="47.27696" lon="4.97644">
        <ele>430.8</ele>
        <time>2013-03-30T09:40:12.000Z</time>
      </trkpt>
      <trkpt lat="47.27697" lon="4.97639">
        <ele>431.3</ele>
        <time>2013-03-30T09:40:15.000Z</time>
      </trkpt>
      <trkpt lat="47.27698" lon="4.97638">
        <ele>431.4</ele>
        <time>2013-03-30T09:40:16.000Z</time>
      </trkpt>
      <trkpt lat="47.27699" lon="4.97632">
        <ele>432.1</ele>
        <time>2013-03-30T09:40:19.000Z</time>
      </trkpt>
      <trkpt lat="47.277" lon="4.97631">
        <ele>432.2</ele>
        <time>2013-03-30T09:40:20.000Z</time>
      </trkpt>
      <trkpt lat="47.27701" lon="4.97625">
        <ele>432.8</ele>
        <time>2013-03-30T09:40:23.000Z</time>
      </trkpt>
      <trkpt lat="47.27702" lon="4.97623">
        <ele>432.9</ele>
        <time>2013-03-30T09:40:24.000Z</time>
      </trkpt>
      <trkpt lat="47.27703" lon="4.97617">
        <ele>433.2</ele>
        <time>2013-03-30T09:40:27.000Z</time>
      </trkpt>
      <trkpt lat="47.27703" lon="4.97615">
        <ele>433.3</ele>
        <time>2013-03-30T09:40:28.000Z</time>
      </trkpt>
      <trkpt lat="47.27705" lon="4.97611">
        <ele>433.7</ele>
        <time>2013-03-30T09:40:30.000Z</time>
      </trkpt>
      <trkpt lat="47.27706" lon="4.97609">
        <ele>433.8</ele>
        <time>2013-03-30T09:40:31.000Z</time>
      </trkpt>
      <trkpt lat="47.27708" lon="4.97604">
        <ele>434.5</ele>
        <time>2013-03-30T09:40:34.000Z</time>
      </trkpt>
      <trkpt lat="47.27708" lon="4.97602">
        <ele>434.7</ele>
        <time>2013-03-30T09:40:35.000Z</time>
      </trkpt>
      <trkpt lat="47.27709" lon="4.97597">
        <ele>435.6</ele>
        <time>2013-03-30T09:40:38.000Z</time>
      </trkpt>
      <trkpt lat="47.2771" lon="4.97595">
        <ele>435.8</ele>
        <time>2013-03-30T09:40:39.000Z</time>
      </trkpt>
      <trkpt lat="47.27712" lon="4.97589">
        <ele>436.3</ele>
        <time>2013-03-30T09:40:42.000Z</time>
      </trkpt>
      <trkpt lat="47.27713" lon="4.97587">
        <ele>436.3</ele>
        <time>2013-03-30T09:40:43.000Z</time>
      </trkpt>
      <trkpt lat="47.27715" lon="4.97582">
        <ele>436.6</ele>
        <time>2013-03-30T09:40:46.000Z</time>
      </trkpt>
      <trkpt lat="47.27716" lon="4.9758">
        <ele>436.6</ele>
        <time>2013-03-30T09:40:47.000Z</time>
      </trkpt>
      <trkpt lat="47.27717" lon="4.97575">
        <ele>436.7</ele>
        <time>2013-03-30T09:40:49.000Z</time>
      </trkpt>
      <trkpt lat="47.27717" lon="4.97573">
        <ele>436.9</ele>
        <time>2013-03-30T09:40:50.000Z</time>
      </trkpt>
      <trkpt lat="47.27719" lon="4.97567">
        <ele>437.4</ele>
        <time>2013-03-30T09:40:53.000Z</time>
      </trkpt>
      <trkpt lat="47.27719" lon="4.97566">
        <ele>437.6</ele>
        <time>2013-03-30T09:40:54.000Z</time>
      </trkpt>
      <trkpt lat="47.27721" lon="4.9756">
        <ele>438.5</ele>
        <time>2013-03-30T09:40:57.000Z</time>
      </trkpt>
      <trkpt lat="47.27722" lon="4.97558">
        <ele>438.8</ele>
        <time>2013-03-30T09:40:58.000Z</time>
      </trkpt>
      <trkpt lat="47.27723" lon="4.97553">
        <ele>439.4</ele>
        <time>2013-03-30T09:41:00.000Z</time>
      </trkpt>
      <trkpt lat="47.27724" lon="4.97551">
        <ele>439.6</ele>
        <time>2013-03-30T09:41:01.000Z</time>
      </trkpt>
      <trkpt lat="47.27725" lon="4.97547">
        <ele>440.2</ele>
        <time>2013-03-30T09:41:03.000Z</time>
      </trkpt>
      <trkpt lat="47.27726" lon="4.97545">
        <ele>440.3</ele>
        <time>2013-03-30T09:41:04.000Z</time>
      </trkpt>
      <trkpt lat="47.27727" lon="4.9754">
        <ele>440.7</ele>
        <time>2013-03-30T09:41:06.000Z</time>
      </trkpt>
      <trkpt lat="47.27728" lon="4.97538">
        <ele>440.9</ele>
        <time>2013-03-30T09:41:07.000Z</time>
      </trkpt>
      <trkpt lat="47.27729" lon="4.97533">
        <ele>441</ele>
        <time>2013-03-30T09:41:09.000Z</time>
      </trkpt>
      <trkpt lat="47.2773" lon="4.97531">
        <ele>441.2</ele>
        <time>2013-03-30T09:41:10.000Z</time>
      </trkpt>
      <trkpt lat="47.27732" lon="4.97526">
        <ele>442.1</ele>
        <time>2013-03-30T09:41:13.000Z</time>
      </trkpt>
      <trkpt lat="47.27732" lon="4.97524">
        <ele>442.4</ele>
        <time>2013-03-30T09:41:14.000Z</time>
      </trkpt>
      <trkpt lat="47.27734" lon="4.97518">
        <ele>443.3</ele>
        <time>2013-03-30T09:41:17.000Z</time>
      </trkpt>
      <trkpt lat="47.27734" lon="4.97515">
        <ele>443.6</ele>
        <time>2013-03-30T09:41:18.000Z</time>
      </trkpt>
      <trkpt lat="47.27735" lon="4.97509">
        <ele>444.5</ele>
        <time>2013-03-30T09:41:21.000Z</time>
      </trkpt>
      <trkpt lat="47.27735" lon="4.97507">
        <ele>444.7</ele>
        <time>2013-03-30T09:41:22.000Z</time>
      </trkpt>
      <trkpt lat="47.27737" lon="4.97502">
        <ele>445</ele>
        <time>2013-03-30T09:41:25.000Z</time>
      </trkpt>
      <trkpt lat="47.27738" lon="4.975">
        <ele>444.9</ele>
        <time>2013-03-30T09:41:26.000Z</time>
      </trkpt>
      <trkpt lat="47.27739" lon="4.97494">
        <ele>444.7</ele>
        <time>2013-03-30T09:41:29.000Z</time>
      </trkpt>
      <trkpt lat="47.2774" lon="4.97492">
        <ele>444.6</ele>
        <time>2013-03-30T09:41:30.000Z</time>
      </trkpt>
      <trkpt lat="47.27742" lon="4.97487">
        <ele>444.2</ele>
        <time>2013-03-30T09:41:33.000Z</time>
      </trkpt>
      <trkpt lat="47.27743" lon="4.97485">
        <ele>444.2</ele>
        <time>2013-03-30T09:41:34.000Z</time>
      </trkpt>
      <trkpt lat="47.27745" lon="4.97479">
        <ele>444.3</ele>
        <time>2013-03-30T09:41:37.000Z</time>
      </trkpt>
      <trkpt lat="47.27746" lon="4.97477">
        <ele>444.3</ele>
        <time>2013-03-30T09:41:38.000Z</time>
      </trkpt>
      <trkpt lat="47.27748" lon="4.97472">
        <ele>444.8</ele>
        <time>2013-03-30T09:41:41.000Z</time>
      </trkpt>
      <trkpt lat="47.27749" lon="4.9747">
        <ele>445.1</ele>
        <time>2013-03-30T09:41:42.000Z</time>
      </trkpt>
      <trkpt lat="47.2775" lon="4.97465">
        <ele>445.5</ele>
        <time>2013-03-30T09:41:44.000Z</time>
      </trkpt>
      <trkpt lat="47.27751" lon="4.97463">
        <ele>445.8</ele>
        <time>2013-03-30T09:41:45.000Z</time>
      </trkpt>
      <trkpt lat="47.27752" lon="4.97458">
        <ele>446.8</ele>
        <time>2013-03-30T09:41:48.000Z</time>
      </trkpt>
      <trkpt lat="47.27753" lon="4.97456">
        <ele>447</ele>
        <time>2013-03-30T09:41:49.000Z</time>
      </trkpt>
      <trkpt lat="47.27754" lon="4.97452">
        <ele>447.3</ele>
        <time>2013-03-30T09:41:51.000Z</time>
      </trkpt>
      <trkpt lat="47.27755" lon="4.97449">
        <ele>447.7</ele>
        <time>2013-03-30T09:41:52.000Z</time>
      </trkpt>
      <trkpt lat="47.27755" lon="4.97444">
        <ele>448.7</ele>
        <time>2013-03-30T09:41:55.000Z</time>
      </trkpt>
      <trkpt lat="47.27755" lon="4.97442">
        <ele>449.1</ele>
        <time>2013-03-30T09:41:56.000Z</time>
      </trkpt>
      <trkpt lat="47.27757" lon="4.97438">
        <ele>449.9</ele>
        <time>2013-03-30T09:41:58.000Z</time>
      </trkpt>
      <trkpt lat="47.27757" lon="4.97436">
        <ele>450.3</ele>
        <time>2013-03-30T09:41:59.000Z</time>
      </trkpt>
      <trkpt lat="47.27758" lon="4.97431">
        <ele>450.8</ele>
        <time>2013-03-30T09:42:01.000Z</time>
      </trkpt>
      <trkpt lat="47.27759" lon="4.97429">
        <ele>451</ele>
        <time>2013-03-30T09:42:02.000Z</time>
      </trkpt>
      <trkpt lat="47.2776" lon="4.97423">
        <ele>451.4</ele>
        <time>2013-03-30T09:42:05.000Z</time>
      </trkpt>
      <trkpt lat="47.27761" lon="4.97422">
        <ele>451.4</ele>
        <time>2013-03-30T09:42:06.000Z</time>
      </trkpt>
      <trkpt lat="47.27763" lon="4.97417">
        <ele>451.8</ele>
        <time>2013-03-30T09:42:09.000Z</time>
      </trkpt>
      <trkpt lat="47.27764" lon="4.97416">
        <ele>452</ele>
        <time>2013-03-30T09:42:10.000Z</time>
      </trkpt>
      <trkpt lat="47.27766" lon="4.9741">
        <ele>452.5</ele>
        <time>2013-03-30T09:42:13.000Z</time>
      </trkpt>
      <trkpt lat="47.27767" lon="4.97409">
        <ele>452.8</ele>
        <time>2013-03-30T09:42:14.000Z</time>
      </trkpt>
      <trkpt lat="47.27768" lon="4.97404">
        <ele>453.6</ele>
        <time>2013-03-30T09:42:16.000Z</time>
      </trkpt>
      <trkpt lat="47.27768" lon="4.97401">
        <ele>454.2</ele>
        <time>2013-03-30T09:42:17.000Z</time>
      </trkpt>
      <trkpt lat="47.27768" lon="4.97396">
        <ele>454.9</ele>
        <time>2013-03-30T09:42:19.000Z</time>
      </trkpt>
      <trkpt lat="47.27769" lon="4.97394">
        <ele>455.3</ele>
        <time>2013-03-30T09:42:20.000Z</time>
      </trkpt>
      <trkpt lat="47.27771" lon="4.97389">
        <ele>455.8</ele>
        <time>2013-03-30T09:42:23.000Z</time>
      </trkpt>
      <trkpt lat="47.27771" lon="4.97387">
        <ele>455.9</ele>
        <time>2013-03-30T09:42:24.000Z</time>
      </trkpt>
      <trkpt lat="47.27773" lon="4.97381">
        <ele>456.3</ele>
        <time>2013-03-30T09:42:27.000Z</time>
      </trkpt>
      <trkpt lat="47.27774" lon="4.9738">
        <ele>456.5</ele>
        <time>2013-03-30T09:42:28.000Z</time>
      </trkpt>
      <trkpt lat="47.27776" lon="4.97375">
        <ele>456.7</ele>
        <time>2013-03-30T09:42:31.000Z</time>
      </trkpt>
      <trkpt lat="47.27777" lon="4.97372">
        <ele>457.1</ele>
        <time>2013-03-30T09:42:32.000Z</time>
      </trkpt>
      <trkpt lat="47.27778" lon="4.97367">
        <ele>457.4</ele>
        <time>2013-03-30T09:42:34.000Z</time>
      </trkpt>
      <trkpt lat="47.27778" lon="4.97365">
        <ele>457.5</ele>
        <time>2013-03-30T09:42:35.000Z</time>
      </trkpt>
      <trkpt lat="47.2778" lon="4.9736">
        <ele>458.2</ele>
        <time>2013-03-30T09:42:37.000Z</time>
      </trkpt>
      <trkpt lat="47.27781" lon="4.97358">
        <ele>458.5</ele>
        <time>2013-03-30T09:42:38.000Z</time>
      </trkpt>
      <trkpt lat="47.27782" lon="4.97354">
        <ele>459.1</ele>
        <time>2013-03-30T09:42:40.000Z</time>
      </trkpt>
      <trkpt lat="47.27783" lon="4.97352">
        <ele>459.3</ele>
        <time>2013-03-30T09:42:41.000Z</time>
      </trkpt>
      <trkpt lat="47.27784" lon="4.97346">
        <ele>460.1</ele>
        <time>2013-03-30T09:42:44.000Z</time>
      </trkpt>
      <trkpt lat="47.27785" lon="4.97344">
        <ele>460.3</ele>
        <time>2013-03-30T09:42:45.000Z</time>
      </trkpt>
      <trkpt lat="47.27787" lon="4.97339">
        <ele>460.6</ele>
        <time>2013-03-30T09:42:48.000Z</time>
      </trkpt>
      <trkpt lat="47.27788" lon="4.97336">
        <ele>460.6</ele>
        <time>2013-03-30T09:42:49.000Z</time>
      </trkpt>
      <trkpt lat="47.27789" lon="4.97332">
        <ele>460.8</ele>
        <time>2013-03-30T09:42:51.000Z</time>
      </trkpt>
      <trkpt lat="47.2779" lon="4.9733">
        <ele>461</ele>
        <time>2013-03-30T09:42:52.000Z</time>
      </trkpt>
      <trkpt lat="47.27791" lon="4.97326">
        <ele>461.7</ele>
        <time>2013-03-30T09:42:54.000Z</time>
      </trkpt>
      <trkpt lat="47.27792" lon="4.97324">
        <ele>462</ele>
        <time>2013-03-30T09:42:55.000Z</time>
      </trkpt>
      <trkpt lat="47.27794" lon="4.9732">
        <ele>462.5</ele>
        <time>2013-03-30T09:42:57.000Z</time>
      </trkpt>
      <trkpt lat="47.27794" lon="4.97318">
        <ele>462.6</ele>
        <time>2013-03-30T09:42:58.000Z</time>
      </trkpt>
      <trkpt lat="47.27796" lon="4.97313">
        <ele>462.9</ele>
        <time>2013-03-30T09:43:01.000Z</time>
      </trkpt>
      <trkpt lat="47.27796" lon="4.9731">
        <ele>463</ele>
        <time>2013-03-30T09:43:02.000Z</time>
      </trkpt>
      <trkpt lat="47.27798" lon="4.97306">
        <ele>463.1</ele>
        <time>2013-03-30T09:43:04.000Z</time>
      </trkpt>
      <trkpt lat="47.27799" lon="4.97304">
        <ele>463.2</ele>
        <time>2013-03-30T09:43:05.000Z</time>
      </trkpt>
      <trkpt lat="47.27801" lon="4.973">
        <ele>463.3</ele>
        <time>2013-03-30T09:43:07.000Z</time>
      </trkpt>
      <trkpt lat="47.27802" lon="4.97298">
        <ele>463.3</ele>
        <time>2013-03-30T09:43:08.000Z</time>
      </trkpt>
      <trkpt lat="47.27804" lon="4.97293">
        <ele>463.6</ele>
        <time>2013-03-30T09:43:11.000Z</time>
      </trkpt>
      <trkpt lat="47.27805" lon="4.97291">
        <ele>463.9</ele>
        <time>2013-03-30T09:43:12.000Z</time>
      </trkpt>
      <trkpt lat="47.27807" lon="4.97287">
        <ele>464.1</ele>
        <time>2013-03-30T09:43:14.000Z</time>
      </trkpt>
      <trkpt lat="47.27809" lon="4.97286">
        <ele>464.1</ele>
        <time>2013-03-30T09:43:15.000Z</time>
      </trkpt>
      <trkpt lat="47.27813" lon="4.97284">
        <ele>464.1</ele>
        <time>2013-03-30T09:43:17.000Z</time>
      </trkpt>
      <trkpt lat="47.27814" lon="4.97284">
        <ele>464.3</ele>
        <time>2013-03-30T09:43:18.000Z</time>
      </trkpt>
      <trkpt lat="47.27818" lon="4.97283">
        <ele>464.3</ele>
        <time>2013-03-30T09:43:20.000Z</time>
      </trkpt>
      <trkpt lat="47.2782" lon="4.97282">
        <ele>464.3</ele>
        <time>2013-03-30T09:43:21.000Z</time>
      </trkpt>
      <trkpt lat="47.27824" lon="4.9728">
        <ele>464.3</ele>
        <time>2013-03-30T09:43:23.000Z</time>
      </trkpt>
      <trkpt lat="47.27826" lon="4.97279">
        <ele>464.3</ele>
        <time>2013-03-30T09:43:24.000Z</time>
      </trkpt>
      <trkpt lat="47.27829" lon="4.97277">
        <ele>464.5</ele>
        <time>2013-03-30T09:43:26.000Z</time>
      </trkpt>
      <trkpt lat="47.27831" lon="4.97276">
        <ele>464.5</ele>
        <time>2013-03-30T09:43:27.000Z</time>
      </trkpt>
      <trkpt lat="47.27834" lon="4.97273">
        <ele>464.4</ele>
        <time>2013-03-30T09:43:29.000Z</time>
      </trkpt>
      <trkpt lat="47.27836" lon="4.97272">
        <ele>464.4</ele>
        <time>2013-03-30T09:43:30.000Z</time>
      </trkpt>
      <trkpt lat="47.27839" lon="4.9727">
        <ele>464.7</ele>
        <time>2013-03-30T09:43:32.000Z</time>
      </trkpt>
      <trkpt lat="47.2784" lon="4.97269">
        <ele>464.7</ele>
        <time>2013-03-30T09:43:33.000Z</time>
      </trkpt>
      <trkpt lat="47.27843" lon="4.97266">
        <ele>464.8</ele>
        <time>2013-03-30T09:43:35.000Z</time>
      </trkpt>
      <trkpt lat="47.27845" lon="4.97265">
        <ele>464.8</ele>
        <time>2013-03-30T09:43:36.000Z</time>
      </trkpt>
      <trkpt lat="47.27848" lon="4.97263">
        <ele>464.7</ele>
        <time>2013-03-30T09:43:38.000Z</time>
      </trkpt>
      <trkpt lat="47.27849" lon="4.97261">
        <ele>464.7</ele>
        <time>2013-03-30T09:43:39.000Z</time>
      </trkpt>
      <trkpt lat="47.27852" lon="4.97259">
        <ele>464.7</ele>
        <time>2013-03-30T09:43:41.000Z</time>
      </trkpt>
      <trkpt lat="47.27854" lon="4.97258">
        <ele>464.7</ele>
        <time>2013-03-30T09:43:42.000Z</time>
      </trkpt>
      <trkpt lat="47.27856" lon="4.97255">
        <ele>464.8</ele>
        <time>2013-03-30T09:43:44.000Z</time>
      </trkpt>
      <trkpt lat="47.27858" lon="4.97255">
        <ele>464.8</ele>
        <time>2013-03-30T09:43:45.000Z</time>
      </trkpt>
      <trkpt lat="47.27861" lon="4.97252">
        <ele>464.7</ele>
        <time>2013-03-30T09:43:47.000Z</time>
      </trkpt>
      <trkpt lat="47.27863" lon="4.97251">
        <ele>464.7</ele>
        <time>2013-03-30T09:43:48.000Z</time>
      </trkpt>
      <trkpt lat="47.27867" lon="4.97248">
        <ele>464.8</ele>
        <time>2013-03-30T09:43:50.000Z</time>
      </trkpt>
      <trkpt lat="47.27869" lon="4.97247">
        <ele>464.8</ele>
        <time>2013-03-30T09:43:51.000Z</time>
      </trkpt>
      <trkpt lat="47.27872" lon="4.97244">
        <ele>464.9</ele>
        <time>2013-03-30T09:43:53.000Z</time>
      </trkpt>
      <trkpt lat="47.27874" lon="4.97242">
        <ele>465</ele>
        <time>2013-03-30T09:43:54.000Z</time>
      </trkpt>
      <trkpt lat="47.27877" lon="4.97241">
        <ele>465</ele>
        <time>2013-03-30T09:43:56.000Z</time>
      </trkpt>
      <trkpt lat="47.27878" lon="4.9724">
        <ele>465.1</ele>
        <time>2013-03-30T09:43:57.000Z</time>
      </trkpt>
      <trkpt lat="47.27882" lon="4.97238">
        <ele>465.2</ele>
        <time>2013-03-30T09:44:00.000Z</time>
      </trkpt>
      <trkpt lat="47.27884" lon="4.97237">
        <ele>465.2</ele>
        <time>2013-03-30T09:44:01.000Z</time>
      </trkpt>
      <trkpt lat="47.27887" lon="4.97235">
        <ele>464.9</ele>
        <time>2013-03-30T09:44:03.000Z</time>
      </trkpt>
      <trkpt lat="47.27889" lon="4.97234">
        <ele>464.9</ele>
        <time>2013-03-30T09:44:04.000Z</time>
      </trkpt>
      <trkpt lat="47.27892" lon="4.97231">
        <ele>464.9</ele>
        <time>2013-03-30T09:44:07.000Z</time>
      </trkpt>
      <trkpt lat="47.27893" lon="4.9723">
        <ele>464.8</ele>
        <time>2013-03-30T09:44:08.000Z</time>
      </trkpt>
      <trkpt lat="47.27897" lon="4.97227">
        <ele>464.7</ele>
        <time>2013-03-30T09:44:11.000Z</time>
      </trkpt>
      <trkpt lat="47.27898" lon="4.97226">
        <ele>464.7</ele>
        <time>2013-03-30T09:44:12.000Z</time>
      </trkpt>
      <trkpt lat="47.27901" lon="4.97223">
        <ele>464.7</ele>
        <time>2013-03-30T09:44:14.000Z</time>
      </trkpt>
      <trkpt lat="47.27903" lon="4.97221">
        <ele>464.7</ele>
        <time>2013-03-30T09:44:15.000Z</time>
      </trkpt>
      <trkpt lat="47.27906" lon="4.97219">
        <ele>464.7</ele>
        <time>2013-03-30T09:44:17.000Z</time>
      </trkpt>
      <trkpt lat="47.27907" lon="4.97218">
        <ele>464.7</ele>
        <time>2013-03-30T09:44:18.000Z</time>
      </trkpt>
      <trkpt lat="47.27917" lon="4.97202">
        <ele>456.2</ele>
        <time>2013-03-30T09:44:25.000Z</time>
      </trkpt>
      <trkpt lat="47.2792" lon="4.97198">
        <ele>455.8</ele>
        <time>2013-03-30T09:44:27.000Z</time>
      </trkpt>
      <trkpt lat="47.27921" lon="4.97196">
        <ele>456</ele>
        <time>2013-03-30T09:44:28.000Z</time>
      </trkpt>
      <trkpt lat="47.27922" lon="4.97192">
        <ele>460.1</ele>
        <time>2013-03-30T09:44:31.000Z</time>
      </trkpt>
      <trkpt lat="47.27924" lon="4.97191">
        <ele>461.2</ele>
        <time>2013-03-30T09:44:32.000Z</time>
      </trkpt>
      <trkpt lat="47.27926" lon="4.97188">
        <ele>461.6</ele>
        <time>2013-03-30T09:44:34.000Z</time>
      </trkpt>
      <trkpt lat="47.27927" lon="4.97187">
        <ele>460.9</ele>
        <time>2013-03-30T09:44:35.000Z</time>
      </trkpt>
      <trkpt lat="47.2793" lon="4.97183">
        <ele>462.3</ele>
        <time>2013-03-30T09:44:37.000Z</time>
      </trkpt>
      <trkpt lat="47.2793" lon="4.97181">
        <ele>462.4</ele>
        <time>2013-03-30T09:44:38.000Z</time>
      </trkpt>
      <trkpt lat="47.27932" lon="4.97178">
        <ele>461.9</ele>
        <time>2013-03-30T09:44:39.000Z</time>
      </trkpt>
      <trkpt lat="47.27933" lon="4.97175">
        <ele>461.2</ele>
        <time>2013-03-30T09:44:40.000Z</time>
      </trkpt>
      <trkpt lat="47.27935" lon="4.97171">
        <ele>461.4</ele>
        <time>2013-03-30T09:44:42.000Z</time>
      </trkpt>
      <trkpt lat="47.27936" lon="4.97169">
        <ele>461</ele>
        <time>2013-03-30T09:44:43.000Z</time>
      </trkpt>
      <trkpt lat="47.27939" lon="4.97165">
        <ele>460.8</ele>
        <time>2013-03-30T09:44:45.000Z</time>
      </trkpt>
      <trkpt lat="47.2794" lon="4.97162">
        <ele>460</ele>
        <time>2013-03-30T09:44:46.000Z</time>
      </trkpt>
      <trkpt lat="47.27943" lon="4.97158">
        <ele>459.2</ele>
        <time>2013-03-30T09:44:48.000Z</time>
      </trkpt>
      <trkpt lat="47.27944" lon="4.97156">
        <ele>458.3</ele>
        <time>2013-03-30T09:44:49.000Z</time>
      </trkpt>
      <trkpt lat="47.27945" lon="4.97151">
        <ele>457</ele>
        <time>2013-03-30T09:44:51.000Z</time>
      </trkpt>
      <trkpt lat="47.27946" lon="4.97149">
        <ele>456.3</ele>
        <time>2013-03-30T09:44:52.000Z</time>
      </trkpt>
      <trkpt lat="47.27948" lon="4.97145">
        <ele>455.1</ele>
        <time>2013-03-30T09:44:54.000Z</time>
      </trkpt>
      <trkpt lat="47.27949" lon="4.97142">
        <ele>454.7</ele>
        <time>2013-03-30T09:44:55.000Z</time>
      </trkpt>
      <trkpt lat="47.2795" lon="4.97136">
        <ele>454.1</ele>
        <time>2013-03-30T09:44:58.000Z</time>
      </trkpt>
      <trkpt lat="47.27951" lon="4.97134">
        <ele>453.6</ele>
        <time>2013-03-30T09:44:59.000Z</time>
      </trkpt>
      <trkpt lat="47.27953" lon="4.97129">
        <ele>453.5</ele>
        <time>2013-03-30T09:45:01.000Z</time>
      </trkpt>
      <trkpt lat="47.27954" lon="4.97127">
        <ele>453.6</ele>
        <time>2013-03-30T09:45:02.000Z</time>
      </trkpt>
      <trkpt lat="47.27956" lon="4.97124">
        <ele>453.6</ele>
        <time>2013-03-30T09:45:04.000Z</time>
      </trkpt>
      <trkpt lat="47.27956" lon="4.97122">
        <ele>453.8</ele>
        <time>2013-03-30T09:45:05.000Z</time>
      </trkpt>
      <trkpt lat="47.27958" lon="4.97117">
        <ele>453.7</ele>
        <time>2013-03-30T09:45:07.000Z</time>
      </trkpt>
      <trkpt lat="47.27958" lon="4.97115">
        <ele>453.6</ele>
        <time>2013-03-30T09:45:08.000Z</time>
      </trkpt>
      <trkpt lat="47.2796" lon="4.9711">
        <ele>453.5</ele>
        <time>2013-03-30T09:45:11.000Z</time>
      </trkpt>
      <trkpt lat="47.27961" lon="4.97108">
        <ele>453.5</ele>
        <time>2013-03-30T09:45:12.000Z</time>
      </trkpt>
      <trkpt lat="47.27961" lon="4.97103">
        <ele>453.4</ele>
        <time>2013-03-30T09:45:14.000Z</time>
      </trkpt>
      <trkpt lat="47.27962" lon="4.97101">
        <ele>453.4</ele>
        <time>2013-03-30T09:45:15.000Z</time>
      </trkpt>
      <trkpt lat="47.27962" lon="4.97096">
        <ele>453.6</ele>
        <time>2013-03-30T09:45:17.000Z</time>
      </trkpt>
      <trkpt lat="47.27963" lon="4.97094">
        <ele>453.7</ele>
        <time>2013-03-30T09:45:18.000Z</time>
      </trkpt>
      <trkpt lat="47.27968" lon="4.97072">
        <ele>450.1</ele>
        <time>2013-03-30T09:45:25.000Z</time>
      </trkpt>
      <trkpt lat="47.27969" lon="4.97068">
        <ele>454.9</ele>
        <time>2013-03-30T09:45:29.000Z</time>
      </trkpt>
      <trkpt lat="47.27969" lon="4.97066">
        <ele>454.7</ele>
        <time>2013-03-30T09:45:30.000Z</time>
      </trkpt>
      <trkpt lat="47.2797" lon="4.97061">
        <ele>454.3</ele>
        <time>2013-03-30T09:45:32.000Z</time>
      </trkpt>
      <trkpt lat="47.27971" lon="4.97059">
        <ele>454.9</ele>
        <time>2013-03-30T09:45:33.000Z</time>
      </trkpt>
      <trkpt lat="47.27972" lon="4.97053">
        <ele>457.4</ele>
        <time>2013-03-30T09:45:36.000Z</time>
      </trkpt>
      <trkpt lat="47.27972" lon="4.9705">
        <ele>456.9</ele>
        <time>2013-03-30T09:45:37.000Z</time>
      </trkpt>
      <trkpt lat="47.27972" lon="4.97045">
        <ele>456.5</ele>
        <time>2013-03-30T09:45:39.000Z</time>
      </trkpt>
      <trkpt lat="47.27973" lon="4.97044">
        <ele>457.2</ele>
        <time>2013-03-30T09:45:40.000Z</time>
      </trkpt>
      <trkpt lat="47.27973" lon="4.9704">
        <ele>458</ele>
        <time>2013-03-30T09:45:42.000Z</time>
      </trkpt>
      <trkpt lat="47.27974" lon="4.97037">
        <ele>457.9</ele>
        <time>2013-03-30T09:45:43.000Z</time>
      </trkpt>
      <trkpt lat="47.27974" lon="4.97032">
        <ele>457.9</ele>
        <time>2013-03-30T09:45:45.000Z</time>
      </trkpt>
      <trkpt lat="47.27975" lon="4.9703">
        <ele>458.2</ele>
        <time>2013-03-30T09:45:46.000Z</time>
      </trkpt>
      <trkpt lat="47.27975" lon="4.97025">
        <ele>458.4</ele>
        <time>2013-03-30T09:45:48.000Z</time>
      </trkpt>
      <trkpt lat="47.27976" lon="4.97023">
        <ele>458.8</ele>
        <time>2013-03-30T09:45:49.000Z</time>
      </trkpt>
      <trkpt lat="47.27976" lon="4.97018">
        <ele>458.4</ele>
        <time>2013-03-30T09:45:51.000Z</time>
      </trkpt>
      <trkpt lat="47.27976" lon="4.97016">
        <ele>458.4</ele>
        <time>2013-03-30T09:45:52.000Z</time>
      </trkpt>
      <trkpt lat="47.27978" lon="4.97012">
        <ele>458</ele>
        <time>2013-03-30T09:45:54.000Z</time>
      </trkpt>
      <trkpt lat="47.27978" lon="4.9701">
        <ele>457.8</ele>
        <time>2013-03-30T09:45:55.000Z</time>
      </trkpt>
      <trkpt lat="47.2798" lon="4.97005">
        <ele>457.9</ele>
        <time>2013-03-30T09:45:57.000Z</time>
      </trkpt>
      <trkpt lat="47.2798" lon="4.97003">
        <ele>457.8</ele>
        <time>2013-03-30T09:45:58.000Z</time>
      </trkpt>
      <trkpt lat="47.27982" lon="4.96999">
        <ele>457.6</ele>
        <time>2013-03-30T09:46:00.000Z</time>
      </trkpt>
      <trkpt lat="47.27982" lon="4.96996">
        <ele>457.3</ele>
        <time>2013-03-30T09:46:01.000Z</time>
      </trkpt>
      <trkpt lat="47.27983" lon="4.9699">
        <ele>457.7</ele>
        <time>2013-03-30T09:46:04.000Z</time>
      </trkpt>
      <trkpt lat="47.27984" lon="4.96988">
        <ele>458</ele>
        <time>2013-03-30T09:46:05.000Z</time>
      </trkpt>
      <trkpt lat="47.27986" lon="4.96983">
        <ele>457.1</ele>
        <time>2013-03-30T09:46:08.000Z</time>
      </trkpt>
      <trkpt lat="47.27988" lon="4.96982">
        <ele>456.5</ele>
        <time>2013-03-30T09:46:09.000Z</time>
      </trkpt>
      <trkpt lat="47.27991" lon="4.96981">
        <ele>455.7</ele>
        <time>2013-03-30T09:46:11.000Z</time>
      </trkpt>
      <trkpt lat="47.27993" lon="4.96981">
        <ele>455.5</ele>
        <time>2013-03-30T09:46:12.000Z</time>
      </trkpt>
      <trkpt lat="47.27995" lon="4.9698">
        <ele>455.4</ele>
        <time>2013-03-30T09:46:13.000Z</time>
      </trkpt>
      <trkpt lat="47.27998" lon="4.96978">
        <ele>455.3</ele>
        <time>2013-03-30T09:46:14.000Z</time>
      </trkpt>
      <trkpt lat="47.28001" lon="4.96977">
        <ele>454.9</ele>
        <time>2013-03-30T09:46:16.000Z</time>
      </trkpt>
      <trkpt lat="47.28002" lon="4.96976">
        <ele>454.6</ele>
        <time>2013-03-30T09:46:17.000Z</time>
      </trkpt>
      <trkpt lat="47.28005" lon="4.96975">
        <ele>454.3</ele>
        <time>2013-03-30T09:46:18.000Z</time>
      </trkpt>
      <trkpt lat="47.28028" lon="4.96982">
        <ele>440.6</ele>
        <time>2013-03-30T09:46:28.000Z</time>
      </trkpt>
      <trkpt lat="47.28031" lon="4.96982">
        <ele>440.9</ele>
        <time>2013-03-30T09:46:29.000Z</time>
      </trkpt>
      <trkpt lat="47.28034" lon="4.96983">
        <ele>442.7</ele>
        <time>2013-03-30T09:46:31.000Z</time>
      </trkpt>
      <trkpt lat="47.28037" lon="4.96984">
        <ele>443.3</ele>
        <time>2013-03-30T09:46:32.000Z</time>
      </trkpt>
      <trkpt lat="47.28039" lon="4.96984">
        <ele>443.6</ele>
        <time>2013-03-30T09:46:33.000Z</time>
      </trkpt>
      <trkpt lat="47.28042" lon="4.96986">
        <ele>443.6</ele>
        <time>2013-03-30T09:46:34.000Z</time>
      </trkpt>
      <trkpt lat="47.28044" lon="4.96987">
        <ele>442.7</ele>
        <time>2013-03-30T09:46:35.000Z</time>
      </trkpt>
      <trkpt lat="47.28046" lon="4.96988">
        <ele>442.7</ele>
        <time>2013-03-30T09:46:36.000Z</time>
      </trkpt>
      <trkpt lat="47.28049" lon="4.96989">
        <ele>442.1</ele>
        <time>2013-03-30T09:46:37.000Z</time>
      </trkpt>
      <trkpt lat="47.28052" lon="4.9699">
        <ele>439.9</ele>
        <time>2013-03-30T09:46:38.000Z</time>
      </trkpt>
      <trkpt lat="47.28053" lon="4.96991">
        <ele>438</ele>
        <time>2013-03-30T09:46:39.000Z</time>
      </trkpt>
      <trkpt lat="47.28056" lon="4.96993">
        <ele>437.5</ele>
        <time>2013-03-30T09:46:40.000Z</time>
      </trkpt>
      <trkpt lat="47.28058" lon="4.96994">
        <ele>437</ele>
        <time>2013-03-30T09:46:41.000Z</time>
      </trkpt>
      <trkpt lat="47.2806" lon="4.96996">
        <ele>437.3</ele>
        <time>2013-03-30T09:46:42.000Z</time>
      </trkpt>
      <trkpt lat="47.28062" lon="4.96998">
        <ele>437.4</ele>
        <time>2013-03-30T09:46:43.000Z</time>
      </trkpt>
      <trkpt lat="47.28064" lon="4.96998">
        <ele>437</ele>
        <time>2013-03-30T09:46:44.000Z</time>
      </trkpt>
      <trkpt lat="47.28066" lon="4.96999">
        <ele>436.4</ele>
        <time>2013-03-30T09:46:45.000Z</time>
      </trkpt>
      <trkpt lat="47.28071" lon="4.97001">
        <ele>435.6</ele>
        <time>2013-03-30T09:46:47.000Z</time>
      </trkpt>
      <trkpt lat="47.28073" lon="4.97003">
        <ele>435.6</ele>
        <time>2013-03-30T09:46:48.000Z</time>
      </trkpt>
      <trkpt lat="47.28076" lon="4.97004">
        <ele>434</ele>
        <time>2013-03-30T09:46:49.000Z</time>
      </trkpt>
      <trkpt lat="47.28078" lon="4.97006">
        <ele>433.1</ele>
        <time>2013-03-30T09:46:50.000Z</time>
      </trkpt>
      <trkpt lat="47.28081" lon="4.97008">
        <ele>432.2</ele>
        <time>2013-03-30T09:46:51.000Z</time>
      </trkpt>
      <trkpt lat="47.28084" lon="4.97008">
        <ele>430.3</ele>
        <time>2013-03-30T09:46:52.000Z</time>
      </trkpt>
      <trkpt lat="47.28087" lon="4.97007">
        <ele>428.8</ele>
        <time>2013-03-30T09:46:53.000Z</time>
      </trkpt>
      <trkpt lat="47.2809" lon="4.97006">
        <ele>427.1</ele>
        <time>2013-03-30T09:46:54.000Z</time>
      </trkpt>
      <trkpt lat="47.28092" lon="4.97008">
        <ele>423</ele>
        <time>2013-03-30T09:47:01.000Z</time>
      </trkpt>
      <trkpt lat="47.28092" lon="4.97013">
        <ele>417.4</ele>
        <time>2013-03-30T09:47:02.000Z</time>
      </trkpt>
      <trkpt lat="47.28096" lon="4.97014">
        <ele>416.2</ele>
        <time>2013-03-30T09:47:06.000Z</time>
      </trkpt>
      <trkpt lat="47.28097" lon="4.97014">
        <ele>416.1</ele>
        <time>2013-03-30T09:47:07.000Z</time>
      </trkpt>
      <trkpt lat="47.28101" lon="4.97015">
        <ele>415.8</ele>
        <time>2013-03-30T09:47:09.000Z</time>
      </trkpt>
      <trkpt lat="47.28103" lon="4.97015">
        <ele>415.3</ele>
        <time>2013-03-30T09:47:10.000Z</time>
      </trkpt>
      <trkpt lat="47.28106" lon="4.97015">
        <ele>414.9</ele>
        <time>2013-03-30T09:47:12.000Z</time>
      </trkpt>
      <trkpt lat="47.28108" lon="4.97014">
        <ele>414.6</ele>
        <time>2013-03-30T09:47:13.000Z</time>
      </trkpt>
      <trkpt lat="47.28112" lon="4.97014">
        <ele>414.5</ele>
        <time>2013-03-30T09:47:15.000Z</time>
      </trkpt>
      <trkpt lat="47.28113" lon="4.97015">
        <ele>414.3</ele>
        <time>2013-03-30T09:47:16.000Z</time>
      </trkpt>
      <trkpt lat="47.28117" lon="4.97018">
        <ele>414.1</ele>
        <time>2013-03-30T09:47:18.000Z</time>
      </trkpt>
      <trkpt lat="47.28141" lon="4.97032">
        <ele>405.8</ele>
        <time>2013-03-30T09:47:27.000Z</time>
      </trkpt>
      <trkpt lat="47.28145" lon="4.97032">
        <ele>406.5</ele>
        <time>2013-03-30T09:47:29.000Z</time>
      </trkpt>
      <trkpt lat="47.28147" lon="4.97032">
        <ele>404.6</ele>
        <time>2013-03-30T09:47:30.000Z</time>
      </trkpt>
      <trkpt lat="47.2815" lon="4.97033">
        <ele>403.9</ele>
        <time>2013-03-30T09:47:32.000Z</time>
      </trkpt>
      <trkpt lat="47.28151" lon="4.97033">
        <ele>402.3</ele>
        <time>2013-03-30T09:47:33.000Z</time>
      </trkpt>
      <trkpt lat="47.28155" lon="4.97034">
        <ele>399.9</ele>
        <time>2013-03-30T09:47:35.000Z</time>
      </trkpt>
      <trkpt lat="47.28156" lon="4.97034">
        <ele>398.9</ele>
        <time>2013-03-30T09:47:36.000Z</time>
      </trkpt>
      <trkpt lat="47.2816" lon="4.97035">
        <ele>396</ele>
        <time>2013-03-30T09:47:39.000Z</time>
      </trkpt>
      <trkpt lat="47.28162" lon="4.97036">
        <ele>396</ele>
        <time>2013-03-30T09:47:40.000Z</time>
      </trkpt>
      <trkpt lat="47.28165" lon="4.97037">
        <ele>394.7</ele>
        <time>2013-03-30T09:47:42.000Z</time>
      </trkpt>
      <trkpt lat="47.28167" lon="4.97037">
        <ele>393.7</ele>
        <time>2013-03-30T09:47:43.000Z</time>
      </trkpt>
      <trkpt lat="47.2817" lon="4.97038">
        <ele>391.6</ele>
        <time>2013-03-30T09:47:45.000Z</time>
      </trkpt>
      <trkpt lat="47.28172" lon="4.97039">
        <ele>391.7</ele>
        <time>2013-03-30T09:47:46.000Z</time>
      </trkpt>
      <trkpt lat="47.28176" lon="4.97042">
        <ele>390.8</ele>
        <time>2013-03-30T09:47:48.000Z</time>
      </trkpt>
      <trkpt lat="47.28178" lon="4.97043">
        <ele>391.3</ele>
        <time>2013-03-30T09:47:49.000Z</time>
      </trkpt>
      <trkpt lat="47.2818" lon="4.97043">
        <ele>391.6</ele>
        <time>2013-03-30T09:47:50.000Z</time>
      </trkpt>
      <trkpt lat="47.28182" lon="4.97043">
        <ele>391.3</ele>
        <time>2013-03-30T09:47:51.000Z</time>
      </trkpt>
      <trkpt lat="47.28186" lon="4.97045">
        <ele>390.8</ele>
        <time>2013-03-30T09:47:53.000Z</time>
      </trkpt>
      <trkpt lat="47.28188" lon="4.97045">
        <ele>390.7</ele>
        <time>2013-03-30T09:47:54.000Z</time>
      </trkpt>
      <trkpt lat="47.28192" lon="4.97048">
        <ele>390.5</ele>
        <time>2013-03-30T09:47:56.000Z</time>
      </trkpt>
      <trkpt lat="47.28193" lon="4.97049">
        <ele>390.8</ele>
        <time>2013-03-30T09:47:57.000Z</time>
      </trkpt>
      <trkpt lat="47.28195" lon="4.9705">
        <ele>391.1</ele>
        <time>2013-03-30T09:47:58.000Z</time>
      </trkpt>
      <trkpt lat="47.28197" lon="4.97052">
        <ele>391.8</ele>
        <time>2013-03-30T09:47:59.000Z</time>
      </trkpt>
      <trkpt lat="47.282" lon="4.97056">
        <ele>391.5</ele>
        <time>2013-03-30T09:48:01.000Z</time>
      </trkpt>
      <trkpt lat="47.28202" lon="4.97057">
        <ele>391.3</ele>
        <time>2013-03-30T09:48:02.000Z</time>
      </trkpt>
      <trkpt lat="47.28205" lon="4.97058">
        <ele>391.5</ele>
        <time>2013-03-30T09:48:03.000Z</time>
      </trkpt>
      <trkpt lat="47.28207" lon="4.97059">
        <ele>391.3</ele>
        <time>2013-03-30T09:48:04.000Z</time>
      </trkpt>
      <trkpt lat="47.28211" lon="4.97059">
        <ele>390.3</ele>
        <time>2013-03-30T09:48:06.000Z</time>
      </trkpt>
      <trkpt lat="47.28214" lon="4.9706">
        <ele>389.6</ele>
        <time>2013-03-30T09:48:07.000Z</time>
      </trkpt>
      <trkpt lat="47.28217" lon="4.9706">
        <ele>389.2</ele>
        <time>2013-03-30T09:48:08.000Z</time>
      </trkpt>
      <trkpt lat="47.28219" lon="4.97061">
        <ele>389</ele>
        <time>2013-03-30T09:48:09.000Z</time>
      </trkpt>
      <trkpt lat="47.28223" lon="4.97062">
        <ele>389</ele>
        <time>2013-03-30T09:48:11.000Z</time>
      </trkpt>
      <trkpt lat="47.28224" lon="4.97063">
        <ele>388.9</ele>
        <time>2013-03-30T09:48:12.000Z</time>
      </trkpt>
      <trkpt lat="47.28227" lon="4.97065">
        <ele>388.4</ele>
        <time>2013-03-30T09:48:15.000Z</time>
      </trkpt>
      <trkpt lat="47.28229" lon="4.97067">
        <ele>388.3</ele>
        <time>2013-03-30T09:48:16.000Z</time>
      </trkpt>
      <trkpt lat="47.2823" lon="4.97071">
        <ele>388.3</ele>
        <time>2013-03-30T09:48:18.000Z</time>
      </trkpt>
      <trkpt lat="47.28237" lon="4.97093">
        <ele>382.9</ele>
        <time>2013-03-30T09:48:24.000Z</time>
      </trkpt>
      <trkpt lat="47.28233" lon="4.97097">
        <ele>382.4</ele>
        <time>2013-03-30T09:48:27.000Z</time>
      </trkpt>
      <trkpt lat="47.28233" lon="4.97098">
        <ele>384.5</ele>
        <time>2013-03-30T09:48:28.000Z</time>
      </trkpt>
      <trkpt lat="47.28232" lon="4.97103">
        <ele>386.8</ele>
        <time>2013-03-30T09:48:31.000Z</time>
      </trkpt>
      <trkpt lat="47.28231" lon="4.97105">
        <ele>388.5</ele>
        <time>2013-03-30T09:48:32.000Z</time>
      </trkpt>
      <trkpt lat="47.28232" lon="4.97109">
        <ele>389.6</ele>
        <time>2013-03-30T09:48:34.000Z</time>
      </trkpt>
      <trkpt lat="47.28232" lon="4.97112">
        <ele>390.6</ele>
        <time>2013-03-30T09:48:35.000Z</time>
      </trkpt>
      <trkpt lat="47.28231" lon="4.97118">
        <ele>389.2</ele>
        <time>2013-03-30T09:48:38.000Z</time>
      </trkpt>
      <trkpt lat="47.2823" lon="4.9712">
        <ele>389.6</ele>
        <time>2013-03-30T09:48:39.000Z</time>
      </trkpt>
      <trkpt lat="47.28228" lon="4.97125">
        <ele>391.1</ele>
        <time>2013-03-30T09:48:42.000Z</time>
      </trkpt>
      <trkpt lat="47.28228" lon="4.97127">
        <ele>391.8</ele>
        <time>2013-03-30T09:48:43.000Z</time>
      </trkpt>
      <trkpt lat="47.28228" lon="4.97132">
        <ele>392.8</ele>
        <time>2013-03-30T09:48:46.000Z</time>
      </trkpt>
      <trkpt lat="47.28229" lon="4.97135">
        <ele>393.8</ele>
        <time>2013-03-30T09:48:47.000Z</time>
      </trkpt>
      <trkpt lat="47.2823" lon="4.97141">
        <ele>395.2</ele>
        <time>2013-03-30T09:48:49.000Z</time>
      </trkpt>
      <trkpt lat="47.2823" lon="4.97144">
        <ele>393.6</ele>
        <time>2013-03-30T09:48:50.000Z</time>
      </trkpt>
      <trkpt lat="47.28229" lon="4.97149">
        <ele>394.3</ele>
        <time>2013-03-30T09:48:52.000Z</time>
      </trkpt>
      <trkpt lat="47.28228" lon="4.97151">
        <ele>394.5</ele>
        <time>2013-03-30T09:48:53.000Z</time>
      </trkpt>
      <trkpt lat="47.28226" lon="4.97156">
        <ele>394.3</ele>
        <time>2013-03-30T09:48:55.000Z</time>
      </trkpt>
      <trkpt lat="47.28225" lon="4.97158">
        <ele>394</ele>
        <time>2013-03-30T09:48:56.000Z</time>
      </trkpt>
      <trkpt lat="47.28224" lon="4.97163">
        <ele>393.1</ele>
        <time>2013-03-30T09:48:58.000Z</time>
      </trkpt>
      <trkpt lat="47.28223" lon="4.97166">
        <ele>392.6</ele>
        <time>2013-03-30T09:48:59.000Z</time>
      </trkpt>
      <trkpt lat="47.28223" lon="4.97171">
        <ele>391.3</ele>
        <time>2013-03-30T09:49:01.000Z</time>
      </trkpt>
      <trkpt lat="47.28222" lon="4.97174">
        <ele>390.9</ele>
        <time>2013-03-30T09:49:02.000Z</time>
      </trkpt>
      <trkpt lat="47.28222" lon="4.97179">
        <ele>390.1</ele>
        <time>2013-03-30T09:49:04.000Z</time>
      </trkpt>
      <trkpt lat="47.28222" lon="4.97182">
        <ele>389.9</ele>
        <time>2013-03-30T09:49:05.000Z</time>
      </trkpt>
      <trkpt lat="47.28222" lon="4.97187">
        <ele>389.1</ele>
        <time>2013-03-30T09:49:07.000Z</time>
      </trkpt>
      <trkpt lat="47.28222" lon="4.9719">
        <ele>389.1</ele>
        <time>2013-03-30T09:49:08.000Z</time>
      </trkpt>
      <trkpt lat="47.28221" lon="4.97195">
        <ele>388.2</ele>
        <time>2013-03-30T09:49:10.000Z</time>
      </trkpt>
      <trkpt lat="47.28221" lon="4.97198">
        <ele>387.7</ele>
        <time>2013-03-30T09:49:11.000Z</time>
      </trkpt>
      <trkpt lat="47.2822" lon="4.97202">
        <ele>387.2</ele>
        <time>2013-03-30T09:49:13.000Z</time>
      </trkpt>
      <trkpt lat="47.2822" lon="4.97204">
        <ele>387.1</ele>
        <time>2013-03-30T09:49:14.000Z</time>
      </trkpt>
      <trkpt lat="47.2822" lon="4.97208">
        <ele>386.6</ele>
        <time>2013-03-30T09:49:15.000Z</time>
      </trkpt>
      <trkpt lat="47.2822" lon="4.97211">
        <ele>386.5</ele>
        <time>2013-03-30T09:49:16.000Z</time>
      </trkpt>
      <trkpt lat="47.2822" lon="4.97214">
        <ele>386.1</ele>
        <time>2013-03-30T09:49:17.000Z</time>
      </trkpt>
      <trkpt lat="47.28219" lon="4.97217">
        <ele>386</ele>
        <time>2013-03-30T09:49:18.000Z</time>
      </trkpt>
      <trkpt lat="47.28211" lon="4.97256">
        <ele>380.1</ele>
        <time>2013-03-30T09:49:27.000Z</time>
      </trkpt>
      <trkpt lat="47.28209" lon="4.97261">
        <ele>384.1</ele>
        <time>2013-03-30T09:49:30.000Z</time>
      </trkpt>
      <trkpt lat="47.28208" lon="4.97262">
        <ele>383.2</ele>
        <time>2013-03-30T09:49:31.000Z</time>
      </trkpt>
      <trkpt lat="47.28206" lon="4.97266">
        <ele>385.8</ele>
        <time>2013-03-30T09:49:34.000Z</time>
      </trkpt>
      <trkpt lat="47.28205" lon="4.97267">
        <ele>385.4</ele>
        <time>2013-03-30T09:49:35.000Z</time>
      </trkpt>
      <trkpt lat="47.28203" lon="4.97273">
        <ele>386.9</ele>
        <time>2013-03-30T09:49:38.000Z</time>
      </trkpt>
      <trkpt lat="47.28201" lon="4.97275">
        <ele>387.3</ele>
        <time>2013-03-30T09:49:39.000Z</time>
      </trkpt>
      <trkpt lat="47.282" lon="4.9728">
        <ele>388.2</ele>
        <time>2013-03-30T09:49:41.000Z</time>
      </trkpt>
      <trkpt lat="47.28199" lon="4.97282">
        <ele>389.1</ele>
        <time>2013-03-30T09:49:42.000Z</time>
      </trkpt>
      <trkpt lat="47.28198" lon="4.97287">
        <ele>392.1</ele>
        <time>2013-03-30T09:49:45.000Z</time>
      </trkpt>
      <trkpt lat="47.28199" lon="4.9729">
        <ele>391.5</ele>
        <time>2013-03-30T09:49:46.000Z</time>
      </trkpt>
      <trkpt lat="47.28197" lon="4.97296">
        <ele>385.4</ele>
        <time>2013-03-30T09:49:49.000Z</time>
      </trkpt>
      <trkpt lat="47.28197" lon="4.97298">
        <ele>383.7</ele>
        <time>2013-03-30T09:49:50.000Z</time>
      </trkpt>
      <trkpt lat="47.28193" lon="4.97299">
        <ele>377.9</ele>
        <time>2013-03-30T09:49:56.000Z</time>
      </trkpt>
      <trkpt lat="47.28192" lon="4.97299">
        <ele>376.9</ele>
        <time>2013-03-30T09:49:57.000Z</time>
      </trkpt>
      <trkpt lat="47.28192" lon="4.97296">
        <ele>376.7</ele>
        <time>2013-03-30T09:50:18.000Z</time>
      </trkpt>
      <trkpt lat="47.28209" lon="4.97298">
        <ele>367.4</ele>
        <time>2013-03-30T09:50:39.000Z</time>
      </trkpt>
      <trkpt lat="47.28206" lon="4.97298">
        <ele>363</ele>
        <time>2013-03-30T09:50:58.000Z</time>
      </trkpt>
    </trkseg>
  </trk>
</gpx>